GFSCGP_sfc_30mbdewp_000.txt.gz
Dewpoint
16 16 19 19 17 14 10 7 6 14 18 15 12 16 18 21 20 22 21 23 24 36 42 43 43 44 43 45 43 50 49 48 46 46 43 42 43 42 43 42 41 41 44 43
9 17 19 17 16 14 12 11 11 15 17 15 17 14 19 22 24 24 24 28 35 37 37 40 42 46 49 48 49 48 46 43 41 41 42 43 42 41 41 43 42 43 42 41
21 20 19 18 19 18 16 15 22 20 20 18 16 17 19 22 24 26 28 29 32 33 36 38 42 45 45 45 43 42 41 41 42 41 40 39 39 40 40 41 42 42 42 39
21 21 22 21 22 23 18 25 23 20 18 14 15 12 19 21 24 27 29 30 30 30 32 35 41 43 44 44 43 41 40 39 40 40 40 39 39 40 42 44 44 44 40 39
22 24 24 24 24 24 24 26 23 21 19 17 16 17 22 21 22 26 29 30 32 34 35 37 39 41 43 44 43 42 40 39 39 39 39 40 44 45 44 43 41 39 39 37
24 25 27 27 26 25 27 26 24 24 22 21 17 20 26 23 24 27 30 32 33 34 35 37 39 41 42 43 42 41 38 37 39 40 41 40 38 38 38 38 37 36 35 35
24 25 28 26 27 28 24 24 22 23 21 21 24 18 26 26 28 28 30 32 35 36 37 36 37 38 40 40 40 40 41 39 38 37 37 37 38 38 37 36 35 34 34 35
21 25 26 26 26 24 25 23 26 21 22 21 19 13 24 28 29 29 30 31 33 35 37 36 37 38 38 39 40 41 41 40 39 39 38 39 38 37 36 36 34 34 34 35
23 24 27 26 27 25 26 24 22 26 29 24 14 24 27 27 27 28 28 30 31 33 35 35 36 37 38 39 39 40 40 40 39 40 39 37 37 37 35 33 34 33 35 34
23 25 23 23 28 29 26 24 23 24 20 16 14 17 26 26 26 26 26 27 29 32 34 36 36 37 38 39 41 42 41 41 39 37 35 35 35 36 34 34 33 35 35 34
25 27 23 25 26 25 26 25 24 20 22 20 18 16 22 24 25 26 27 29 30 32 33 35 36 38 39 40 39 41 41 39 38 36 35 35 35 34 34 34 35 35 35 34
27 27 25 21 25 27 25 25 22 24 22 28 27 23 25 26 30 30 30 32 33 35 36 36 38 38 37 39 39 40 40 40 38 37 36 34 34 32 32 34 32 31 32 33
31 30 26 23 29 28 23 25 23 30 28 23 25 25 28 33 31 29 28 32 35 35 35 36 37 37 36 35 36 36 37 38 38 37 35 33 32 30 30 29 29 30 30 30
36 26 24 21 18 19 18 19 20 20 26 25 26 23 25 29 30 29 29 33 34 34 37 37 37 36 34 33 33 33 33 38 38 37 35 33 31 28 27 27 26 26 25 23
32 29 29 27 23 20 19 19 20 19 21 20 23 22 23 28 29 34 35 35 36 37 37 37 36 35 32 31 29 28 29 32 36 37 34 34 30 27 27 27 25 24 22 19
34 37 33 28 23 22 22 21 20 19 19 20 22 23 27 33 34 35 35 36 37 36 35 34 34 30 28 27 24 22 24 26 32 30 32 32 30 28 28 27 25 22 20 18
38 37 32 28 31 31 29 29 23 22 22 23 24 26 32 34 34 34 36 37 36 34 33 33 30 27 24 20 19 19 20 22 27 28 29 32 35 33 32 27 24 19 18 19
37 37 37 29 32 23 26 25 25 24 24 24 25 30 34 35 35 34 38 36 33 33 32 29 24 22 22 21 18 18 18 19 21 22 26 32 33 32 29 27 25 21 18 19
40 39 30 31 27 25 26 28 28 27 27 28 33 35 36 35 34 33 34 34 32 31 27 21 21 21 19 17 18 18 19 19 20 20 28 29 33 27 27 26 25 20 18 19
38 40 37 31 27 22 26 28 31 31 27 37 38 37 37 35 32 32 34 32 28 23 20 19 18 16 15 17 17 17 18 18 21 30 30 28 25 26 27 27 24 18 19 20
32 35 32 30 28 30 28 30 32 28 33 40 40 38 37 34 36 36 31 26 22 20 18 18 15 14 15 16 17 18 18 18 26 28 30 32 30 26 24 23 17 19 19 20
30 32 31 31 28 26 33 31 31 38 41 41 39 38 37 36 37 29 25 22 20 18 16 14 14 14 16 17 18 19 18 23 28 30 30 29 27 25 20 18 19 19 19 22
27 33 33 33 33 34 35 36 40 43 41 40 40 38 36 35 31 26 22 21 19 17 14 15 15 16 17 18 19 19 21 24 26 27 26 26 22 21 21 19 18 18 19 21
28 27 34 33 33 32 34 37 42 42 41 39 38 37 36 30 26 23 21 20 18 16 16 16 17 16 17 19 20 23 24 26 26 24 25 23 21 22 22 20 18 19 22 21
35 31 30 31 33 34 39 41 41 40 39 39 37 36 28 25 23 22 19 18 18 17 18 18 17 17 20 20 22 25 25 27 25 25 24 24 25 25 22 21 20 21 22 19
35 31 32 34 37 39 40 40 39 39 38 37 35 28 25 24 21 18 18 18 17 17 16 17 18 21 21 23 25 26 25 26 28 27 26 26 25 25 23 22 22 22 21 19

GFSCGP_sfc_30mbdewp_003.txt.gz
Dewpoint
22 21 19 17 16 14 13 12 16 18 17 16 14 19 23 25 25 29 39 40 40 41 44 47 46 46 47 50 49 50 46 43 45 42 42 40 39 40 41 39 42 40 39 39
16 19 19 19 19 18 12 18 21 18 17 14 14 19 24 27 29 32 36 36 38 41 43 44 43 43 45 43 42 42 42 41 42 43 43 41 40 40 39 40 41 43 43 43
21 19 19 19 24 22 22 22 21 20 20 18 18 20 23 26 28 30 31 34 36 39 41 43 43 42 42 41 40 39 38 38 40 39 38 38 38 39 41 44 43 42 44 41
21 22 24 23 24 24 25 27 24 21 20 16 17 17 22 26 29 30 32 34 36 39 42 43 43 42 42 42 40 39 38 37 38 39 39 39 42 43 43 42 41 43 39 37
23 25 27 25 24 25 26 26 24 23 21 20 18 20 22 27 28 29 30 32 35 38 40 41 42 42 42 41 40 39 38 38 38 37 37 40 39 39 40 41 37 35 35 36
24 28 27 26 27 25 25 27 27 26 25 21 23 24 28 31 28 31 33 34 35 36 38 40 42 42 41 41 39 37 36 36 38 37 37 39 36 36 38 35 32 32 34 36
25 27 28 27 27 28 28 26 25 23 23 22 27 24 31 30 30 32 34 36 37 37 37 39 40 40 40 39 39 39 39 38 37 38 37 36 37 35 34 32 31 31 34 32
24 25 26 27 26 24 27 26 22 22 20 21 17 23 27 28 30 30 31 33 36 36 37 37 37 38 39 38 38 40 39 38 38 38 37 37 37 36 34 32 30 31 33 35
28 25 28 25 26 27 28 21 22 25 30 23 23 26 27 28 28 29 28 29 35 36 36 35 37 39 39 39 40 40 40 39 34 35 35 35 36 37 36 33 32 35 36 35
24 24 23 23 28 29 24 24 24 22 19 16 19 26 28 30 31 27 27 30 32 35 37 37 38 39 38 40 41 40 39 38 36 35 37 38 37 37 39 36 35 34 34 34
31 31 23 25 26 27 26 27 25 24 23 19 20 20 29 29 29 29 31 34 35 35 36 37 37 38 39 38 38 38 38 38 37 36 36 35 35 35 36 34 32 32 32 33
27 28 23 24 26 27 26 26 27 22 27 29 27 20 31 30 30 30 33 34 35 35 36 37 37 36 34 34 33 33 35 38 37 37 37 36 35 33 34 32 30 30 29 30
31 27 24 27 30 29 24 25 30 31 26 20 23 23 31 33 32 32 34 34 35 37 38 38 37 36 33 31 31 32 31 36 35 37 37 36 36 32 29 28 28 27 27 26
37 29 23 22 22 22 19 21 24 29 27 25 25 24 26 34 34 35 36 36 37 37 37 36 36 33 31 29 28 24 22 24 30 37 38 39 39 36 28 29 28 25 24 21
34 32 29 24 24 24 22 21 22 21 22 22 21 26 33 34 34 36 37 38 37 36 35 35 34 31 29 22 19 18 20 21 22 28 33 36 36 33 34 32 29 29 24 21
39 33 29 25 30 26 24 25 24 23 21 21 23 30 34 35 35 36 37 37 35 34 34 33 32 29 23 20 19 20 20 20 21 21 22 26 37 36 35 34 33 29 21 16
36 32 31 26 31 32 26 26 28 25 25 24 23 32 35 35 35 37 35 34 34 34 33 32 30 22 21 20 19 18 19 20 22 22 25 34 35 35 36 37 34 22 19 17
33 36 33 23 30 16 29 28 28 28 29 33 35 36 35 34 37 35 34 33 33 32 31 30 24 19 19 18 17 18 19 20 21 25 29 31 32 33 36 36 27 21 19 15
39 36 26 22 25 24 27 28 28 28 32 38 37 37 36 35 34 34 34 33 32 29 26 21 18 17 16 17 17 18 19 20 21 29 29 30 30 31 31 31 26 25 19 18
40 37 33 29 19 9 26 32 33 32 28 39 38 37 36 35 30 32 36 33 28 22 21 18 16 15 16 16 18 19 20 21 26 30 30 32 32 31 32 32 27 23 17 20
33 34 28 30 25 27 32 32 33 27 26 42 40 38 37 35 35 37 38 28 23 22 19 17 16 16 17 18 19 20 21 21 28 30 31 31 31 31 30 29 20 16 19 24
25 27 29 30 27 22 32 32 29 35 42 42 40 39 38 37 36 37 26 23 22 21 17 16 16 17 18 19 21 21 22 23 26 27 28 28 27 27 24 20 19 19 21 20
28 31 32 30 28 31 36 34 43 43 42 41 39 39 37 36 34 25 23 23 21 18 17 18 18 18 19 21 21 21 24 26 27 27 26 25 24 23 22 21 19 20 21 20
30 35 33 34 34 34 38 42 43 43 42 41 40 38 37 35 26 24 23 20 19 17 17 17 17 18 20 21 21 25 26 26 26 26 26 25 25 25 24 22 21 21 20 19
31 35 31 32 34 38 41 42 42 41 41 40 38 37 36 24 23 20 19 18 18 17 18 19 21 22 22 23 25 26 26 25 26 27 26 26 26 25 24 22 20 22 20 19
37 33 32 30 38 39 40 42 41 39 38 39 39 29 24 19 18 18 17 19 20 20 21 22 24 24 24 27 28 28 29 26 27 27 27 27 26 25 25 24 24 23 22 21

GFSCGP_sfc_30mbdewp_006.txt.gz
Dewpoint
24 19 16 16 17 16 14 16 16 17 16 14 20 23 26 36 39 39 41 44 43 42 43 45 46 46 47 47 49 48 50 48 43 45 43 42 39 40 40 42 43 43 44 43
20 18 19 20 24 22 20 18 18 18 19 14 23 25 30 35 37 38 40 42 42 42 41 42 43 43 43 42 43 43 42 43 44 44 44 43 41 41 43 44 42 43 41 40
20 19 20 24 23 23 26 21 21 19 20 19 24 24 29 31 33 34 36 40 42 42 41 41 41 40 39 38 38 38 39 40 40 40 39 40 41 42 43 40 41 38 37 38
21 26 26 25 23 25 24 27 24 21 17 8 18 20 25 30 32 35 38 40 41 42 42 42 41 40 40 39 38 37 37 37 38 38 38 39 41 40 42 42 38 34 36 36
25 26 26 24 24 25 25 26 24 23 21 22 20 21 25 29 30 32 36 39 40 41 41 41 41 41 40 40 39 38 38 38 37 37 38 40 39 38 41 37 33 32 35 35
25 28 26 26 27 26 25 27 29 28 26 20 25 24 26 28 29 32 35 37 38 39 40 41 42 41 40 40 38 37 36 36 38 37 37 39 37 38 35 32 31 31 34 34
26 27 27 28 27 27 27 29 23 22 22 20 28 27 29 31 32 34 35 36 37 39 40 41 40 39 39 39 39 39 39 38 38 39 38 38 37 34 32 32 33 31 32 35
24 24 25 25 25 25 26 26 22 21 18 19 25 25 27 32 35 36 36 36 37 37 40 40 40 39 39 41 41 40 37 36 37 36 36 37 36 36 36 36 34 35 37 37
25 24 28 24 26 28 27 22 25 25 28 21 25 26 28 29 30 31 31 33 36 37 37 38 39 39 40 39 39 38 36 34 34 35 37 37 38 38 38 39 37 36 36 36
27 21 24 23 30 29 21 25 24 22 16 15 23 25 25 29 28 29 32 34 36 37 37 37 38 38 38 37 37 38 39 36 35 37 38 38 38 38 39 37 35 33 33 34
32 24 24 29 26 25 26 25 26 25 23 16 19 21 29 31 31 32 34 35 36 37 37 37 36 36 35 33 33 35 36 38 37 37 37 37 36 36 36 35 33 32 33 33
30 26 23 24 26 27 26 27 26 18 25 28 25 23 30 30 32 34 35 35 36 37 37 37 36 34 32 32 30 27 30 31 31 35 37 38 37 35 34 33 32 32 31 30
31 24 22 27 30 28 25 26 31 28 24 21 17 16 32 33 32 34 35 37 37 37 36 35 34 32 30 25 22 21 22 22 24 25 30 33 34 38 34 32 31 28 28 28
36 31 23 18 22 23 19 21 30 26 22 22 22 20 32 34 35 36 37 37 36 35 34 33 33 31 24 21 20 20 20 22 22 22 24 25 28 35 34 30 31 33 35 36
34 27 29 25 27 26 23 23 23 24 26 23 22 26 34 34 35 37 37 36 34 34 33 33 32 28 21 20 19 19 20 20 22 22 24 32 36 35 34 33 34 35 36 36
37 29 28 23 31 30 22 22 24 23 22 23 31 32 35 35 37 37 35 34 34 33 33 32 31 24 21 19 18 18 19 20 23 22 30 32 35 36 35 35 35 35 36 23
33 28 24 15 30 29 20 25 27 26 30 25 24 33 35 36 36 35 34 33 32 31 31 31 27 20 19 17 17 16 18 20 22 25 30 30 33 35 35 36 36 36 29 26
33 33 28 18 24 9 27 29 29 33 35 35 35 34 34 36 36 34 33 32 32 32 30 27 19 18 17 17 16 18 19 20 22 29 29 30 30 31 32 34 33 33 27 23
34 29 25 16 20 18 24 28 27 26 33 37 36 36 35 36 34 33 33 32 31 29 24 21 19 17 16 16 17 18 19 20 22 28 29 30 31 31 31 31 31 32 29 19
37 31 23 27 12 4 22 32 33 31 27 38 38 36 35 33 30 31 36 36 30 23 22 19 17 16 16 16 17 19 20 22 22 28 29 30 31 31 31 31 31 30 19 23
32 32 24 26 20 22 26 31 33 26 19 39 38 38 36 33 32 34 37 34 24 23 20 18 17 16 17 18 20 21 21 22 24 28 28 29 29 28 28 28 23 19 23 23
24 23 27 28 25 17 30 33 29 29 41 41 40 38 37 37 36 37 33 24 22 17 17 17 17 18 20 21 21 20 21 24 26 27 27 26 25 24 23 22 21 22 22 20
24 24 24 28 25 29 32 32 37 40 40 41 39 39 38 36 36 28 24 19 17 16 16 17 18 19 21 22 22 21 23 26 26 26 26 26 25 25 25 22 20 21 20 19
32 34 32 33 32 34 35 42 43 43 41 41 40 39 37 36 28 21 18 18 17 17 18 19 21 22 23 24 24 25 26 27 26 26 26 26 26 26 25 22 22 20 19 19
28 35 32 32 34 39 40 42 43 42 41 41 40 39 38 23 19 18 17 19 19 20 21 22 23 24 24 26 28 28 29 29 27 26 26 26 26 25 24 21 22 22 20 20
35 30 29 27 33 34 36 42 42 41 40 40 39 22 21 19 17 18 20 21 21 22 22 22 24 25 26 28 26 28 30 31 30 27 27 26 26 25 25 23 22 23 23 22

GFSCGP_sfc_30mbdewp_009.txt.gz
Dewpoint
23 18 15 17 17 16 14 15 14 16 17 23 26 32 37 39 42 42 41 42 43 44 44 45 46 49 49 50 51 51 50 48 46 45 45 45 41 42 43 44 44 41 41 38
19 18 19 24 24 19 20 17 18 20 23 27 31 32 35 37 41 42 41 41 41 42 42 42 43 44 44 46 46 45 44 44 45 45 45 44 43 43 46 42 39 39 39 37
18 19 22 23 24 22 25 21 19 19 25 28 30 30 30 33 37 40 42 42 41 41 41 41 40 40 41 41 40 40 40 41 41 42 43 41 42 43 42 41 37 36 37 36
23 29 25 24 22 25 22 26 23 21 23 21 23 26 28 32 37 39 41 41 41 41 41 39 38 37 37 37 37 37 37 37 38 39 38 38 38 39 42 39 34 34 36 36
25 26 25 23 23 26 25 26 23 23 20 20 22 24 27 32 35 37 39 41 41 41 40 39 39 38 38 38 37 37 38 37 37 38 38 40 40 39 39 34 32 32 35 37
26 28 26 26 27 27 26 28 29 29 25 19 24 24 26 29 32 36 38 40 40 41 41 41 41 40 40 40 39 37 38 38 39 38 38 40 38 37 32 34 35 33 34 36
26 26 27 28 27 27 27 27 22 21 21 21 27 26 27 30 31 35 37 38 39 41 41 41 40 40 40 40 40 40 39 38 37 37 36 36 33 32 35 36 36 35 36 38
24 23 25 24 25 25 26 27 23 19 21 19 26 25 27 32 34 35 37 37 38 40 41 39 39 40 39 37 35 34 35 34 35 35 35 35 34 35 36 37 37 37 37 37
24 23 28 25 26 28 25 21 26 25 26 22 25 26 29 33 35 34 36 37 37 38 38 39 39 39 38 38 38 37 35 34 35 37 38 38 38 38 38 39 39 37 37 37
28 20 25 24 29 28 24 28 21 22 13 15 23 25 25 29 31 31 32 36 37 38 37 38 37 35 34 35 36 37 38 37 36 36 37 38 38 38 38 38 37 36 34 35
32 22 23 28 26 25 26 24 25 26 23 14 19 24 28 28 30 32 35 37 36 36 37 37 35 34 33 32 30 32 32 28 26 28 32 33 33 33 36 36 35 33 33 34
31 26 24 24 28 30 26 26 24 14 21 25 22 21 30 32 33 35 35 36 37 36 36 35 33 32 31 24 23 23 24 22 24 27 29 29 31 32 35 35 34 33 32 31
30 25 23 26 28 27 26 28 28 26 25 25 19 16 32 33 34 35 36 37 36 36 35 34 32 30 23 22 21 20 21 21 22 22 24 28 31 32 33 35 31 29 30 31
34 29 21 15 22 24 19 23 28 24 20 20 20 21 32 33 34 35 37 36 35 35 34 33 32 26 22 20 19 19 20 21 21 21 24 29 32 33 31 30 30 30 32 35
32 23 28 27 28 26 23 22 26 26 26 22 23 24 29 34 35 36 36 35 34 33 33 32 31 24 20 19 19 19 19 20 22 20 25 29 33 35 34 34 34 34 35 35
33 26 26 27 31 29 22 23 23 23 23 26 27 28 35 36 37 36 36 34 33 31 31 31 31 25 20 19 17 17 18 19 22 21 25 29 30 32 34 35 36 36 36 36
29 27 17 9 28 25 12 19 25 24 28 26 27 30 35 36 36 36 35 34 33 31 29 29 30 22 20 18 17 16 17 20 21 22 27 29 31 31 32 33 35 35 33 30
31 27 23 17 19 6 14 27 29 27 33 34 32 34 35 36 36 36 35 34 32 31 30 31 27 19 19 18 17 17 18 20 21 22 29 29 30 29 31 32 32 32 33 32
33 26 21 13 14 14 15 29 31 28 28 35 34 34 35 36 35 34 34 33 31 31 31 26 21 18 17 17 16 17 19 20 22 22 27 29 30 30 31 30 30 31 31 27
33 26 18 23 9 1 8 31 32 30 25 37 35 35 34 34 32 33 34 33 33 33 23 21 18 16 16 16 18 19 20 21 21 23 27 29 29 30 28 28 29 29 19 23
33 30 21 20 16 17 21 32 32 25 17 38 37 36 35 34 33 33 36 36 32 21 17 18 17 17 19 20 21 20 21 21 22 26 27 27 27 25 25 24 22 20 23 24
27 24 24 25 21 13 28 30 29 29 34 38 38 38 36 35 35 36 37 24 18 17 17 17 17 19 21 22 22 22 22 22 24 26 27 26 26 25 25 24 21 23 23 19
24 22 21 24 19 28 31 32 34 36 36 39 39 39 38 37 37 36 23 18 16 16 17 18 20 21 22 23 24 24 25 26 27 27 27 26 26 26 25 22 21 21 20 18
32 32 27 30 29 30 32 34 40 41 39 41 41 39 39 37 34 22 19 17 17 18 19 20 21 21 23 25 26 27 27 28 29 28 27 27 26 26 25 22 21 20 19 19
30 34 31 32 33 35 38 39 40 42 42 41 40 39 38 34 22 19 18 18 19 20 21 21 22 24 24 26 28 27 27 30 29 28 28 27 28 26 23 21 22 21 21 21
34 29 28 24 28 32 32 37 41 42 41 41 39 36 29 23 19 19 19 20 20 21 21 21 23 25 25 28 27 27 28 30 31 30 30 30 30 26 25 23 22 23 24 24

GFSCGP_sfc_30mbdewp_012.txt.gz
Dewpoint
23 17 14 16 15 9 13 12 11 14 19 31 34 36 38 42 41 40 42 43 44 45 45 49 49 51 52 53 55 52 53 51 48 47 46 43 43 45 44 42 40 40 38 37
20 17 20 24 24 21 19 18 18 23 28 32 33 33 35 38 41 41 42 43 44 44 44 44 46 48 48 50 52 50 47 46 47 45 46 47 44 45 42 39 37 38 36 37
18 20 24 24 23 21 24 19 20 21 30 31 31 31 34 38 41 41 41 42 42 43 43 42 42 43 45 45 44 43 44 43 44 45 43 42 43 44 41 39 34 36 36 37
26 28 24 22 23 25 21 26 22 26 25 23 26 25 31 36 39 40 41 41 42 41 39 39 37 37 37 37 38 38 39 38 39 39 38 38 38 39 40 35 33 35 36 36
25 25 24 23 23 26 25 27 23 22 20 20 24 26 27 35 37 39 40 41 41 39 38 37 36 36 37 38 38 38 38 39 38 38 40 40 39 40 35 33 34 33 35 35
26 28 27 26 27 26 27 28 28 28 25 17 22 23 26 32 34 37 39 41 41 40 40 39 40 40 39 39 38 38 39 38 39 38 39 38 38 33 32 35 35 35 35 36
26 26 27 28 27 27 28 26 21 21 21 19 26 25 24 31 34 37 38 39 40 41 40 40 40 40 40 39 39 38 36 35 35 34 34 34 33 32 34 35 36 36 37 38
24 18 24 25 26 25 25 26 21 17 19 22 26 25 27 31 33 37 38 39 40 41 41 40 39 37 35 34 34 35 34 34 36 37 36 36 36 36 37 38 38 38 38 37
24 23 26 25 26 28 25 19 26 24 25 21 24 27 30 34 33 35 36 37 39 40 39 39 39 38 37 38 37 35 35 35 35 35 36 37 38 37 37 38 38 38 37 37
27 20 25 25 29 28 25 28 19 21 8 9 22 25 25 32 32 34 35 36 38 38 38 38 36 35 36 36 38 38 33 27 26 27 30 29 28 29 32 34 35 36 36 36
28 22 23 27 26 25 26 24 25 25 22 10 13 21 28 31 33 33 34 36 38 37 37 34 34 33 31 31 29 26 23 21 22 24 26 27 29 30 31 32 35 35 34 34
30 26 23 23 28 31 27 25 22 12 16 23 21 17 29 31 32 33 35 37 37 37 35 34 32 30 24 22 22 21 21 21 23 24 25 27 29 30 30 31 33 33 33 33
28 25 23 23 24 26 26 30 26 25 26 23 19 13 33 34 34 35 36 36 36 35 34 33 32 29 22 21 20 21 21 20 21 21 23 26 29 31 30 30 30 31 30 31
31 27 20 12 19 24 22 27 26 22 19 19 22 18 30 32 33 35 36 36 36 35 34 33 31 26 21 21 20 20 20 20 21 21 23 26 28 31 32 33 32 31 32 34
29 22 27 28 28 26 23 21 27 24 23 20 21 22 23 31 33 35 36 35 35 34 33 32 31 25 21 22 21 19 19 20 21 21 22 25 29 31 32 33 34 35 35 35
30 23 24 27 30 28 23 23 24 26 26 26 26 25 30 35 36 36 36 35 34 33 32 32 31 26 22 21 19 18 18 19 21 22 21 26 29 30 30 32 32 33 35 35
26 24 16 8 26 22 14 18 22 22 24 23 21 23 35 35 35 36 36 35 34 33 31 30 30 30 24 21 19 17 17 19 21 22 22 25 29 30 29 31 31 32 33 32
26 23 18 13 17 6 12 27 26 25 28 30 30 31 34 35 37 37 36 35 35 33 30 29 30 29 22 21 19 18 18 19 20 21 23 26 29 29 30 30 30 30 31 32
29 23 17 12 14 12 12 25 28 27 23 33 32 33 35 36 36 36 36 35 35 33 31 31 28 23 19 18 17 17 18 19 21 21 22 25 29 28 29 28 27 28 30 28
30 24 16 19 8 1 8 26 32 29 23 33 34 34 35 35 33 33 35 35 33 32 30 24 20 17 16 17 19 20 20 21 21 22 23 27 28 27 27 25 25 26 21 21
32 28 18 17 14 15 18 31 31 22 15 35 35 35 35 34 34 34 34 34 33 28 18 17 17 17 19 21 21 20 22 23 23 24 26 27 27 26 25 25 24 22 21 24
25 23 22 21 18 11 25 31 27 28 30 35 36 36 35 35 34 35 36 33 20 17 17 17 18 19 21 22 23 24 24 26 26 27 28 27 27 26 26 25 22 23 24 20
24 24 19 21 16 24 29 32 33 34 32 36 37 38 37 36 35 36 32 20 17 16 17 19 20 20 21 23 25 26 26 26 27 29 28 27 27 26 26 25 21 21 21 18
31 30 25 27 26 27 30 31 34 36 36 38 39 39 38 37 37 33 20 17 17 18 19 20 19 19 21 24 26 28 27 27 28 29 28 28 27 27 26 23 22 21 19 19
30 33 30 30 31 32 33 36 36 37 40 40 41 40 39 37 33 24 19 18 18 19 20 20 20 22 23 25 27 28 27 28 29 30 30 29 29 29 27 22 22 21 21 21
33 28 27 24 26 27 27 31 38 40 40 41 40 39 37 33 23 20 20 20 21 20 20 20 22 24 25 27 28 27 28 28 29 28 29 28 28 30 28 24 23 24 24 24

GFSCGP_sfc_30mbdewp_015.txt.gz
Dewpoint
23 16 9 15 10 7 9 10 11 17 28 34 35 36 38 41 41 42 43 44 45 46 49 53 54 56 56 57 57 56 56 53 50 47 49 49 49 47 43 40 41 40 39 39
20 16 20 24 23 18 19 18 21 27 32 33 34 35 39 40 41 42 43 44 45 46 48 51 52 54 55 55 54 55 53 49 48 49 49 48 47 45 40 38 39 38 39 39
18 20 24 24 24 23 23 20 20 24 32 33 32 32 37 40 41 43 43 44 45 47 49 49 50 53 54 55 52 47 47 47 47 47 45 45 46 44 41 37 36 37 38 38
26 27 23 23 24 24 21 25 27 29 26 23 27 17 33 39 40 42 43 43 44 45 46 45 44 44 45 44 44 43 43 41 41 42 42 43 41 41 40 36 35 36 39 39
25 25 24 23 24 26 25 26 26 22 21 22 25 23 28 38 39 41 41 42 42 41 40 38 38 38 38 39 40 41 41 41 41 42 43 42 41 39 36 36 39 38 39 39
27 28 27 26 28 27 30 28 28 28 25 17 22 22 25 35 37 39 40 41 41 39 39 38 39 39 39 40 41 41 39 38 40 40 41 40 38 36 36 38 38 39 39 39
25 26 27 28 27 28 28 26 21 21 22 17 27 25 24 30 35 39 39 40 41 41 40 40 40 40 41 41 39 38 37 36 37 37 37 37 37 37 38 39 38 39 37 39
20 17 24 26 26 25 27 26 20 14 18 21 27 26 26 31 33 38 39 40 41 41 41 41 40 38 38 38 37 37 36 37 38 38 38 39 39 37 34 33 32 32 34 36
24 23 26 26 27 28 25 20 27 24 24 21 23 26 29 34 32 37 38 39 40 41 41 40 38 38 37 36 37 37 34 32 31 32 31 30 30 29 29 31 32 31 35 37
27 22 25 26 29 28 25 28 21 22 10 10 18 24 23 31 32 36 37 38 40 41 40 39 38 38 39 38 38 35 27 25 26 27 28 27 29 30 29 29 27 29 33 37
25 23 23 27 26 26 26 24 25 25 22 8 7 13 29 31 33 34 36 38 39 40 40 38 35 36 36 38 31 26 24 23 24 24 27 28 28 29 29 28 29 30 34 35
29 26 24 24 28 31 27 25 23 13 14 23 21 15 27 31 33 35 36 37 39 39 38 34 33 32 31 27 24 23 23 23 23 25 26 27 28 29 29 29 30 32 32 33
28 26 23 22 23 26 26 28 25 25 27 22 17 10 30 34 33 34 35 37 38 38 35 34 32 26 23 22 23 22 23 22 23 23 23 25 27 29 30 30 31 33 33 33
30 26 22 17 17 24 23 28 25 22 18 18 22 19 22 31 33 35 36 37 37 36 34 33 32 27 23 22 23 25 30 24 23 22 22 25 28 30 31 31 31 32 33 34
28 21 26 27 28 27 22 25 26 22 22 18 18 21 22 26 32 35 37 37 36 35 34 33 32 28 22 22 25 28 24 23 23 23 23 24 28 31 31 31 31 32 33 34
30 23 25 26 29 27 24 23 24 27 26 24 24 24 28 31 35 36 36 36 35 34 34 33 32 29 23 23 27 25 23 22 23 23 24 25 27 30 31 31 31 31 32 32
26 25 20 13 25 21 15 18 22 24 25 26 22 23 32 32 34 35 36 36 35 35 34 33 32 31 26 26 25 23 21 21 22 23 23 25 27 29 30 30 29 28 29 30
24 20 17 13 16 5 12 27 25 23 24 25 26 28 32 34 36 37 37 36 36 35 34 32 32 32 31 26 22 22 20 20 21 22 23 25 26 28 29 29 27 27 28 31
27 21 16 12 14 13 10 18 24 25 17 28 28 30 34 36 37 37 37 37 37 36 34 31 31 30 23 21 20 19 20 21 22 22 23 24 26 29 28 27 26 26 27 25
28 23 16 18 8 3 8 19 33 29 22 28 32 33 35 36 32 30 37 37 37 36 33 30 23 19 18 19 21 21 20 22 23 25 26 26 28 28 28 27 26 26 26 22
30 27 19 16 14 15 18 28 31 18 13 29 35 34 36 34 34 35 36 37 35 32 23 19 18 19 21 22 22 20 23 23 26 26 26 27 28 27 28 27 26 25 23 24
22 20 20 20 17 9 24 31 25 26 30 31 36 35 36 36 35 34 35 32 26 20 19 19 20 21 23 22 22 22 23 26 26 27 27 28 28 28 27 26 26 24 24 24
22 25 20 20 16 23 26 32 33 34 32 33 36 37 37 37 35 36 32 24 19 17 18 19 19 19 21 23 24 23 26 27 27 28 29 29 29 27 27 27 25 23 22 22
31 30 26 26 25 26 29 30 32 33 34 35 37 37 38 37 36 34 24 20 18 18 19 20 17 17 20 24 25 27 28 28 28 28 29 30 28 28 28 27 23 22 22 22
30 31 30 29 29 30 30 33 34 35 37 38 40 40 39 39 37 29 22 19 19 20 25 20 19 20 22 25 26 28 28 28 28 28 26 26 27 26 27 30 24 22 22 23
33 28 27 24 26 27 28 29 34 36 37 40 41 40 39 36 31 22 21 23 24 30 21 20 21 23 24 26 27 27 27 29 29 28 28 29 29 28 29 29 26 24 25 25

GFSCGP_sfc_30mbdewp_021.txt.gz
Dewpoint
27 22 19 16 16 12 11 9 2 8 16 9 7 16 21 27 31 34 35 38 41 43 46 50 51 51 51 54 57 60 59 60 59 56 55 54 49 48 47 44 44 44 43 42
23 18 19 16 14 10 8 7 11 13 16 20 12 15 21 26 29 32 34 36 38 42 46 50 52 53 53 55 57 59 58 58 57 54 51 49 48 45 43 43 43 42 41 41
21 22 24 18 14 11 12 9 16 14 19 20 16 18 25 29 31 36 37 37 39 41 46 50 52 54 55 56 57 56 56 55 51 50 49 48 46 44 41 42 40 41 42 41
30 26 22 16 16 16 15 21 17 19 19 13 17 11 20 29 31 34 37 39 40 42 46 50 52 54 55 55 55 53 51 50 50 45 42 42 41 41 42 40 41 41 41 41
21 22 19 16 21 23 27 24 22 19 17 19 18 13 29 30 28 32 35 37 40 43 47 49 51 51 51 50 49 48 47 43 43 44 44 43 42 41 40 39 37 35 31 28
32 27 24 24 26 24 25 24 23 20 13 14 12 15 20 26 26 31 36 40 43 47 47 44 45 46 46 46 46 44 41 42 43 43 43 42 39 36 33 30 25 23 21 21
22 21 26 26 24 25 22 20 16 14 14 14 18 17 13 13 27 28 37 41 45 45 42 39 40 40 42 43 43 42 41 42 42 39 36 36 34 27 25 23 21 22 21 21
17 19 22 25 24 20 21 17 16 9 10 12 21 12 11 26 25 29 37 41 44 42 38 37 37 38 40 42 42 40 41 39 37 35 32 28 27 27 24 24 25 23 22 22
15 19 24 25 26 22 19 20 22 21 24 19 10 7 19 29 29 31 37 39 41 39 37 37 38 39 41 42 41 41 39 35 32 30 32 30 28 27 27 27 26 23 23 22
20 18 22 27 27 27 25 24 19 16 13 12 6 8 5 25 25 31 35 37 39 38 37 37 38 41 42 41 42 40 35 31 32 33 31 31 28 27 27 27 26 24 24 25
20 18 24 27 23 18 25 20 20 21 22 16 8 7 16 15 24 28 32 36 38 37 38 38 40 40 41 41 40 37 31 33 33 30 29 28 26 27 27 27 26 24 25 25
23 20 20 22 27 28 26 23 23 19 15 20 24 13 20 23 25 29 31 35 37 38 37 39 40 40 40 40 37 33 33 34 30 28 26 26 26 25 25 26 26 25 25 25
30 19 20 22 26 27 22 21 22 21 26 16 20 13 21 23 24 26 28 33 36 37 38 39 40 40 40 39 35 32 34 33 29 28 25 24 25 25 25 26 25 25 24 25
31 23 21 19 21 22 24 22 22 22 20 17 15 12 14 18 20 20 26 29 33 36 38 40 40 39 39 39 34 32 33 34 32 28 21 21 23 25 26 26 25 26 25 25
32 26 24 24 25 23 21 18 21 20 19 18 16 10 7 10 14 18 22 28 29 35 38 39 40 38 37 37 33 31 33 37 31 24 22 21 23 26 26 25 25 25 26 25
32 27 29 29 26 25 22 20 17 16 17 15 13 13 14 18 17 22 22 28 30 33 37 39 39 37 36 34 31 29 36 33 30 25 24 23 23 25 25 23 25 24 24 24
33 33 26 18 24 24 22 25 21 17 17 18 17 17 16 21 23 23 24 28 31 33 36 38 37 37 36 33 30 28 34 30 27 24 23 23 23 24 22 21 20 21 23 25
36 31 30 22 23 13 10 19 16 17 16 15 16 16 16 19 26 29 30 29 32 34 35 36 37 37 37 35 30 33 29 27 25 23 23 23 22 17 18 19 20 21 23 24
29 29 26 28 16 15 14 11 17 18 16 17 20 17 18 26 32 29 31 32 31 32 35 36 37 37 37 33 30 29 27 24 25 24 21 18 17 19 19 19 20 22 24 25
29 33 26 25 24 19 22 23 28 26 15 21 21 21 21 27 26 22 31 31 32 33 35 36 37 37 36 32 28 25 27 29 22 19 18 18 18 18 18 20 22 23 25 24
32 33 29 27 28 25 21 22 29 17 23 28 28 26 28 27 27 36 35 31 34 34 36 37 37 35 32 25 26 27 23 24 18 19 19 18 19 20 22 23 24 25 25 25
28 30 29 31 30 19 21 27 23 32 28 28 30 30 33 35 34 35 36 35 35 36 37 36 32 28 25 24 30 32 27 18 21 23 22 22 21 24 24 25 25 25 25 25
28 29 29 26 25 27 26 25 27 30 31 31 31 31 32 33 34 34 35 36 36 36 32 29 25 24 30 34 31 21 19 24 24 24 24 23 24 25 25 25 25 26 25 25
30 31 28 28 22 23 25 27 29 30 31 32 33 34 35 35 36 37 37 35 33 28 23 24 30 34 32 28 20 21 26 27 25 24 23 25 25 24 25 24 24 26 27 26
31 30 28 29 26 25 27 30 33 35 36 37 37 38 40 40 39 39 38 32 27 26 32 34 31 26 23 24 25 27 27 26 25 26 27 26 28 27 26 25 25 26 27 28
32 27 32 29 33 35 32 36 40 39 40 40 40 40 36 38 38 35 26 25 33 33 27 26 29 26 25 28 27 27 28 29 29 28 28 28 27 26 26 25 25 27 28 28

GFSCGP_sfc_30mbdewp_024.txt.gz
Dewpoint
27 25 20 24 21 18 16 15 11 9 14 14 13 15 16 23 28 33 37 39 41 42 45 47 47 47 46 57 60 60 60 61 60 59 58 55 55 52 50 47 47 45 45 43
23 22 23 23 21 18 13 13 8 8 12 12 8 9 15 21 26 31 33 38 41 42 44 49 50 51 51 57 60 60 60 60 59 59 57 54 51 50 47 46 45 44 44 43
26 29 31 23 17 14 12 14 17 11 9 5 22 8 16 18 24 28 32 33 37 40 46 48 51 53 54 59 60 59 59 59 59 56 52 50 47 46 44 45 44 43 43 43
32 29 28 19 18 14 18 25 20 20 16 12 22 19 31 32 23 25 30 32 35 38 45 48 51 53 58 58 58 58 57 57 53 50 48 46 44 44 44 44 44 43 42 40
33 21 19 18 24 25 25 23 25 18 14 23 22 23 26 32 30 29 33 36 38 39 43 48 51 55 56 57 57 57 53 50 48 46 47 46 45 44 43 41 37 35 31 28
22 25 27 28 24 24 26 25 23 16 15 21 19 27 23 28 30 34 32 35 38 41 45 48 51 52 52 53 51 50 45 44 45 46 46 44 40 37 35 30 28 27 26 27
23 18 21 27 18 21 17 16 16 23 25 17 16 16 23 27 36 41 43 36 39 43 46 49 49 48 48 49 48 45 43 44 45 44 41 38 32 32 31 30 28 26 26 26
17 23 19 20 19 29 27 14 19 25 24 20 20 16 15 28 29 36 38 40 44 46 47 45 46 45 46 46 45 43 43 43 41 39 35 33 32 32 32 31 27 27 26 27
28 25 30 23 21 20 17 17 19 24 26 20 14 8 12 25 26 25 38 41 44 44 42 41 41 43 44 44 45 44 42 40 38 35 35 34 32 31 31 30 29 28 27 25
38 33 32 24 23 23 21 19 20 17 12 12 10 9 15 25 23 27 34 39 42 43 40 39 38 41 43 44 44 44 42 38 35 35 37 34 32 32 31 30 29 27 27 28
23 29 22 26 22 14 23 21 17 15 20 21 18 12 15 17 20 25 29 38 40 42 39 38 38 41 43 44 44 44 40 34 34 36 35 33 34 31 30 30 29 27 27 28
20 20 18 19 22 25 23 23 19 23 19 23 26 20 19 19 20 25 27 32 39 40 39 38 39 41 42 43 43 42 37 34 36 34 31 32 32 30 31 29 28 28 27 28
27 22 17 17 23 25 23 20 18 22 27 25 22 19 21 21 20 21 24 29 36 39 39 39 40 41 41 42 43 40 35 36 35 32 31 30 30 29 28 28 29 28 28 27
33 23 18 21 19 25 24 23 19 19 25 24 21 15 14 18 20 19 24 26 30 36 38 38 40 41 41 42 42 39 35 37 34 32 31 28 28 29 28 29 29 28 29 28
30 24 22 21 21 24 25 21 19 18 21 21 23 17 14 12 16 16 19 25 27 27 35 36 40 41 41 41 41 38 36 36 36 35 30 27 26 26 28 29 29 28 29 28
31 30 30 30 27 25 23 22 21 18 15 16 15 15 14 16 22 22 22 21 25 26 28 34 38 42 41 40 41 38 35 36 38 36 30 26 25 26 28 29 27 27 27 27
33 34 30 24 25 23 16 22 22 18 18 16 15 19 18 17 17 23 25 25 26 29 30 33 37 40 41 40 39 36 34 37 37 31 27 26 26 26 27 24 22 22 24 27
39 36 31 25 24 11 12 18 16 15 15 13 11 16 16 25 27 26 24 27 28 30 32 34 36 39 39 39 37 34 32 35 32 27 26 28 27 22 21 22 23 23 25 26
34 33 31 27 21 18 18 16 17 17 17 19 19 19 19 24 25 27 29 31 30 30 31 32 35 37 38 38 36 32 33 29 27 29 30 29 20 21 21 22 23 24 25 26
30 36 30 26 25 20 24 23 25 23 16 24 24 24 24 24 24 30 35 33 31 31 31 33 35 37 38 36 32 29 30 31 31 28 25 24 21 23 25 24 25 26 26 27
33 33 27 30 29 30 23 24 26 18 28 29 30 28 29 29 32 36 36 36 35 33 35 37 37 33 27 28 30 30 32 31 32 30 25 25 27 26 25 25 26 27 28 27
30 34 32 34 33 24 22 26 24 34 31 30 30 30 32 33 35 36 35 34 36 35 36 31 27 30 33 34 34 33 31 29 30 27 27 28 28 26 25 27 28 28 28 28
28 31 32 31 31 30 24 25 26 29 29 30 31 32 33 35 34 34 35 37 36 32 26 26 32 35 34 33 32 30 28 26 28 30 30 29 27 26 26 26 26 26 27 29
30 31 31 29 22 24 25 27 27 31 34 35 35 36 38 39 40 39 38 35 29 24 27 33 33 31 29 28 28 28 29 30 30 30 28 26 27 27 27 27 26 26 26 28
33 30 28 28 29 28 29 35 38 39 39 40 40 39 38 38 39 35 28 29 29 33 32 30 28 30 32 31 30 29 30 30 28 27 28 29 29 29 29 28 27 26 27 27
33 29 31 33 36 36 37 38 39 37 36 36 35 33 31 30 28 29 33 32 29 28 31 31 31 30 30 30 28 28 28 29 29 29 30 30 29 29 28 27 27 27 27 28

GFSCGP_sfc_30mbdewp_030.txt.gz
Dewpoint
32 26 24 25 25 24 22 22 22 22 18 24 23 25 37 40 41 42 41 41 41 46 50 51 57 58 56 56 58 58 58 57 56 55 55 56 55 54 53 52 48 45 45 45
28 26 27 27 26 26 25 24 23 21 19 22 23 20 33 35 39 40 40 41 41 42 43 48 54 55 55 56 58 58 58 57 56 56 56 56 55 52 50 47 45 44 44 44
25 27 29 26 25 24 24 25 24 22 16 14 19 21 22 25 37 40 41 41 42 41 42 45 50 54 55 56 58 58 58 58 56 55 56 54 50 47 45 44 44 43 43 42
28 30 27 27 25 26 23 24 23 22 19 11 21 18 26 26 29 39 38 40 43 43 43 48 50 54 56 58 59 59 59 58 57 56 56 53 49 44 44 44 44 44 43 37
24 29 25 24 24 27 25 25 22 23 23 22 21 17 20 29 22 34 35 36 40 44 45 49 54 57 57 59 59 59 59 58 58 58 54 51 47 45 45 44 42 35 31 33
27 31 27 27 27 28 27 24 26 29 26 19 25 21 19 25 23 21 27 34 37 43 48 50 56 59 59 59 59 59 59 58 57 58 51 49 45 44 42 39 31 28 31 32
26 26 26 29 24 26 25 22 16 16 18 16 28 24 21 25 28 27 26 31 37 44 49 53 56 58 59 59 58 58 55 51 49 52 47 45 42 39 36 31 28 29 29 29
21 22 28 31 26 26 24 22 18 15 15 19 28 22 23 26 29 32 33 36 42 47 51 53 55 56 57 57 56 51 47 43 42 42 40 36 33 32 31 31 30 29 29 29
24 24 33 33 31 29 23 20 25 25 31 26 25 22 25 31 31 33 36 36 42 48 52 52 53 53 52 49 47 46 43 40 37 36 35 33 33 33 32 30 30 30 29 29
28 21 29 31 30 28 26 24 19 25 17 17 16 18 23 26 26 31 36 36 44 49 50 50 50 49 48 46 45 45 42 40 37 34 33 32 33 33 31 31 29 29 29 28
33 25 27 31 27 22 23 21 20 23 20 15 17 16 19 25 27 32 34 37 45 47 49 49 49 48 46 44 44 44 41 38 37 34 33 33 31 33 33 32 30 29 28 28
32 30 25 24 27 31 28 24 26 21 15 24 22 19 24 23 28 35 35 39 46 46 47 48 48 47 46 45 45 43 41 37 34 34 34 33 33 34 33 32 30 30 28 29
31 26 22 22 24 26 26 24 25 28 25 20 18 19 23 21 20 27 34 41 45 45 43 45 45 46 45 45 45 44 40 37 36 36 34 33 32 34 31 32 32 30 29 28
30 25 19 17 16 22 24 27 28 26 22 22 23 21 23 23 21 20 25 31 43 45 42 41 43 44 45 45 44 44 38 37 37 35 34 32 33 34 31 32 32 31 29 29
27 23 24 23 28 29 24 26 27 24 24 21 20 24 22 22 21 22 23 26 36 42 42 40 40 41 43 44 44 40 38 39 36 35 33 32 33 33 33 33 31 30 30 29
32 23 30 24 28 25 23 22 24 24 23 24 23 21 24 24 26 26 25 27 28 30 32 36 40 41 43 44 44 41 39 38 36 34 33 34 33 34 33 31 30 26 25 25
30 29 26 22 24 20 20 20 19 22 24 23 19 23 25 26 26 26 28 30 30 33 35 40 41 42 43 44 44 43 40 38 36 36 35 34 32 29 28 27 26 27 29 29
31 30 27 23 21 17 20 22 22 22 22 23 24 25 29 31 33 31 31 30 30 30 32 35 39 43 43 44 43 40 40 39 37 33 31 30 30 29 30 30 32 33 32 29
36 32 29 21 18 22 20 21 19 18 24 26 26 28 28 33 34 34 35 36 35 34 32 31 32 33 34 37 37 35 33 29 28 28 30 30 31 33 35 35 34 32 31 28
35 31 26 30 18 15 18 25 25 25 23 30 29 30 30 29 28 34 36 33 30 32 33 32 33 32 32 32 32 31 31 31 32 32 33 35 36 36 35 35 32 30 28 28
27 30 26 24 19 18 25 27 25 11 15 31 31 31 31 31 34 37 31 32 33 33 33 33 32 32 32 33 33 33 33 33 36 38 38 38 37 36 33 32 30 29 28 27
25 26 28 29 24 20 31 26 20 24 33 31 31 32 35 39 37 31 30 33 33 32 33 33 32 32 32 34 34 34 35 36 36 37 37 35 32 31 30 30 28 27 26 26
25 26 25 28 24 31 29 29 34 32 33 36 38 40 40 40 32 29 31 33 32 31 30 29 29 30 31 31 32 32 34 35 33 32 31 30 30 30 30 27 26 26 26 26
31 36 32 32 33 33 37 40 40 41 38 36 37 39 36 29 30 31 33 32 31 31 29 29 29 31 31 31 30 30 30 30 30 29 29 29 29 28 29 28 28 28 27 26
32 33 31 33 38 39 39 38 37 34 34 33 33 33 32 32 32 31 30 29 29 30 32 32 32 31 30 30 30 30 29 29 28 28 28 28 28 29 29 29 29 29 28 27
33 31 28 27 35 35 37 37 36 35 35 35 34 34 33 31 29 29 30 31 32 31 31 30 30 30 30 29 29 29 29 29 29 28 28 28 27 27 28 28 28 29 29 29

GFSCGP_sfc_30mbdewp_033.txt.gz
Dewpoint
32 26 24 25 25 25 24 24 23 23 23 23 26 27 37 41 43 45 46 48 53 53 53 56 56 57 59 59 58 59 57 57 56 55 55 55 54 54 53 53 47 48 48 46
27 25 26 28 26 25 25 23 22 24 21 21 23 23 35 39 41 44 44 44 46 53 54 56 57 58 59 58 58 58 57 57 55 55 55 56 55 54 52 50 46 46 45 45
25 24 29 26 24 23 24 23 23 23 22 20 22 21 23 32 39 41 43 43 44 47 52 54 56 57 57 57 57 58 58 57 55 55 56 54 50 49 47 45 44 44 44 43
28 29 28 26 25 25 22 25 25 23 20 10 20 14 24 27 35 38 41 41 42 43 48 50 54 56 56 55 57 58 58 57 56 55 55 53 51 49 45 44 43 44 43 40
23 28 26 25 23 27 23 27 25 24 23 21 22 17 19 29 26 34 39 41 42 42 44 46 52 55 55 56 57 58 58 58 57 55 55 53 50 46 45 44 43 34 34 33
26 31 27 24 27 28 27 25 26 28 26 18 25 21 19 24 24 27 38 39 41 43 43 46 48 53 55 57 58 58 58 58 58 56 55 54 49 45 43 42 36 31 33 32
26 25 27 30 24 27 26 22 15 15 18 16 27 23 21 22 25 26 30 37 37 40 46 50 53 55 56 57 58 58 58 58 58 57 55 51 48 45 43 40 33 32 30 30
22 19 26 31 26 24 25 21 17 13 15 16 27 23 22 27 30 30 31 30 35 40 47 52 55 57 57 57 58 58 58 55 54 55 53 47 45 44 43 39 35 32 30 30
22 21 31 32 30 27 24 21 25 25 30 24 23 25 21 28 30 35 35 37 40 44 49 53 56 57 58 58 58 57 54 51 48 48 45 42 42 41 40 36 32 31 32 30
24 16 28 29 32 30 25 27 20 23 17 16 18 18 19 24 23 29 35 35 42 47 51 53 55 56 56 56 53 52 49 47 42 41 40 38 37 36 33 32 31 30 30 32
30 22 22 32 26 21 24 22 22 22 20 14 14 17 20 25 25 24 27 35 40 48 50 52 53 53 53 51 50 49 44 40 39 39 37 35 34 34 32 30 30 30 32 31
29 25 20 22 28 30 27 24 22 18 17 24 22 19 23 21 24 28 30 34 40 48 50 51 51 50 49 50 48 46 42 39 38 38 37 35 34 33 32 31 31 32 29 30
31 26 20 21 23 25 25 26 28 27 24 20 17 17 23 23 21 23 30 34 40 46 48 49 49 49 48 47 46 45 43 40 38 38 36 34 34 33 33 32 31 31 29 30
29 25 21 18 19 22 23 26 26 26 22 21 21 20 22 22 22 23 22 29 39 45 46 47 48 48 47 46 45 45 43 39 39 38 36 35 34 34 33 33 32 32 31 30
28 22 21 21 20 28 25 25 28 25 25 22 22 24 24 24 22 22 23 26 32 43 44 43 45 46 47 47 46 45 42 41 41 38 37 37 35 36 34 34 34 33 31 30
30 24 27 24 27 25 24 24 23 24 24 25 24 23 26 25 27 27 27 28 32 35 41 42 42 43 44 45 45 43 42 41 40 38 37 36 36 36 35 33 31 29 30 31
28 25 24 19 25 21 20 22 22 22 24 24 20 21 26 26 27 29 31 32 33 35 37 39 41 41 42 44 45 42 41 40 38 37 37 35 32 30 29 30 32 33 34 35
28 26 26 21 21 18 23 24 23 22 23 23 24 25 28 30 32 33 32 30 31 33 34 34 36 41 43 44 42 40 39 38 36 33 31 31 31 33 34 34 35 36 36 35
33 29 25 21 21 21 21 22 21 20 22 25 27 30 33 34 34 34 36 34 32 32 32 32 33 33 34 34 34 31 30 30 31 31 33 35 36 36 37 36 36 35 34 32
31 31 27 24 21 20 22 23 25 26 20 28 29 30 32 30 26 33 34 32 33 32 32 32 32 32 31 31 32 31 31 31 33 34 36 38 38 37 36 36 35 33 31 28
31 29 28 26 23 21 21 26 23 17 17 29 31 31 31 27 31 35 33 33 33 32 32 32 33 33 33 33 33 33 35 36 38 39 39 38 38 37 36 34 33 31 29 28
29 30 28 26 22 22 28 28 17 21 32 31 32 32 34 36 32 33 33 32 32 32 31 32 32 33 34 35 35 36 36 37 37 38 37 36 35 33 31 30 30 28 27 26
24 26 26 28 26 29 31 26 30 33 31 32 33 37 38 31 31 33 32 32 30 28 28 29 30 30 31 33 34 34 34 34 33 31 30 30 30 30 30 29 27 26 26 26
32 34 26 28 32 33 36 38 37 37 36 39 40 40 34 31 32 32 31 30 29 28 28 30 31 30 30 30 30 30 30 30 29 28 28 28 28 28 28 28 28 28 27 27
31 34 33 34 38 38 37 37 35 34 35 35 34 32 32 33 32 32 31 30 30 31 32 32 31 30 30 30 29 29 29 29 28 28 28 28 28 27 27 28 28 28 28 28
34 32 30 29 37 32 36 36 35 34 34 34 32 32 32 31 30 29 30 31 31 31 31 30 30 29 28 28 29 30 31 30 29 29 29 29 29 28 28 27 27 28 29 29

GFSCGP_sfc_30mbdewp_036.txt.gz
Dewpoint
31 26 23 24 24 24 24 24 23 23 24 23 26 32 39 46 48 49 51 52 53 52 52 52 54 55 56 58 59 59 58 57 57 57 57 56 55 55 54 54 52 52 49 46
28 25 26 28 27 26 24 23 22 23 21 22 23 28 38 43 46 48 49 49 51 53 51 51 55 55 56 58 59 59 58 57 56 56 55 55 54 53 53 50 47 49 47 45
26 24 29 25 25 23 23 22 23 23 25 21 22 22 35 39 43 44 46 47 48 51 52 53 55 55 56 58 58 58 58 57 56 55 55 53 51 50 49 46 44 46 45 44
27 28 28 26 24 24 22 25 25 24 21 13 21 13 23 34 40 40 42 44 45 47 51 53 55 56 56 57 58 58 58 57 55 55 54 53 52 50 48 45 44 44 44 42
25 26 27 25 24 25 22 27 26 24 22 21 22 17 18 28 32 37 39 42 43 44 46 51 54 56 57 57 57 58 58 57 56 55 55 53 52 51 47 44 43 39 37 35
27 31 28 25 25 27 27 25 23 27 25 18 22 21 20 25 25 31 37 40 42 42 43 47 51 54 57 56 56 57 57 57 57 56 55 54 51 48 46 43 38 35 34 33
25 26 27 29 25 27 26 22 16 13 18 16 26 24 22 22 24 26 27 35 40 42 43 44 47 51 54 55 56 57 57 57 57 56 55 54 51 48 46 43 37 33 32 32
21 19 26 29 25 22 23 21 16 12 14 14 26 20 18 26 29 33 31 30 39 41 43 44 47 49 53 55 56 57 57 57 57 57 56 54 53 49 46 43 37 35 33 33
22 20 30 31 30 27 24 20 23 24 29 24 21 24 21 27 32 34 32 34 34 39 42 45 49 51 53 55 56 57 57 57 57 57 55 53 51 49 46 42 39 35 33 32
24 16 27 29 32 30 25 27 21 23 18 16 19 18 16 18 23 32 33 34 37 42 45 48 52 54 55 56 56 57 58 57 54 53 52 50 48 47 46 41 37 35 32 32
26 19 18 31 26 22 25 23 22 22 21 14 14 16 21 20 25 26 27 34 36 42 47 50 53 56 56 56 56 56 55 53 49 48 47 45 44 45 43 41 36 33 32 35
26 22 15 18 28 28 25 23 23 19 18 24 21 18 23 20 21 24 25 30 36 41 47 51 53 54 54 55 53 53 51 48 45 43 42 42 41 41 39 36 31 32 32 35
29 23 16 19 23 26 26 26 27 26 24 21 19 19 23 23 22 22 23 27 35 43 48 50 51 51 52 51 50 50 47 44 42 42 41 42 38 37 33 32 32 33 33 32
28 25 20 16 17 22 22 25 28 26 22 22 21 21 22 22 24 23 23 25 27 40 46 48 49 50 49 49 49 48 46 42 41 41 41 38 37 35 34 34 33 33 31 31
26 19 23 22 22 23 23 23 27 25 24 22 23 23 24 25 25 23 24 25 30 38 45 46 47 48 48 48 47 46 45 42 42 40 38 36 37 36 35 35 33 33 32 31
29 23 23 23 27 27 25 25 25 27 26 26 25 24 26 26 28 27 26 32 36 39 42 42 43 45 47 47 47 46 44 42 41 40 38 38 37 36 35 34 33 31 32 34
27 26 24 21 25 23 22 23 24 23 24 24 22 24 25 26 28 30 32 34 34 35 36 37 41 42 43 44 46 44 42 42 40 39 39 37 35 32 32 33 35 36 37 37
26 25 24 20 21 17 20 25 23 22 22 24 24 24 26 28 32 34 33 32 33 33 33 34 35 37 38 40 40 39 39 37 34 33 33 34 34 36 36 37 37 37 37 37
32 25 22 19 20 20 21 22 21 20 18 25 24 29 31 34 34 34 32 33 32 32 32 33 32 32 32 32 32 32 32 32 33 35 36 37 38 37 37 37 37 37 37 35
30 29 23 22 19 18 21 24 24 23 17 27 29 31 32 32 20 32 32 33 32 32 32 32 32 32 32 31 32 32 33 35 36 37 38 38 38 38 37 37 36 35 36 34
30 28 24 23 23 24 25 24 25 17 17 27 31 32 32 27 27 33 33 32 32 32 33 33 33 32 33 33 35 36 37 37 38 39 39 38 38 38 38 37 36 34 32 30
30 30 28 26 25 25 26 26 21 23 28 30 31 32 32 34 33 33 32 32 31 31 32 33 33 34 35 36 36 36 36 37 38 38 37 36 35 33 31 31 30 30 29 27
29 30 28 29 27 30 30 27 27 29 30 31 31 34 35 33 33 32 32 30 29 30 30 31 31 31 31 32 33 32 32 31 30 29 28 28 29 29 29 28 28 27 27 26
31 31 26 28 29 30 33 36 35 35 33 35 36 37 33 33 33 31 29 28 28 29 30 30 30 29 29 30 30 30 30 29 28 28 28 28 28 28 28 28 28 27 27 26
31 32 30 29 35 37 37 37 35 35 36 36 36 33 33 33 32 30 29 29 30 31 31 31 30 29 28 29 30 30 30 29 29 29 29 28 28 27 27 27 28 28 28 28
34 31 28 24 31 28 30 36 35 36 35 35 34 33 33 32 31 30 30 31 32 30 30 29 28 29 29 27 27 28 29 29 28 27 28 27 27 27 27 27 27 28 28 29

GFSCGP_sfc_30mbdewp_039.txt.gz
Dewpoint
32 27 23 21 24 22 24 23 22 23 24 28 32 33 41 48 49 49 49 50 52 52 53 52 53 54 54 56 57 58 59 60 59 58 57 57 58 59 59 59 59 57 53 50
28 26 26 27 27 26 25 23 22 24 21 23 22 25 35 46 47 48 49 50 51 52 53 52 53 54 54 54 56 59 59 59 59 58 57 57 57 57 56 55 54 55 51 49
26 24 29 28 26 25 24 22 23 24 25 22 24 22 29 40 45 46 48 50 50 51 52 51 52 53 54 54 56 58 59 59 58 58 57 55 54 53 53 50 50 51 49 47
27 29 27 26 24 24 21 24 25 25 22 15 21 14 20 32 39 42 45 46 48 49 51 52 52 53 54 55 56 58 59 58 58 58 56 55 55 53 52 49 48 47 47 45
25 26 27 26 25 25 22 27 27 25 22 22 22 17 18 28 31 38 42 43 45 47 48 51 52 53 55 56 58 58 59 58 58 57 57 56 55 54 52 48 47 46 45 44
27 30 29 27 25 26 28 26 23 27 25 18 22 21 19 23 24 31 37 42 42 45 46 48 52 54 55 57 58 59 58 58 58 57 57 56 55 52 50 47 44 43 41 39
25 27 28 28 25 28 26 23 18 14 19 17 27 24 21 23 25 26 28 35 40 43 45 46 48 52 54 57 58 58 58 58 58 57 56 55 54 52 50 47 44 41 38 37
19 18 25 29 26 24 25 23 18 11 13 15 26 19 18 26 28 32 35 34 32 40 44 45 46 48 53 56 57 58 57 57 58 57 56 56 54 52 51 48 45 41 39 37
22 20 28 31 29 25 24 21 24 24 29 23 21 23 22 25 28 32 34 35 33 36 41 43 45 47 51 55 56 57 57 57 58 58 57 56 55 53 51 48 45 42 39 37
23 19 27 29 32 31 26 27 22 24 18 17 19 19 14 17 21 26 28 32 35 39 39 43 45 48 50 54 56 57 57 57 57 58 57 56 56 54 51 47 44 43 39 36
27 20 20 31 27 23 26 25 23 23 22 16 14 16 22 19 22 26 26 30 35 37 42 45 48 52 53 54 55 56 56 57 57 56 56 55 53 53 51 48 45 42 39 36
26 22 17 19 28 28 26 25 25 21 20 23 21 18 23 24 23 23 24 28 36 37 41 47 50 53 55 55 56 56 56 56 55 54 52 52 51 50 48 47 45 42 39 36
27 21 15 16 23 26 27 26 26 26 25 22 20 19 23 24 24 25 23 25 29 39 44 48 51 52 53 54 54 54 54 53 50 48 48 48 47 47 48 47 45 41 37 35
26 24 17 14 16 22 24 26 28 26 24 24 23 23 24 24 25 26 27 27 27 29 43 48 50 50 51 52 52 52 50 48 46 46 46 46 45 45 44 40 37 36 35 34
25 19 23 21 20 22 22 24 27 25 25 22 22 23 24 26 26 26 27 27 35 41 45 46 48 49 49 50 50 49 48 46 44 43 42 42 41 39 38 36 35 35 34 33
29 21 23 21 25 24 23 25 27 27 26 26 25 25 27 27 27 28 28 37 39 40 41 42 43 46 48 48 48 47 45 44 44 42 40 39 38 37 37 36 35 35 34 37
28 25 23 19 25 24 22 24 25 25 27 27 23 25 27 26 28 31 35 35 36 36 37 39 40 42 43 44 46 45 44 43 41 40 39 38 36 35 35 36 37 38 38 38
28 27 25 20 23 19 23 25 25 25 25 25 25 25 26 28 33 33 33 34 33 34 35 36 36 37 37 39 40 39 38 38 37 36 35 35 35 36 37 38 38 38 38 38
30 27 23 21 21 22 21 22 22 20 18 22 23 25 29 34 33 32 33 33 33 34 34 34 34 34 34 35 35 35 35 35 36 36 36 37 37 37 38 38 38 38 38 38
30 29 25 22 19 18 22 23 26 23 19 23 25 28 32 33 28 31 33 33 33 33 33 33 33 33 33 34 35 36 36 36 36 37 38 38 38 38 38 38 37 37 36 36
28 27 23 22 21 23 26 24 25 19 21 25 29 32 34 30 30 35 33 32 33 33 33 33 33 34 35 36 37 36 37 37 38 39 39 39 38 38 37 36 34 33 32 32
28 26 25 25 23 21 27 25 22 25 26 28 33 35 34 33 34 33 32 32 33 33 33 34 34 35 36 36 36 36 36 38 37 35 33 31 30 30 30 30 30 30 29 29
29 29 26 27 27 33 28 27 28 27 26 31 33 35 35 34 33 32 31 31 32 32 32 33 33 33 32 32 32 31 30 29 28 28 28 28 29 28 28 28 28 28 28 28
32 32 30 29 30 30 30 31 34 32 31 33 35 36 35 34 33 31 30 30 31 31 31 30 30 29 29 29 29 29 29 29 29 29 29 28 27 27 27 26 26 25 26 26
31 32 29 29 29 35 35 36 34 35 37 36 36 35 35 34 31 30 29 30 30 30 30 29 28 28 29 29 28 29 29 28 27 27 26 25 24 23 21 21 23 22 22 24
33 30 28 27 28 27 27 35 36 35 35 35 34 34 34 32 30 29 30 30 31 30 29 28 28 26 26 25 24 24 24 22 21 20 19 19 19 19 18 17 16 20 21 22

GFSCGP_sfc_30mbdewp_042.txt.gz
Dewpoint
31 26 19 15 16 20 21 17 17 20 23 25 24 26 30 41 45 42 41 43 45 45 47 52 54 55 54 54 53 54 56 57 58 60 56 51 49 52 58 60 61 59 57 56
29 23 25 27 26 25 24 19 19 23 23 23 20 20 27 37 43 43 42 43 44 45 47 48 52 53 54 54 55 55 55 56 58 58 57 51 52 52 55 58 60 60 58 55
24 24 28 27 25 25 24 21 22 21 25 23 22 19 26 35 42 44 45 42 43 44 46 48 48 50 53 52 54 55 55 57 58 57 57 53 55 57 57 59 58 58 56 54
26 27 26 26 23 25 20 23 23 25 23 15 23 13 20 26 35 40 41 44 41 43 46 47 48 48 49 51 52 53 55 57 57 58 56 54 52 51 54 56 55 54 55 53
24 26 26 23 22 25 22 26 25 25 22 21 19 14 16 24 22 29 37 40 42 40 43 45 47 48 49 50 52 54 55 57 57 58 57 56 55 53 54 56 53 53 52 51
23 29 27 24 27 26 28 26 25 27 23 17 18 17 14 16 16 19 27 34 40 43 43 44 45 49 50 51 53 54 55 56 58 59 59 59 58 57 56 54 51 50 50 49
25 25 26 28 25 28 26 23 20 17 17 16 24 20 16 19 23 25 26 27 35 40 43 44 45 47 49 52 55 56 55 54 58 59 59 59 59 58 56 54 52 49 48 47
19 17 22 26 25 21 23 22 20 14 15 15 24 16 16 24 26 28 32 33 34 33 39 42 45 46 48 51 55 57 57 56 58 59 58 58 58 58 57 56 53 50 47 47
17 16 25 28 27 24 25 22 24 23 28 19 15 17 18 22 23 26 28 33 33 33 33 37 42 45 47 51 54 57 57 57 58 58 58 57 57 57 56 55 53 49 47 44
22 19 26 30 30 30 26 26 21 22 17 14 15 16 11 16 16 22 21 25 32 36 36 38 40 42 46 49 53 57 58 56 57 59 58 58 57 57 56 56 53 49 46 43
21 21 25 30 26 22 26 24 24 23 22 17 15 14 17 17 19 23 24 26 30 34 38 41 42 46 48 49 52 55 56 55 56 58 58 57 57 57 57 55 53 50 48 45
23 21 21 20 26 27 22 21 23 20 18 23 24 18 19 20 25 25 24 26 31 36 37 41 46 49 51 52 52 54 54 54 55 57 57 57 57 56 56 54 52 50 46 41
26 21 19 19 23 26 22 23 22 25 27 22 22 20 23 25 26 26 27 26 28 33 38 43 48 49 52 53 54 55 56 56 56 56 55 55 54 53 52 51 49 46 45 43
28 21 20 16 16 17 22 22 23 24 24 21 23 19 20 22 22 22 25 29 28 28 32 42 47 49 51 53 54 55 55 54 52 52 52 51 51 51 51 50 49 46 44 41
26 20 21 18 15 15 15 15 23 23 24 20 21 19 20 18 22 21 29 28 32 36 40 45 47 49 50 52 52 53 52 51 51 50 49 49 48 47 45 44 43 42 42 38
27 19 24 21 21 20 17 18 18 22 20 22 22 19 20 23 28 28 29 32 37 40 42 44 47 48 49 50 50 49 49 48 47 46 44 43 42 40 39 38 37 36 36 37
30 25 23 17 23 22 22 25 21 22 26 24 20 21 21 23 27 28 32 36 38 40 41 42 43 43 45 47 47 46 45 45 44 43 41 40 38 37 37 36 36 38 37 40
33 30 27 21 25 20 18 26 23 23 23 24 24 23 23 24 26 32 35 36 36 37 38 39 40 41 42 43 43 43 42 42 40 39 38 38 38 37 37 37 37 38 38 38
34 31 28 27 23 19 22 24 24 24 21 22 22 22 22 28 32 33 34 35 36 37 37 37 38 39 39 39 39 39 39 39 38 38 38 37 37 37 38 37 38 38 38 38
33 34 31 27 22 20 19 23 26 25 21 22 23 24 25 31 28 27 34 35 35 35 36 36 37 37 38 38 38 38 38 37 37 37 37 37 37 37 37 38 39 37 37 37
31 31 30 28 27 25 28 26 26 21 22 26 24 26 30 31 30 34 34 35 35 35 35 36 36 37 37 38 38 37 37 37 37 38 38 38 37 36 35 33 30 29 28 29
30 29 29 30 29 25 28 26 24 27 33 30 31 30 33 34 36 34 34 34 34 34 35 36 37 37 37 37 37 36 36 37 37 34 32 29 27 24 25 25 25 25 25 26
31 31 30 29 28 31 30 27 29 33 29 32 32 33 35 36 34 34 34 34 34 34 34 35 36 36 36 36 35 34 33 30 28 26 25 26 27 27 27 26 26 25 26 25
34 35 32 32 28 32 33 31 32 31 31 31 33 35 37 35 34 34 34 33 33 33 33 33 33 32 31 30 30 28 27 26 26 26 26 25 25 24 22 19 17 16 18 20
30 33 33 32 32 34 35 34 32 33 34 34 33 35 35 35 34 34 33 33 32 32 32 32 31 30 29 28 28 27 27 26 24 24 22 19 17 14 12 12 15 17 18 21
33 32 32 31 32 32 30 34 35 34 35 35 35 36 36 35 34 33 32 32 32 31 31 30 29 28 26 26 25 23 22 21 19 15 14 17 17 16 12 11 11 21 20 20

GFSCGP_sfc_30mbdewp_045.txt.gz
Dewpoint
27 25 21 17 14 12 15 15 17 22 20 19 21 21 31 37 39 35 39 39 43 47 48 52 50 50 49 50 52 52 53 52 57 57 52 48 46 47 48 51 53 56 57 57
26 24 21 21 19 17 17 15 13 16 19 20 19 22 20 33 36 36 35 39 39 41 48 51 51 49 51 50 50 51 52 53 57 57 55 50 47 45 48 51 57 59 58 57
22 23 24 21 18 19 19 18 21 17 22 21 18 17 17 25 34 36 36 36 40 40 41 47 49 49 49 49 50 50 52 54 54 54 54 52 48 47 48 51 54 59 58 57
22 24 23 21 20 19 17 18 20 20 18 16 23 18 27 22 29 35 36 35 36 39 41 42 45 49 50 50 51 52 52 53 55 54 54 51 47 48 51 53 57 58 59 58
21 23 24 21 20 21 19 23 22 21 20 19 17 12 21 18 21 27 34 35 35 36 39 41 42 42 48 51 51 53 52 52 53 55 54 54 51 50 51 53 55 57 56 57
21 23 22 21 21 22 23 24 23 23 21 19 16 14 21 16 13 14 26 33 35 35 37 40 43 43 43 46 51 53 52 52 53 54 54 55 54 54 53 55 55 54 55 55
20 22 23 23 23 24 24 23 20 18 17 17 23 16 16 29 17 18 20 23 32 36 36 38 40 43 44 46 48 51 52 50 53 55 57 57 58 58 57 58 57 54 54 53
19 17 22 24 22 21 22 22 21 24 15 16 23 14 15 20 21 21 24 26 27 32 37 38 38 40 43 46 49 51 51 52 52 56 59 61 60 60 59 59 58 56 55 54
17 17 19 21 22 22 21 20 23 25 22 18 17 15 15 16 17 19 21 27 30 31 31 36 38 39 41 45 50 54 54 53 53 57 60 61 59 59 59 59 58 57 55 53
18 17 19 22 25 24 23 24 21 21 18 19 13 14 13 16 15 16 17 21 26 33 32 32 35 38 42 45 49 55 56 56 56 59 59 59 59 58 58 58 57 56 54 50
19 19 19 25 25 22 23 24 22 22 21 21 17 14 19 16 16 17 20 20 23 25 35 37 38 38 41 44 47 52 56 56 57 58 59 57 56 57 58 58 57 55 52 49
19 20 22 24 24 23 22 21 22 20 18 21 21 19 20 18 18 21 22 22 24 27 30 37 41 44 45 47 48 52 55 55 55 59 58 58 57 57 57 57 56 55 52 50
21 18 19 19 23 24 22 23 21 22 22 21 25 22 21 21 21 21 21 22 24 28 30 37 43 46 48 49 50 52 53 53 53 55 58 58 58 56 56 55 53 51 50 47
25 19 20 19 21 21 19 19 19 20 22 21 20 18 19 20 20 19 20 23 25 26 27 34 41 45 48 51 52 54 54 55 55 55 55 55 54 53 53 52 50 48 47 45
24 19 19 19 19 18 18 19 18 18 18 18 19 17 19 19 20 17 26 25 24 28 30 32 41 45 49 52 53 54 54 54 53 53 53 53 52 52 51 51 49 48 45 42
25 21 21 17 20 18 15 14 13 14 16 17 17 16 19 17 17 18 22 25 27 32 36 41 44 47 50 52 52 52 52 52 51 49 49 48 46 45 44 43 42 42 41 40
23 25 21 21 20 19 18 17 15 14 15 18 17 19 20 19 18 21 25 26 32 37 40 43 46 48 49 50 50 49 49 48 46 45 44 43 41 40 39 37 37 37 38 38
29 27 24 23 25 20 20 20 18 17 17 17 18 20 19 19 19 24 28 30 36 39 41 42 43 45 46 46 45 45 44 43 42 41 41 40 40 39 38 38 38 39 38 38
29 32 27 26 24 21 17 19 20 18 17 17 18 19 19 20 26 31 32 34 37 39 39 39 40 41 41 42 42 41 40 40 40 39 39 39 39 39 38 38 39 39 38 38
32 32 32 29 24 21 22 22 22 19 19 19 18 19 21 23 27 24 34 36 37 37 37 38 39 39 39 40 40 39 39 38 38 38 38 38 38 38 38 39 39 39 39 38
33 34 34 31 27 24 22 21 21 21 20 22 22 20 20 21 27 32 35 36 36 36 37 38 38 38 39 39 39 38 38 37 38 38 39 39 39 39 38 35 31 29 28 27
32 30 32 32 29 27 28 26 23 26 27 29 29 24 25 26 36 36 35 35 35 35 36 37 38 38 38 38 38 37 37 38 38 38 37 33 27 23 25 25 25 23 25 27
27 32 30 29 29 31 31 28 29 26 26 31 29 28 29 35 36 35 35 34 35 35 36 37 38 38 38 38 37 37 36 36 34 29 25 24 24 23 24 24 25 22 22 22
22 33 34 31 31 31 34 32 30 32 32 32 32 29 33 37 36 35 34 34 35 35 35 36 37 37 36 36 35 34 33 30 27 26 25 24 23 22 19 16 14 15 20 20
28 33 32 30 27 29 29 33 34 33 33 32 32 31 33 37 35 34 34 35 34 34 35 36 35 34 32 31 30 29 27 26 25 23 22 20 17 13 12 13 15 17 20 19
26 29 32 30 27 32 35 34 33 35 33 35 33 32 36 36 35 34 34 35 34 34 34 34 33 32 30 29 27 26 25 23 21 18 17 19 19 15 11 10 17 18 17 19

GFSCGP_sfc_30mbdewp_048.txt.gz
Dewpoint
24 23 22 21 19 16 11 12 19 24 26 29 19 23 40 40 40 36 38 44 44 47 50 51 49 51 51 49 49 48 46 49 54 54 51 53 50 52 53 52 52 58 58 59
24 24 24 23 21 17 14 12 14 14 23 19 13 18 37 44 41 35 37 42 42 45 50 49 48 49 50 50 50 51 52 52 55 55 55 54 52 50 51 52 53 59 58 59
22 23 25 22 21 17 15 14 17 22 22 21 18 14 25 33 32 33 36 39 42 44 48 50 49 49 50 52 52 52 53 53 54 57 57 55 51 49 48 50 56 59 59 59
22 22 23 23 17 15 14 17 17 19 18 14 22 17 20 22 34 32 33 37 39 40 48 50 51 51 51 51 53 53 53 53 53 57 56 55 51 49 47 49 55 59 60 59
22 22 20 23 19 18 17 24 22 20 18 17 20 21 18 22 26 30 32 35 39 40 41 49 49 50 50 51 52 53 52 52 54 55 56 55 53 49 51 50 54 57 59 59
20 21 21 23 22 20 20 21 23 22 21 19 19 17 23 24 28 25 31 35 36 38 40 43 46 49 50 51 53 53 52 52 54 55 54 56 55 53 52 55 57 58 58 59
19 19 21 22 20 21 21 21 21 20 18 19 20 18 21 26 27 24 28 32 36 36 38 41 43 43 48 51 52 54 54 53 54 57 56 56 56 56 55 56 57 57 58 58
17 17 19 22 21 21 22 21 23 24 25 26 27 18 17 24 22 21 21 22 32 36 37 39 42 43 43 47 52 54 54 53 53 55 57 56 56 58 58 57 59 58 56 57
17 18 19 22 22 22 21 20 23 30 29 28 27 25 24 20 17 18 21 23 27 27 37 38 40 44 45 46 48 52 53 53 53 55 58 57 56 59 59 60 59 59 58 57
20 20 19 19 21 22 21 23 22 21 22 22 15 13 15 18 16 16 16 22 28 32 32 34 39 41 44 47 49 51 52 52 53 54 59 58 55 57 60 60 59 59 58 56
21 20 19 19 19 18 21 21 27 25 21 21 20 20 30 24 17 17 19 21 22 27 35 35 36 38 42 45 49 52 54 53 54 56 60 60 59 58 59 59 58 58 57 52
21 21 20 19 20 23 23 22 25 23 23 27 28 23 24 24 20 20 22 22 23 26 29 38 39 40 41 42 47 55 56 56 58 59 60 60 59 59 58 58 58 57 52 49
22 20 20 19 26 24 22 22 23 23 24 23 27 25 23 22 21 21 22 23 25 26 26 34 41 44 45 46 47 50 54 55 59 58 59 59 59 58 58 56 55 54 53 51
28 21 20 22 25 23 22 22 26 27 26 26 25 24 23 21 24 21 22 22 23 25 27 28 40 44 47 49 50 52 54 55 57 59 59 58 56 55 54 52 51 49 48 45
26 25 22 21 20 21 22 21 21 20 20 21 23 21 21 20 25 26 27 26 24 23 24 28 33 45 49 52 53 54 56 56 56 57 56 55 54 54 53 51 50 48 47 46
26 24 24 24 21 20 23 25 19 18 17 17 19 19 19 18 22 24 18 20 25 25 25 31 33 44 50 51 54 55 54 54 54 53 52 52 52 52 52 51 49 47 43 41
27 28 24 23 23 21 19 22 20 18 16 16 15 19 19 19 21 19 19 22 24 27 34 38 41 48 51 53 53 53 53 52 50 49 48 46 45 43 42 41 41 41 40 40
31 28 28 25 26 21 22 24 21 19 18 18 16 16 17 19 21 19 24 25 31 36 38 42 47 50 52 51 51 50 49 48 46 44 43 42 41 39 39 38 39 39 40 40
32 32 29 25 24 25 21 23 20 20 19 19 18 17 17 17 24 26 29 30 36 39 42 44 46 48 48 47 47 45 44 43 42 42 41 41 40 40 40 39 40 40 40 39
31 33 33 29 25 22 26 25 23 22 20 21 19 20 20 21 22 24 33 35 39 41 41 42 44 44 44 43 43 42 41 41 40 40 40 40 40 40 40 40 40 40 40 39
32 33 33 32 30 28 24 24 24 20 23 24 23 22 22 21 23 31 34 38 39 39 39 40 40 40 41 41 41 40 39 39 39 39 39 39 40 40 39 39 39 38 35 33
34 33 33 33 31 28 29 25 22 26 28 29 28 29 27 29 35 36 37 38 38 37 38 39 39 40 40 40 39 38 38 39 39 39 39 39 38 34 32 29 26 25 28 30
30 31 34 31 30 35 32 30 30 30 31 32 33 31 31 37 37 37 37 37 36 36 37 38 39 39 39 39 39 38 38 39 39 37 32 26 24 25 26 27 26 26 26 25
21 33 33 29 33 36 34 35 33 33 34 34 34 34 32 38 37 37 37 36 36 35 36 37 38 39 39 38 38 38 38 37 32 27 26 26 25 23 21 18 17 24 24 21
26 23 30 30 31 29 28 34 37 36 36 35 34 34 33 36 38 37 36 36 35 35 36 37 38 38 38 37 36 36 34 30 28 27 25 23 20 17 16 18 20 22 18 21
27 25 26 31 31 32 34 37 37 34 32 33 35 35 34 34 38 37 36 36 35 35 37 37 38 37 35 34 32 30 29 27 26 23 22 23 20 16 15 17 17 21 19 20

GFSCGP_sfc_30mbdewp_051.txt.gz
Dewpoint
25 23 22 22 23 22 21 17 14 15 26 24 35 36 36 40 45 43 46 50 50 50 51 52 51 51 51 51 51 51 51 50 51 52 49 47 47 50 50 53 53 54 57 58
23 22 23 25 25 24 22 17 13 23 25 27 32 36 38 43 45 42 45 46 47 48 50 50 51 51 51 51 50 50 50 50 49 54 44 44 48 52 53 53 53 54 58 58
23 24 25 25 25 22 19 16 15 22 23 23 21 35 39 40 43 43 45 45 47 49 49 49 50 50 49 49 49 47 47 48 49 54 52 48 51 53 50 52 52 54 59 58
25 26 24 24 24 22 15 16 21 22 20 16 21 17 35 39 41 44 41 43 45 49 49 48 49 50 49 48 49 49 46 46 49 53 53 50 52 51 49 48 51 58 58 58
23 23 24 23 23 23 17 21 24 24 22 21 20 21 21 37 39 41 40 43 42 50 49 48 47 49 49 49 49 50 49 49 51 54 53 54 55 52 50 48 50 57 58 59
22 25 24 23 24 24 23 23 23 24 23 20 21 21 23 24 27 35 37 39 43 44 50 49 48 48 49 51 51 51 51 52 52 53 54 56 57 55 50 50 50 57 58 59
23 22 23 22 21 24 22 20 20 23 21 19 27 24 22 26 28 32 34 37 40 43 47 49 50 50 49 50 51 52 53 53 53 52 53 56 57 56 53 54 53 56 56 58
21 19 21 22 21 21 21 21 22 21 24 26 29 22 22 25 27 27 29 35 38 40 45 49 49 50 51 51 51 52 52 52 52 53 54 55 56 56 56 56 57 56 57 57
19 19 21 20 22 21 21 21 24 30 33 29 28 27 25 25 23 20 21 24 35 38 40 44 48 49 48 50 50 52 52 52 52 53 55 55 56 56 57 58 58 57 57 56
23 19 21 21 20 23 21 24 21 29 24 27 24 26 22 24 19 17 18 23 29 34 38 41 43 45 47 49 50 52 53 53 53 54 57 56 56 57 59 59 58 58 57 56
22 21 22 23 22 21 22 21 22 27 28 21 19 21 29 25 25 17 18 23 28 31 34 39 41 44 44 44 49 53 53 55 54 54 55 57 57 57 58 59 59 58 57 56
22 24 20 20 23 22 23 22 22 25 25 30 28 23 28 24 24 25 21 22 24 34 34 35 39 42 44 45 49 52 55 57 56 55 56 58 57 57 58 59 59 58 57 54
23 22 19 19 22 23 19 21 24 26 30 28 23 26 28 28 26 21 22 24 26 25 33 38 40 42 45 47 51 52 55 54 54 56 58 59 59 58 58 58 57 56 54 51
24 23 21 18 21 25 25 24 24 25 24 25 28 27 28 27 26 20 22 25 26 26 26 40 42 43 45 48 53 54 56 57 57 58 59 58 57 56 56 55 54 52 51 49
25 21 22 24 22 24 25 26 24 23 26 26 26 25 26 26 24 26 28 26 26 27 27 33 42 45 47 50 55 56 57 58 59 58 57 56 54 53 53 51 50 49 47 46
29 24 23 22 24 24 21 21 25 25 25 28 27 26 30 26 26 26 25 27 26 23 24 24 33 49 51 54 55 54 55 56 56 56 55 54 53 52 51 50 48 47 45 44
33 26 25 22 24 23 21 23 23 26 27 21 19 20 22 23 24 24 26 26 26 25 27 31 39 51 52 55 54 54 53 53 52 52 53 52 50 50 50 48 46 42 40 40
39 29 27 23 24 19 22 23 24 26 25 23 18 18 19 20 20 22 24 23 26 31 37 42 50 52 54 54 53 52 50 49 47 46 45 44 43 42 41 41 41 40 39 38
40 34 27 24 22 24 23 24 23 22 21 23 21 20 19 19 22 28 30 32 35 38 43 49 52 52 52 51 50 48 47 45 44 44 43 41 39 39 39 39 39 40 39 39
39 36 31 30 24 21 25 26 28 27 22 24 23 23 22 21 21 24 33 37 40 43 45 47 49 49 49 48 47 45 44 43 42 42 41 40 40 40 40 39 39 40 40 39
34 33 30 31 31 30 30 26 27 23 23 24 26 25 24 24 25 30 36 40 42 42 44 45 45 45 45 44 43 42 42 41 42 41 41 41 41 40 40 40 39 39 38 38
33 30 29 31 31 29 36 31 23 29 27 27 27 29 29 30 32 34 38 39 40 40 42 42 42 42 42 42 41 40 40 40 41 40 40 40 40 39 39 39 38 35 33 30
31 32 31 31 30 35 37 37 40 36 35 34 35 35 36 36 36 37 38 38 38 39 40 40 40 40 41 40 40 39 39 40 39 39 39 39 37 36 33 27 29 30 30 28
31 36 31 33 32 29 25 33 35 41 37 37 36 34 37 38 38 37 38 38 37 38 38 39 40 40 39 39 39 39 39 39 38 34 29 27 27 28 25 26 26 24 23 21
28 33 31 31 31 30 30 31 34 37 39 38 37 34 33 38 39 37 38 37 36 37 38 39 39 39 38 39 39 39 38 34 28 27 27 25 23 20 22 24 21 19 22 23
29 28 31 30 33 32 31 34 40 36 35 36 38 37 35 38 38 38 37 37 36 37 38 39 39 38 37 37 36 36 33 29 28 24 23 22 21 19 18 20 18 20 18 19

GFSCGP_sfc_30mbdewp_057.txt.gz
Dewpoint
25 22 21 22 22 21 20 20 20 21 23 27 30 33 33 43 47 49 50 50 50 50 51 51 51 52 52 52 52 53 53 53 53 51 52 51 50 50 51 53 53 55 56 56
24 21 21 24 24 23 22 21 21 23 24 27 27 27 34 39 43 49 49 50 49 50 50 50 49 51 52 51 51 52 52 52 52 50 49 48 48 49 51 50 51 52 52 55
24 23 23 24 23 23 23 23 23 23 24 28 28 25 33 37 40 44 49 51 50 49 50 49 49 49 52 52 51 51 51 51 51 51 50 48 47 47 49 50 51 51 52 53
26 25 24 24 22 23 21 24 24 23 20 18 23 18 20 35 36 41 43 49 50 50 51 51 50 48 50 51 51 51 50 50 51 52 51 48 45 44 46 49 50 50 53 52
27 26 25 23 22 25 23 26 25 24 22 21 21 19 20 37 34 35 40 46 49 50 50 50 50 49 49 50 51 51 51 50 50 51 52 49 46 45 45 49 50 51 52 54
25 26 26 25 25 25 25 25 25 27 24 20 21 21 21 28 28 31 37 44 47 48 49 50 50 50 49 50 50 50 51 50 49 49 51 51 47 46 46 47 49 50 52 53
21 22 24 24 22 24 25 22 20 18 20 19 26 25 24 25 30 31 34 40 46 47 49 49 49 49 49 49 50 49 49 49 49 48 48 51 51 48 47 48 50 51 52 52
17 15 21 24 23 21 23 22 20 16 17 18 29 24 24 27 28 32 37 39 44 46 47 49 48 49 48 49 49 49 48 48 49 49 47 48 51 51 49 48 51 53 52 53
20 20 24 23 23 23 22 21 24 23 32 27 25 27 28 26 26 31 37 40 41 45 47 48 49 48 48 48 48 48 48 47 47 48 48 47 48 50 49 50 52 55 55 54
23 20 24 22 23 23 22 26 22 27 20 21 23 26 22 24 24 26 30 38 39 42 46 48 49 49 48 48 48 48 48 47 46 46 47 46 47 49 49 50 53 56 56 56
23 22 21 23 22 20 22 21 24 26 25 18 19 21 26 25 28 23 21 25 37 39 43 47 49 49 49 49 50 49 48 48 48 46 46 46 47 49 51 52 54 57 56 56
26 24 21 21 22 24 22 22 23 20 23 27 23 20 26 27 28 27 22 21 28 37 41 43 46 49 49 48 49 50 51 50 50 49 48 48 49 51 52 53 56 57 57 57
34 25 20 21 21 23 21 22 23 27 27 24 22 22 29 29 27 26 26 28 25 30 37 41 44 47 49 49 49 50 51 52 52 52 51 52 54 54 54 55 57 58 57 57
38 30 23 21 21 22 21 21 22 23 21 22 25 23 26 28 27 28 28 28 26 25 32 37 41 45 48 49 50 51 51 52 53 53 53 54 54 55 55 56 57 58 58 57
36 32 34 28 23 23 23 23 23 23 24 22 22 25 26 27 27 28 29 29 26 24 30 35 39 41 43 46 49 50 52 53 53 53 53 53 55 57 57 57 57 58 56 55
37 32 35 30 26 24 22 23 23 23 24 26 26 25 30 30 30 29 28 28 27 25 27 32 38 41 43 44 45 47 48 52 54 54 54 55 56 57 57 57 56 55 53 52
33 32 33 30 32 26 23 24 23 24 26 26 25 27 28 28 29 29 29 28 27 26 26 27 35 41 44 46 48 47 48 51 55 55 55 55 57 57 56 54 52 51 50 48
35 33 34 31 31 26 28 26 25 25 25 25 26 27 27 26 26 29 29 28 29 28 28 27 30 41 45 51 53 53 54 54 55 55 55 55 55 53 51 50 49 46 46 46
36 35 31 28 27 31 29 26 25 24 24 25 24 26 25 22 24 24 24 25 28 29 28 28 30 45 51 52 53 54 54 55 55 54 54 53 52 50 49 47 45 45 44 43
38 35 29 31 26 20 28 29 29 27 23 26 25 25 25 25 24 26 26 27 29 29 31 36 44 50 53 52 53 53 52 52 52 51 50 49 49 47 46 45 43 42 42 40
33 34 30 30 28 29 34 35 38 29 27 30 28 28 27 27 28 29 28 29 36 39 45 49 50 50 51 51 51 50 49 50 48 47 46 46 46 45 44 41 40 39 39 37
25 28 28 31 28 25 36 36 36 36 34 36 37 36 36 34 31 30 29 31 37 41 47 50 50 50 49 48 49 47 47 44 43 42 42 42 41 41 40 39 39 38 36 33
24 28 27 31 30 36 33 35 37 42 41 35 35 37 37 36 36 36 34 36 40 41 46 49 48 47 46 46 47 46 43 42 41 41 40 40 39 39 39 38 37 35 33 31
29 31 26 28 27 28 28 30 31 35 39 38 38 39 37 34 36 37 37 39 40 43 45 46 46 46 44 44 43 43 41 41 40 40 39 38 35 34 33 33 33 32 31 30
26 32 30 29 30 30 32 33 33 36 37 38 40 38 38 37 36 37 38 39 40 42 43 44 44 43 41 41 41 41 41 40 39 36 32 31 28 27 26 26 26 27 27 29
36 35 34 33 38 38 37 39 39 35 34 38 38 37 38 39 38 38 39 39 39 40 41 41 40 40 39 39 39 39 38 36 33 30 29 27 24 23 22 21 22 26 27 27

GFSCGP_sfc_30mbdewp_060.txt.gz
Dewpoint
29 27 23 22 22 20 18 19 18 18 21 23 23 27 26 37 48 47 47 50 50 49 50 51 52 53 53 54 54 54 54 54 53 53 53 53 52 52 54 55 55 55 55 55
24 24 25 23 23 22 21 21 19 20 23 24 24 25 29 36 42 45 45 47 49 49 50 50 49 51 52 52 53 53 53 53 54 54 53 53 52 51 52 52 54 55 56 57
24 24 23 23 23 22 22 21 19 20 24 24 27 25 27 34 39 45 49 49 50 49 49 49 48 50 52 51 52 52 52 53 53 53 52 48 48 51 49 50 50 51 52 54
25 26 24 23 21 23 19 23 21 22 22 21 25 20 21 24 33 40 43 49 49 49 50 49 48 48 51 51 52 52 52 52 51 52 51 49 48 49 48 48 50 51 51 52
23 26 24 23 23 23 18 24 23 24 23 22 22 19 20 33 26 28 37 43 48 50 50 50 49 48 49 51 51 51 51 51 51 50 49 49 47 46 47 49 48 50 51 52
24 27 26 24 25 25 26 25 25 27 24 21 21 21 20 21 23 26 31 39 44 49 50 50 50 49 50 51 51 51 50 50 50 51 51 49 48 46 45 45 47 48 50 51
23 25 25 24 23 25 24 23 20 19 21 20 23 22 22 25 26 29 29 34 42 48 49 50 50 49 49 49 50 51 51 50 49 50 51 51 49 48 46 45 46 47 48 50
17 15 22 23 22 22 24 23 20 17 18 18 27 23 22 27 29 29 31 34 43 47 48 49 50 50 49 49 50 50 50 50 50 49 49 50 51 50 48 47 48 48 49 50
17 16 22 23 24 22 21 21 24 23 30 26 25 26 27 25 25 26 33 38 40 45 47 48 49 49 49 49 49 50 49 50 50 50 49 48 49 51 51 49 48 49 52 52
23 19 24 23 24 24 22 26 23 26 20 20 22 25 20 21 21 25 28 34 39 43 46 48 49 49 49 48 49 50 49 49 49 49 49 48 48 49 50 51 50 49 50 53
24 22 20 22 22 21 22 21 24 25 25 19 18 21 27 23 26 27 26 27 35 40 44 47 48 49 49 48 49 49 49 48 48 48 48 49 48 48 49 49 50 51 52 55
25 24 20 19 22 24 22 22 23 20 21 26 22 20 25 26 27 28 27 25 22 33 40 44 48 49 49 48 48 48 48 48 48 48 47 47 48 48 48 48 49 51 52 55
34 25 21 21 22 24 22 22 23 27 25 22 21 21 27 26 26 28 26 26 27 27 36 42 45 49 49 49 49 49 49 48 48 49 47 47 47 47 48 48 49 51 53 55
39 32 26 22 23 23 22 21 22 23 21 22 23 23 25 27 27 26 28 28 28 28 28 36 42 46 49 49 49 49 50 50 49 49 49 48 48 48 48 50 52 53 55 54
36 30 34 32 31 29 25 23 23 21 23 21 21 23 25 26 26 27 27 28 29 28 27 30 38 43 46 49 49 49 49 50 51 51 50 50 50 50 52 53 54 55 55 55
34 30 33 26 32 31 29 24 23 23 24 24 24 24 27 28 29 28 28 29 29 29 28 26 32 40 43 47 49 50 50 50 51 52 52 51 52 52 53 55 55 56 56 56
33 31 29 26 31 28 25 26 26 25 25 24 23 25 26 28 29 29 29 30 29 30 29 28 28 35 39 43 47 49 50 52 52 52 52 52 53 53 54 55 56 56 56 55
33 33 32 26 25 22 28 27 28 26 26 27 27 28 27 26 28 30 29 27 30 30 30 29 29 30 39 42 44 45 47 49 52 53 53 53 54 54 55 56 55 54 52 51
39 35 30 25 21 23 21 26 29 32 29 28 26 26 26 26 24 24 25 25 25 27 29 30 30 30 34 42 49 50 49 50 52 53 54 54 55 55 53 52 50 48 47 47
36 35 30 30 24 14 23 33 35 35 23 34 34 31 29 27 23 24 27 27 27 29 31 31 32 34 40 46 52 51 52 53 52 53 54 54 54 51 50 48 47 46 45 42
32 34 30 28 24 26 32 34 37 25 20 38 39 38 36 33 29 32 33 31 31 35 37 45 45 45 47 51 52 51 52 53 51 50 50 50 50 49 47 44 43 42 39 36
27 26 28 30 27 22 33 35 31 34 38 38 37 39 39 37 36 36 37 36 36 36 40 48 46 48 50 51 51 49 49 47 47 47 46 45 44 43 41 40 39 37 34 32
19 28 24 28 27 31 35 32 33 38 37 37 37 37 38 40 36 37 37 38 39 42 43 48 49 48 48 48 49 48 43 44 44 43 42 41 41 40 40 38 36 34 33 31
27 31 28 26 25 29 31 32 35 36 37 35 33 36 37 40 38 37 39 39 40 42 44 46 47 46 45 45 45 44 42 42 42 41 39 37 36 35 35 35 34 33 32 30
23 30 28 28 32 35 35 38 40 39 40 37 33 36 39 40 38 40 40 40 40 41 43 44 44 42 42 42 42 42 42 41 39 36 34 32 31 30 29 28 29 30 31 31
36 34 31 27 37 37 37 39 37 38 38 36 35 38 35 35 37 40 40 40 40 40 40 39 38 37 36 36 36 38 38 37 34 32 30 29 28 27 27 27 26 29 29 27

GFSCGP_sfc_30mbdewp_063.txt.gz
Dewpoint
31 27 22 18 22 20 20 19 18 18 20 21 23 25 25 32 46 47 49 50 50 49 50 51 51 53 55 55 55 55 55 56 56 56 55 55 56 56 56 57 56 55 54 54
27 26 27 24 23 21 21 20 20 21 23 22 24 24 25 32 37 44 45 47 49 50 50 51 49 52 53 54 55 55 54 55 56 56 55 53 55 55 56 56 56 55 55 54
24 23 27 24 23 22 22 21 21 18 23 24 25 23 23 29 38 42 45 45 48 50 49 49 49 50 52 52 54 54 54 54 55 55 54 53 52 52 53 54 54 55 55 57
21 24 25 24 22 22 20 23 22 21 18 19 24 19 23 23 27 35 40 46 48 49 50 49 49 49 51 52 53 54 53 54 54 55 53 53 51 51 52 52 53 55 56 56
23 25 24 22 21 23 18 23 23 22 21 23 23 20 21 26 24 25 30 42 47 49 50 49 49 49 50 51 52 53 53 53 53 53 52 50 51 51 50 51 51 52 53 54
22 29 25 20 24 23 24 23 26 27 25 22 22 21 19 22 23 25 28 36 44 48 50 50 50 49 49 51 52 52 52 52 52 52 52 50 49 49 50 49 50 51 52 52
24 24 25 26 23 25 24 22 20 21 22 21 24 21 20 24 25 27 28 30 40 47 49 50 50 49 49 50 51 51 51 51 51 51 51 50 50 49 50 48 49 50 51 51
20 18 24 25 24 23 23 21 21 18 19 19 26 21 20 27 29 30 30 31 36 46 49 50 50 49 49 50 50 51 50 50 51 51 50 50 50 50 49 48 48 49 50 50
18 18 21 24 24 25 25 22 25 24 29 24 24 26 26 25 24 26 27 36 39 45 48 49 50 50 49 49 50 50 50 50 51 51 51 51 51 50 49 49 50 49 50 50
22 18 23 22 24 24 24 26 21 24 19 20 22 24 20 21 21 24 28 28 38 43 47 48 50 50 50 49 50 50 50 50 50 51 51 50 50 51 51 51 50 50 50 50
26 21 22 24 21 21 22 22 25 25 24 19 18 20 28 24 24 25 29 29 29 39 45 47 49 50 50 49 49 50 50 50 50 51 51 50 50 50 51 51 52 52 51 51
25 24 18 21 23 24 23 22 24 20 23 26 23 20 24 27 28 28 28 29 28 26 38 45 48 49 49 49 49 49 50 50 50 51 51 51 51 50 50 50 50 52 52 52
36 24 20 20 20 24 22 22 25 27 25 21 21 21 26 27 26 28 28 29 28 29 31 41 47 48 49 49 49 49 49 50 49 50 50 50 51 51 50 50 50 50 51 51
38 34 25 18 25 30 24 22 23 23 22 22 24 23 24 24 26 27 28 29 30 29 30 33 43 47 48 49 49 49 50 50 49 49 48 48 49 50 50 50 50 50 51 51
36 31 34 33 31 32 30 28 25 22 23 20 21 23 24 25 26 27 30 30 30 29 30 29 34 42 47 49 50 50 50 50 50 49 48 48 49 49 49 49 50 50 50 51
27 29 32 27 30 29 28 28 26 24 24 24 24 24 26 26 28 28 28 29 29 29 30 31 31 35 43 47 49 50 50 51 51 50 49 49 50 49 49 49 49 50 51 51
27 32 29 21 30 27 25 24 25 27 26 26 24 26 28 27 27 29 29 31 31 31 31 31 31 32 38 43 47 49 50 51 51 51 51 51 50 51 51 51 51 52 53 54
26 33 31 23 24 12 24 30 27 27 27 29 28 30 30 30 30 29 31 30 30 30 29 31 31 31 33 39 44 48 49 51 51 51 51 52 52 52 52 53 53 54 55 55
29 27 31 24 19 20 16 26 30 30 26 37 36 37 37 36 30 28 28 29 30 30 30 30 32 32 33 36 41 44 48 50 51 52 52 52 53 53 53 54 54 54 53 52
31 30 32 30 25 14 19 32 36 37 19 37 37 36 37 36 33 33 36 38 37 33 32 34 36 34 33 35 45 46 46 48 49 51 52 53 54 54 54 52 51 48 48 45
30 31 29 29 26 25 29 33 37 21 21 33 38 37 37 35 36 39 39 39 39 39 38 43 46 46 47 49 50 49 51 50 52 53 53 53 53 53 51 48 46 44 41 38
27 25 26 27 27 22 30 34 27 31 35 36 37 37 35 37 38 40 38 39 40 41 44 47 49 48 49 51 51 51 51 50 51 51 50 48 47 46 45 43 40 38 36 33
23 29 28 29 27 31 35 34 36 39 38 39 38 38 35 35 36 39 39 39 40 42 44 47 47 47 47 48 49 48 45 46 46 45 43 42 42 41 40 38 36 34 33 32
27 31 28 28 26 31 34 37 40 38 39 39 36 37 39 35 36 40 41 41 41 42 44 45 44 43 43 44 44 45 44 44 43 41 40 39 37 36 36 35 34 33 32 31
23 30 28 28 30 34 37 39 37 37 37 35 34 33 32 32 35 38 41 40 41 41 39 40 40 38 37 38 40 42 43 42 38 37 35 34 32 31 30 29 31 31 32 32
34 33 30 27 35 34 36 38 35 35 34 32 31 30 28 28 29 35 31 31 31 32 33 33 33 33 32 31 30 33 36 37 35 34 33 32 31 29 28 28 27 29 28 27

GFSCGP_sfc_30mbdewp_066.txt.gz
Dewpoint
31 26 23 21 21 17 14 14 13 11 15 16 14 17 21 23 32 39 40 43 47 48 50 49 51 52 55 56 56 57 56 55 56 56 56 56 56 57 56 56 56 55 53 54
30 27 24 23 20 19 15 14 13 13 19 19 11 17 21 21 26 31 38 41 45 48 50 49 50 51 53 56 56 56 56 56 55 55 55 53 56 55 56 54 56 55 55 55
23 22 26 25 21 18 16 14 14 14 19 19 20 19 19 19 28 34 37 38 43 47 48 49 49 50 53 54 55 56 56 55 55 55 56 53 54 54 55 56 55 55 55 54
19 17 22 24 23 19 15 17 17 17 17 7 22 14 16 19 19 24 29 39 40 45 48 49 49 49 51 53 55 56 55 56 56 56 55 52 51 50 52 52 55 54 56 54
21 17 17 19 19 19 18 17 20 19 18 14 13 18 13 19 19 18 20 30 40 44 47 48 49 48 49 52 53 55 55 55 55 55 54 53 51 50 52 53 53 54 56 56
27 24 20 17 19 22 21 20 20 20 16 15 16 19 14 14 19 19 22 27 36 43 47 48 49 49 48 51 52 53 53 54 55 55 55 53 52 52 52 53 54 53 54 54
26 22 24 22 17 21 21 18 17 16 17 13 19 20 18 18 19 22 25 26 33 41 46 48 48 48 47 49 51 52 52 52 54 54 54 52 52 52 51 52 53 52 53 53
16 19 21 26 20 21 19 18 16 13 15 17 22 19 18 21 22 26 27 27 31 39 45 47 48 49 48 48 50 52 51 51 53 54 54 52 51 51 51 51 52 52 52 52
17 19 23 24 25 22 21 20 21 21 26 20 20 21 23 21 21 22 25 29 33 36 42 46 48 49 49 48 49 51 50 50 51 52 54 53 51 51 50 51 51 51 52 51
19 17 21 22 25 24 24 23 20 21 18 18 18 20 18 19 20 20 26 27 33 39 41 45 47 50 50 49 49 50 50 49 51 52 53 53 52 52 50 51 50 50 50 50
23 21 22 21 23 20 22 22 23 21 19 18 18 19 24 22 22 23 25 27 30 37 42 44 46 49 50 50 49 49 50 49 50 51 52 52 52 52 52 52 51 50 50 50
24 25 20 20 22 21 20 21 22 20 21 22 22 20 25 27 26 28 26 26 30 28 35 42 46 47 49 50 49 49 49 49 49 50 51 52 52 52 52 52 52 52 52 52
32 22 15 17 21 23 22 21 21 20 21 21 22 19 25 27 25 25 27 25 27 30 31 37 43 46 48 49 50 49 50 49 49 50 50 51 52 52 51 51 51 52 52 52
33 29 20 11 15 24 21 21 21 23 21 20 18 19 21 22 23 23 24 26 29 30 30 34 40 43 46 48 49 49 50 50 49 49 49 50 51 52 52 52 51 51 52 51
30 34 33 31 31 30 29 28 25 21 20 20 20 20 21 22 23 25 27 28 28 28 30 31 33 38 43 46 48 49 49 50 50 49 48 49 50 51 51 51 51 51 52 51
27 31 29 25 27 28 27 27 27 25 24 24 23 23 25 26 27 27 27 28 26 29 30 30 31 32 35 42 46 48 49 49 51 50 49 49 49 50 50 51 51 51 51 51
25 28 27 22 24 21 22 26 26 26 26 26 24 26 28 28 29 30 29 30 30 29 29 31 32 33 34 36 42 46 48 49 50 50 50 50 50 50 50 50 50 50 50 51
23 32 26 24 25 19 27 29 27 26 28 28 28 33 34 34 34 32 35 35 35 33 33 30 31 33 33 35 37 43 45 48 50 50 50 50 50 50 50 50 50 50 51 51
26 26 30 19 19 20 18 26 26 24 30 30 30 32 34 34 34 34 37 38 39 38 37 35 34 34 37 35 35 38 41 44 47 49 50 50 50 50 51 51 52 52 53 54
26 26 25 28 19 11 18 31 34 34 18 26 32 31 30 32 33 32 36 38 38 39 40 41 41 44 44 44 42 37 39 42 45 47 48 50 51 51 52 52 53 55 55 54
26 26 22 24 22 20 25 32 35 17 23 30 29 29 30 28 31 36 37 37 38 40 42 45 46 47 49 50 50 46 43 42 44 47 50 51 52 53 53 55 53 48 45 42
24 22 23 22 22 23 33 28 23 32 33 36 36 36 38 39 38 35 34 36 38 40 43 46 47 47 48 49 50 50 50 52 52 52 53 53 53 50 50 46 43 41 39 36
23 23 24 23 22 34 35 33 39 39 38 39 38 37 37 38 38 38 36 38 40 41 43 45 45 45 45 44 47 48 47 47 46 45 44 43 42 41 41 40 38 37 35 34
23 28 25 24 26 29 34 38 38 38 38 37 36 35 34 34 35 36 39 41 41 40 40 41 42 42 41 40 39 41 44 44 43 41 39 38 37 36 36 36 35 34 33 32
23 26 22 22 24 32 37 37 37 37 37 36 34 33 31 31 32 34 36 34 34 34 35 35 37 38 37 37 35 35 37 39 38 37 35 34 33 31 30 29 31 31 32 32
28 25 26 24 35 35 35 36 36 36 35 35 32 30 30 29 30 31 31 31 31 31 31 30 30 30 31 32 32 32 33 34 34 33 33 32 31 30 28 27 26 29 29 28

GFSCGP_sfc_30mbdewp_069.txt.gz
Dewpoint
15 20 21 21 22 20 16 14 14 17 15 16 16 14 16 17 23 27 32 34 40 44 45 47 49 51 55 57 58 57 56 57 57 58 57 56 56 57 58 57 56 54 53 53
10 15 19 21 22 20 18 15 15 16 14 15 14 10 11 15 18 22 28 32 36 44 45 47 49 51 53 56 57 57 56 56 57 56 56 56 55 56 54 55 57 53 51 51
21 13 20 22 22 21 20 19 17 16 16 18 16 14 14 15 18 20 24 27 32 40 44 47 48 50 52 54 55 57 56 56 56 56 55 56 56 55 53 54 56 56 54 53
29 20 22 23 23 22 18 19 18 16 16 15 15 9 15 15 17 20 23 27 29 37 44 46 48 48 51 54 56 56 56 56 55 56 54 54 53 54 53 52 54 54 56 54
32 27 18 22 23 23 22 20 18 17 17 17 16 12 13 16 13 15 16 21 32 35 43 45 47 47 49 53 55 56 56 56 56 56 54 54 53 52 53 51 52 54 54 56
30 31 30 20 18 22 20 20 19 19 19 16 17 16 14 15 15 16 16 19 29 35 41 45 46 47 46 52 54 55 56 56 56 56 56 54 53 51 51 54 51 53 55 55
30 29 29 28 16 21 17 18 17 17 16 16 18 16 16 15 16 17 20 20 28 34 41 44 45 46 45 48 52 54 55 55 56 56 55 55 54 51 50 53 54 52 54 55
30 26 26 25 19 18 19 19 18 17 18 17 19 17 19 20 19 22 23 25 25 32 41 44 44 46 45 47 50 52 52 53 55 56 55 55 54 52 51 51 53 54 54 53
25 23 26 30 24 21 19 17 19 18 25 22 19 20 22 23 20 19 20 25 28 31 39 43 44 46 46 46 49 51 51 51 53 55 55 55 55 54 54 53 54 54 53 52
27 22 25 31 27 25 25 22 18 17 21 21 21 20 19 19 19 18 22 26 30 33 37 42 44 46 47 47 47 50 51 50 50 54 55 55 54 54 53 53 53 54 54 53
22 20 26 26 29 24 22 21 21 20 20 19 19 22 23 22 23 21 24 26 30 36 37 41 43 46 47 48 47 49 50 49 49 51 53 54 54 54 54 53 53 53 54 54
21 21 23 24 26 28 25 22 23 21 21 21 22 26 23 24 25 25 24 25 27 28 38 40 43 45 48 48 48 48 49 49 49 50 51 53 54 54 54 54 53 53 53 54
33 24 18 23 27 23 25 25 23 24 25 30 25 22 26 25 24 24 24 24 26 28 29 35 42 44 46 48 49 48 49 48 48 49 50 52 53 54 54 54 54 54 53 53
30 30 26 21 23 21 21 21 22 23 23 23 25 24 23 23 22 23 23 25 26 28 29 31 36 41 44 47 48 49 49 49 48 48 49 51 53 53 54 54 54 54 54 53
30 32 33 25 30 26 24 22 22 21 22 21 21 20 20 22 23 23 25 27 27 26 26 28 30 36 41 45 47 49 49 50 50 49 48 49 52 53 53 54 54 54 54 54
30 31 34 30 25 26 24 23 23 23 24 23 23 23 24 24 26 27 27 28 27 27 28 29 31 31 31 38 44 46 48 50 50 50 50 49 51 51 52 53 54 54 54 54
25 30 30 30 30 27 24 26 27 28 26 27 24 28 30 27 29 31 32 33 35 35 33 33 32 31 33 34 35 43 46 48 50 51 51 50 51 51 52 53 53 53 54 54
25 27 29 28 30 22 31 28 27 29 29 28 29 28 29 29 29 34 36 37 37 38 38 38 36 35 34 37 35 36 40 46 48 49 50 50 51 51 51 52 52 53 53 54
25 25 27 24 25 29 22 29 30 33 30 27 29 29 28 27 29 35 36 37 37 38 38 41 43 43 42 43 44 39 35 38 44 48 50 49 50 50 51 51 52 53 53 53
24 25 25 26 25 20 24 30 32 27 29 26 28 28 27 26 22 25 32 36 36 36 39 43 45 47 48 48 49 48 43 37 38 42 47 49 50 50 50 52 52 53 53 53
23 23 21 23 20 17 25 30 32 23 30 31 31 32 33 32 32 34 35 34 35 38 39 43 45 46 47 47 48 49 48 49 50 47 46 48 49 50 51 51 53 54 53 47
21 21 20 20 19 18 30 28 27 33 34 35 34 34 35 35 36 37 37 36 37 39 40 42 44 45 45 45 47 47 46 47 50 51 50 49 49 50 52 52 49 47 44 40
22 20 21 20 20 31 34 36 36 37 36 35 35 35 35 35 35 36 37 38 40 39 39 40 42 42 41 40 40 41 42 43 44 43 43 42 41 40 40 41 40 39 38 37
22 28 25 27 29 33 35 36 36 36 36 35 35 34 34 34 34 34 36 35 35 35 35 36 38 37 35 35 34 35 38 39 37 35 35 35 34 33 34 34 35 35 34 32
27 24 20 21 28 32 34 36 36 36 36 35 35 34 33 32 32 32 33 33 33 33 33 33 33 32 31 31 31 32 34 36 34 32 32 32 31 29 28 28 30 30 31 32
22 27 22 28 34 34 34 35 35 34 34 34 33 32 32 31 30 31 31 30 29 29 29 29 29 30 29 29 29 30 31 34 33 31 30 30 29 28 27 26 26 28 28 28

GFSCGP_sfc_30mbdewp_075.txt.gz
Dewpoint
27 16 14 16 26 27 26 24 23 21 18 18 18 15 15 16 17 24 25 25 33 42 46 50 54 55 58 58 58 57 58 58 58 57 57 57 56 58 58 58 57 58 57 57
29 19 21 22 25 25 25 23 21 22 23 22 21 24 17 17 18 19 25 26 30 43 47 49 54 55 57 57 57 57 57 57 58 57 57 57 57 57 58 57 57 56 56 56
28 30 32 31 21 24 23 22 21 21 22 24 20 18 15 17 18 19 24 27 30 43 47 49 53 54 55 57 57 57 56 57 58 57 57 57 57 56 56 56 55 55 55 56
35 36 34 35 28 23 24 26 24 22 23 27 29 19 18 17 18 19 18 26 30 43 47 49 51 53 53 54 56 56 56 57 57 57 56 56 55 54 54 55 55 54 57 56
28 34 33 35 31 26 25 30 30 31 32 32 29 21 19 19 18 19 18 24 30 43 47 48 50 53 53 53 56 56 57 57 56 57 56 56 55 55 54 53 53 55 55 56
31 31 34 35 33 30 34 33 30 34 33 29 30 25 18 18 19 20 19 23 26 43 46 48 50 52 53 55 55 56 56 56 56 57 56 55 54 54 53 52 52 53 54 56
27 28 31 35 32 33 32 32 29 28 28 27 26 23 20 21 21 21 21 23 28 44 45 47 49 51 52 53 54 56 55 55 56 56 56 55 54 53 52 50 49 51 53 55
24 24 31 33 33 31 30 35 30 24 25 22 23 19 19 22 22 20 19 25 33 43 45 47 48 50 53 53 53 54 55 55 55 56 55 55 54 54 52 50 48 49 52 54
25 26 32 32 34 35 33 33 34 32 29 30 30 20 21 22 22 22 22 24 32 42 44 47 47 48 52 53 53 54 54 53 56 55 56 55 55 54 54 52 49 49 52 53
28 26 29 31 38 38 35 35 30 32 25 25 26 28 19 20 20 20 20 23 28 38 43 46 47 47 52 53 54 55 55 54 55 56 56 55 55 55 54 54 51 50 50 52
30 32 29 34 36 35 35 34 36 34 33 26 28 30 36 30 27 24 28 30 33 37 43 46 46 47 49 53 54 54 55 55 55 55 56 56 55 55 55 54 54 53 51 51
36 35 28 27 31 35 33 37 36 31 29 29 26 29 38 32 28 26 29 28 30 36 41 45 46 47 47 50 53 54 54 55 55 55 55 55 55 56 55 54 53 54 54 53
31 32 27 23 25 26 32 36 36 36 36 32 30 29 39 31 28 27 28 30 31 36 40 44 46 47 48 48 50 52 53 53 53 55 54 54 54 54 54 55 54 53 53 55
34 30 27 25 29 33 32 37 36 35 32 31 32 32 37 37 32 30 32 33 35 36 35 41 45 47 47 48 50 51 52 53 52 55 54 54 54 54 54 54 55 55 54 53
34 29 30 31 30 33 32 33 36 34 35 34 35 32 38 37 39 37 37 38 38 39 40 42 42 41 44 49 49 49 51 52 52 52 54 54 55 55 55 54 55 55 55 54
34 28 30 27 28 31 31 34 36 38 35 36 37 37 41 40 42 37 37 37 38 39 42 44 46 48 48 48 50 51 51 51 52 51 51 52 54 55 55 55 55 55 55 54
32 28 26 25 30 31 29 34 37 37 38 37 36 38 40 42 38 37 37 38 38 41 43 46 47 47 47 47 48 49 50 52 53 51 51 50 51 54 55 55 55 55 55 55
27 29 28 25 29 24 31 35 37 38 39 39 39 39 39 39 35 36 37 36 39 43 45 46 46 45 44 45 48 49 48 48 49 52 53 53 52 51 52 54 55 55 55 55
29 28 26 21 25 27 32 38 37 37 36 39 40 41 40 41 37 36 38 39 42 43 46 45 42 41 40 41 45 45 45 46 46 47 47 47 48 49 53 52 53 54 54 54
25 28 25 26 23 22 28 38 37 36 32 39 39 38 38 36 34 35 38 37 37 39 43 41 38 37 36 36 41 41 41 41 42 42 42 41 41 43 45 49 50 54 54 54
23 26 26 25 24 26 35 38 36 30 32 42 38 36 34 33 35 38 37 35 35 35 36 37 35 34 33 34 36 36 36 37 38 38 38 37 36 37 38 42 42 43 48 52
23 26 25 25 23 18 38 39 35 39 40 37 36 37 35 34 35 35 34 33 32 32 33 34 33 32 31 32 33 33 33 36 36 35 33 32 32 33 33 34 36 37 37 37
25 26 25 24 25 37 39 40 37 36 35 35 34 34 34 34 34 33 31 31 30 29 30 31 31 30 29 29 30 30 31 34 34 32 31 30 28 29 30 30 30 31 33 33
31 28 27 26 35 35 35 35 35 35 34 34 33 32 33 32 32 30 29 28 27 27 27 28 28 27 26 27 27 29 30 33 32 31 29 28 27 27 27 28 28 28 29 28
33 34 35 31 33 35 36 34 34 33 33 32 32 30 30 30 29 28 27 26 25 25 25 25 25 24 24 25 26 28 29 30 30 29 28 27 26 25 26 27 27 27 28 27
33 30 32 29 34 33 33 33 33 32 31 29 29 27 26 27 26 25 24 23 22 22 22 23 23 24 25 25 26 28 28 28 28 27 26 26 26 25 24 23 24 28 28 28

GFSCGP_sfc_30mbdewp_078.txt.gz
Dewpoint
26 21 18 15 20 26 27 26 25 25 25 25 25 23 22 23 24 16 17 22 38 44 47 53 55 58 57 56 56 56 57 58 58 58 58 58 58 59 59 59 58 58 58 57
30 25 24 20 21 22 24 25 24 25 25 23 22 21 24 25 24 21 20 24 34 44 48 53 55 57 56 56 56 56 56 57 56 57 57 57 58 58 58 58 57 57 57 56
29 30 29 23 28 31 25 23 24 23 27 26 23 23 26 27 26 18 21 25 30 44 48 53 54 55 56 56 56 56 56 57 57 57 57 57 57 57 57 57 57 57 57 56
32 36 34 33 32 32 31 23 24 27 28 26 29 23 26 27 27 22 19 22 29 45 48 52 53 55 55 56 57 57 56 57 57 57 56 56 55 54 56 56 57 56 56 56
28 29 31 32 34 34 32 25 27 31 30 32 27 26 25 27 24 21 21 21 31 45 48 52 53 54 55 56 56 56 56 57 57 57 56 55 55 54 55 56 55 55 56 57
29 32 32 32 33 34 31 29 29 31 31 25 25 28 25 25 23 22 22 22 30 45 47 51 53 53 54 55 55 56 55 56 57 56 56 55 54 54 54 54 54 54 55 56
27 27 30 34 32 33 33 31 26 24 25 23 24 27 25 27 25 23 22 21 30 45 47 50 52 52 52 54 55 55 56 55 56 57 56 56 55 55 53 53 53 53 53 55
22 19 30 34 31 32 33 34 30 21 23 24 26 24 23 25 26 25 23 24 38 46 47 49 51 52 53 54 55 55 55 55 56 57 56 55 55 54 54 53 52 52 53 54
24 25 30 32 33 33 35 32 35 31 34 29 30 28 23 23 22 23 23 33 43 45 47 49 50 51 53 53 54 55 54 54 55 56 56 55 55 54 53 52 52 51 53 54
28 24 28 34 34 37 35 39 31 31 24 24 26 26 24 31 31 24 22 33 43 45 46 48 50 51 52 53 54 53 53 54 55 56 56 55 55 54 53 52 50 50 51 53
32 29 28 34 34 34 35 34 36 34 32 28 27 30 35 38 38 31 26 30 41 44 46 47 49 51 53 53 53 54 53 53 54 55 56 55 55 55 54 53 51 49 49 52
36 32 27 27 29 37 38 35 36 29 29 31 30 29 43 43 40 32 30 33 34 43 46 47 48 51 52 53 54 54 54 54 54 55 55 55 55 55 55 54 54 52 49 50
32 30 24 22 27 35 32 34 36 38 36 31 28 29 43 42 41 37 36 38 38 41 45 46 47 49 52 53 53 54 54 54 54 55 55 55 55 55 55 54 55 54 52 51
33 30 25 21 26 32 31 34 34 35 30 30 31 32 38 41 41 41 38 40 42 43 44 46 47 47 48 51 53 54 54 55 55 55 55 54 55 55 55 55 55 54 54 54
33 26 29 29 30 29 28 33 33 32 34 32 30 33 40 43 43 41 39 41 43 45 47 47 47 48 51 52 52 51 53 54 54 54 54 54 54 54 54 54 54 55 54 53
34 26 29 26 27 29 30 32 31 31 35 34 34 36 42 46 45 40 38 40 44 45 45 45 45 45 46 49 50 51 53 53 53 53 54 55 54 54 54 54 53 53 54 55
32 31 27 21 26 26 27 31 31 30 36 36 34 35 42 44 43 42 38 42 45 44 43 42 42 42 43 45 46 46 47 49 52 53 53 53 54 55 55 54 54 53 54 55
31 30 28 23 25 21 32 33 38 39 39 39 39 41 42 40 41 40 43 45 44 42 39 39 39 39 38 42 42 43 43 44 45 45 46 46 46 48 51 55 55 55 54 55
31 28 24 18 20 20 29 36 38 33 33 41 40 42 41 40 37 35 37 41 40 38 36 36 36 36 36 38 39 39 38 39 40 41 41 42 43 44 46 48 48 53 55 55
29 29 25 25 19 13 31 35 39 40 31 40 41 41 41 39 34 33 34 35 35 36 34 34 33 33 33 34 36 36 36 36 36 36 36 36 37 39 41 42 43 43 46 51
25 27 25 23 21 23 29 38 41 30 32 38 39 39 39 37 35 34 32 31 32 32 32 32 31 30 30 32 34 33 34 34 33 32 31 30 31 33 34 36 38 39 41 38
24 24 23 25 23 19 37 38 34 37 40 39 39 38 37 35 33 32 30 29 29 29 30 30 29 28 28 29 31 31 31 33 32 30 28 28 28 28 29 30 32 35 35 34
27 26 25 24 24 38 40 40 41 40 37 35 36 35 34 32 30 29 28 27 27 26 27 27 27 27 26 27 28 29 30 32 31 28 27 27 27 27 28 28 28 29 31 30
33 35 28 26 34 35 35 36 36 35 32 31 31 32 32 29 28 27 26 25 25 24 25 25 25 24 25 26 27 28 29 31 29 28 26 26 26 26 27 27 27 27 27 27
29 32 33 31 32 34 34 35 33 32 31 29 27 28 28 27 26 24 23 22 22 23 23 24 25 25 25 26 27 27 28 29 27 26 26 26 25 24 24 25 26 27 28 28
29 27 29 28 31 31 31 32 30 28 26 26 25 24 24 24 23 23 22 21 21 22 22 22 23 23 25 25 26 27 27 27 26 25 25 25 24 23 23 22 23 26 27 28

GFSCGP_sfc_30mbdewp_081.txt.gz
Dewpoint
25 19 16 16 21 21 24 24 24 26 26 25 24 24 24 26 24 25 25 24 20 25 41 51 55 57 56 56 55 55 55 56 58 58 58 59 59 60 61 62 61 59 57 54
30 25 24 22 20 18 18 21 22 24 25 25 24 24 25 25 25 25 26 25 21 37 49 53 56 56 56 55 55 55 55 56 56 58 58 58 59 59 60 60 60 60 57 52
28 30 31 28 25 22 24 28 24 23 25 25 25 23 22 23 26 28 29 25 22 37 48 53 55 55 55 55 55 55 56 56 57 58 57 57 58 58 58 58 59 59 58 56
30 33 32 31 31 32 29 31 29 23 26 23 31 22 27 28 27 27 28 25 26 41 48 52 54 55 55 55 55 55 56 56 57 57 57 56 56 55 56 57 58 58 58 57
27 31 31 31 31 33 29 34 30 29 28 28 27 27 26 26 25 26 27 25 24 37 47 51 54 54 54 55 55 55 55 56 56 56 56 56 55 55 57 57 56 57 57 58
28 32 32 30 32 32 34 31 29 29 29 24 26 26 24 24 25 25 26 25 23 35 46 51 54 54 54 54 55 55 55 55 57 56 55 55 55 55 56 56 56 56 56 57
28 29 31 34 31 33 33 30 24 23 23 21 24 24 23 24 27 27 27 25 25 36 47 51 53 53 53 53 54 55 55 55 57 56 56 54 54 54 55 55 55 55 55 56
21 17 27 34 31 29 32 31 26 20 21 24 23 21 22 27 28 28 29 28 26 33 47 51 52 53 53 53 54 55 55 55 57 56 56 55 54 53 54 54 55 55 55 55
23 23 30 33 33 32 33 31 34 30 31 29 28 30 29 40 28 35 35 34 28 36 47 50 52 52 53 53 53 54 54 55 56 57 55 55 55 55 54 54 54 54 54 54
27 21 28 34 33 34 33 38 31 31 22 21 25 27 33 40 39 37 33 32 31 45 47 50 51 52 52 53 54 54 55 55 55 56 56 56 55 55 54 54 53 52 53 53
31 26 27 34 32 31 34 31 33 34 32 26 26 31 39 40 41 40 38 38 39 45 47 49 50 52 52 53 54 54 54 54 54 56 56 55 55 55 54 53 52 51 51 52
35 31 25 25 29 35 35 33 35 29 29 31 29 26 42 39 40 41 39 42 41 46 47 49 50 52 52 53 53 53 53 53 54 55 56 56 56 55 54 53 52 50 50 51
33 27 21 14 29 37 34 35 35 35 34 29 26 25 40 38 39 42 40 44 44 46 47 48 51 52 52 53 53 53 53 53 53 54 55 55 55 55 55 54 54 52 50 49
31 28 24 17 20 31 27 31 32 31 28 30 30 30 38 38 38 41 42 46 47 48 49 50 50 52 53 53 53 54 54 54 54 54 55 55 55 55 55 55 55 55 53 51
31 24 28 27 28 28 28 28 28 28 30 29 26 33 35 41 40 41 44 45 44 44 45 47 48 50 51 52 53 54 54 55 54 54 54 54 55 55 55 55 55 55 55 54
34 25 29 24 24 26 26 23 26 29 31 31 31 32 40 44 44 44 44 43 42 42 42 43 45 45 46 46 47 47 48 50 55 55 54 54 54 54 54 54 54 55 54 54
31 29 27 20 22 23 18 29 31 32 33 30 29 33 43 43 45 43 45 42 39 40 40 40 40 41 42 42 42 42 44 46 47 48 48 48 53 55 54 54 54 54 54 54
30 29 28 21 21 7 20 34 36 35 36 37 36 35 39 41 40 43 42 39 37 37 37 37 37 37 38 39 39 39 39 40 40 41 41 42 44 46 48 50 55 54 54 53
31 29 24 20 19 16 18 34 34 32 34 37 40 40 39 38 37 36 39 37 35 34 34 34 34 34 36 36 37 36 36 35 35 35 35 36 39 39 42 43 44 46 47 52
31 29 25 23 16 9 24 33 37 36 30 38 40 39 39 39 32 31 35 36 34 32 32 31 31 31 33 34 35 35 33 32 31 31 31 32 33 33 34 36 37 40 43 41
27 28 24 22 20 20 26 39 38 29 30 38 40 40 37 33 33 33 33 31 31 31 31 30 29 28 29 32 33 33 32 30 29 29 29 29 29 30 31 32 33 35 36 34
22 23 24 24 21 17 39 36 32 36 39 38 38 37 35 33 32 31 29 28 28 28 27 28 27 27 28 29 31 31 31 30 28 28 27 28 28 28 29 29 30 30 31 31
25 26 25 24 25 37 39 39 40 38 36 36 37 37 34 31 29 28 26 25 25 25 26 26 26 26 27 28 28 29 30 30 28 27 26 26 27 27 27 28 28 28 28 28
29 32 32 31 30 31 35 35 34 33 31 31 31 30 29 27 26 25 24 23 24 23 24 25 25 25 26 27 27 27 29 28 28 26 25 25 25 25 26 27 27 27 27 26
27 29 30 30 32 32 31 31 32 31 29 26 26 26 26 25 24 23 22 22 23 22 23 23 24 24 24 25 25 26 27 27 26 26 25 24 24 24 23 25 26 25 27 28
27 25 25 26 30 29 28 30 30 27 25 24 23 22 23 23 22 21 21 21 20 20 20 20 22 22 23 23 24 25 25 25 25 24 24 24 24 23 22 21 21 24 24 24

GFSCGP_sfc_30mbdewp_084.txt.gz
Dewpoint
23 21 19 18 20 17 20 21 20 20 23 23 20 22 24 26 25 25 25 25 25 26 24 32 51 55 55 55 56 56 55 56 58 58 59 60 59 59 59 60 61 61 60 61
28 21 21 19 18 17 18 18 18 21 22 23 24 24 25 26 26 26 25 25 26 26 36 47 53 55 55 55 55 55 55 56 57 57 58 59 59 60 60 60 60 59 58 57
26 28 31 26 25 23 23 23 24 26 30 26 25 22 21 22 24 24 26 27 28 27 31 50 53 54 55 54 54 54 54 55 56 58 57 58 59 59 59 60 59 58 57 55
28 30 29 29 27 25 26 31 31 29 27 23 29 22 21 24 26 29 29 28 28 27 34 51 54 54 55 55 55 54 54 54 55 57 57 56 56 56 57 58 59 57 56 54
25 32 33 30 30 32 30 33 31 31 29 27 26 24 22 24 23 26 28 28 28 27 37 49 53 54 55 55 54 54 54 54 57 57 57 57 56 56 57 58 58 58 57 55
25 32 31 27 31 33 33 30 30 29 27 23 23 23 22 23 24 26 27 27 27 25 42 51 53 54 54 54 53 54 54 54 55 56 56 56 55 56 56 56 56 57 57 57
28 29 32 33 28 33 31 29 22 21 24 21 22 24 23 25 26 25 27 27 28 27 41 51 53 54 53 53 53 53 54 53 55 55 55 55 55 56 56 56 56 56 56 56
20 15 28 33 28 28 31 30 22 18 20 23 29 20 22 40 40 40 39 36 32 28 42 46 52 53 53 53 53 53 53 53 54 56 55 54 54 55 56 56 56 56 56 56
21 21 31 33 33 31 32 30 33 29 28 26 27 28 34 40 40 41 41 40 40 37 38 47 52 53 52 52 53 53 53 53 54 55 55 54 54 53 54 55 55 56 57 57
26 21 29 34 33 33 32 37 30 30 21 20 23 27 31 37 38 40 41 41 44 43 36 49 52 53 53 53 53 53 54 54 54 56 55 55 55 54 54 54 54 54 55 55
29 25 27 33 31 30 33 32 33 32 31 24 22 25 39 38 38 38 41 44 46 42 46 50 51 52 53 53 53 53 54 54 55 55 55 55 55 55 54 54 53 53 53 54
34 29 24 25 28 35 34 30 31 28 27 30 29 25 41 41 38 38 40 44 47 47 48 50 51 52 52 52 52 52 54 54 54 56 56 56 55 55 54 54 53 52 52 53
33 27 16 13 27 35 33 34 35 33 32 28 27 25 38 36 37 38 39 44 45 48 50 51 51 51 51 52 51 52 53 53 54 55 56 55 55 55 54 54 52 51 51 51
29 28 20 13 18 27 24 27 29 31 26 24 27 28 27 36 39 39 43 44 44 46 49 51 51 52 52 52 52 52 53 53 54 54 55 54 54 55 55 55 54 52 51 50
28 23 27 26 26 27 26 26 26 27 27 25 23 26 29 33 40 42 44 42 43 43 45 47 48 50 51 52 53 53 54 54 54 54 54 54 54 55 54 54 54 55 53 52
33 25 28 24 24 22 23 21 21 22 23 27 27 28 32 34 44 44 41 39 40 40 41 42 43 44 45 46 46 47 48 51 55 54 54 54 54 54 54 54 54 54 54 54
30 27 26 20 21 21 12 23 27 28 30 30 28 30 34 39 43 44 40 37 37 37 38 38 39 40 40 40 40 41 42 45 46 45 45 46 50 53 54 54 54 54 54 54
29 27 27 20 20 6 12 32 35 33 32 30 35 37 37 40 38 37 38 37 35 35 34 34 36 36 36 37 37 37 37 37 37 38 38 40 41 43 44 46 47 50 52 54
30 28 23 18 19 16 15 32 30 31 28 36 35 38 39 37 35 32 36 35 34 33 32 32 32 34 35 35 34 33 32 32 33 33 33 35 36 37 38 38 39 42 45 43
32 29 24 22 17 9 14 35 37 37 27 35 38 40 37 38 33 28 33 33 33 32 31 30 30 30 32 33 33 30 30 29 29 30 30 31 32 33 34 35 36 37 37 34
26 26 23 22 19 21 30 36 36 27 28 32 34 32 32 29 31 31 32 31 32 31 31 29 28 28 29 31 32 30 29 28 28 29 29 29 30 30 31 31 32 33 32 31
21 23 21 23 21 17 36 35 30 35 34 32 31 31 30 30 30 29 29 28 28 27 27 29 28 28 28 28 30 30 29 28 28 27 27 27 28 28 29 29 29 30 30 29
25 28 27 26 26 33 33 33 34 34 32 33 32 31 31 29 27 27 26 25 25 26 27 27 26 26 27 27 27 28 28 28 27 26 26 26 26 27 27 28 28 27 27 27
23 30 26 30 29 28 30 31 30 30 29 30 31 30 30 26 26 25 24 23 23 24 24 24 24 23 24 25 25 26 28 27 26 25 24 24 24 25 25 25 26 27 27 26
24 26 24 28 31 30 28 29 29 28 28 27 27 27 26 24 23 23 22 21 21 21 22 22 22 22 23 23 24 25 25 26 25 24 24 23 22 22 22 24 24 24 26 25
25 23 22 23 29 28 26 27 28 25 24 23 23 22 22 21 21 20 19 19 19 19 19 19 20 20 21 22 22 23 23 24 23 22 23 23 22 22 20 19 20 23 24 24

GFSCGP_sfc_30mbdewp_087.txt.gz
Dewpoint
24 22 19 18 18 13 20 21 20 20 20 18 16 17 20 23 23 24 25 26 27 28 28 29 31 46 54 57 57 58 59 59 60 60 60 59 58 59 59 60 60 60 61 62
26 21 22 21 21 20 17 15 15 20 21 24 25 25 24 24 23 23 24 26 26 27 28 30 43 51 54 55 57 57 58 58 58 59 60 60 60 60 60 60 60 60 60 62
26 26 28 20 20 18 19 18 21 22 27 28 26 21 20 22 23 24 24 26 26 26 27 29 45 51 54 55 56 56 56 56 57 57 58 59 59 59 59 59 60 60 60 61
28 28 30 26 25 25 22 26 26 29 27 19 28 15 17 22 24 25 27 28 27 27 29 31 43 51 53 54 56 56 56 56 56 57 56 56 56 56 57 59 59 58 59 60
24 30 30 28 28 28 28 33 30 29 28 27 25 24 21 22 21 24 27 28 30 31 31 32 45 51 54 55 54 55 55 55 55 57 57 56 56 57 58 59 57 56 56 56
23 33 33 31 32 33 33 29 29 30 27 23 23 22 19 21 25 33 37 36 32 31 31 37 50 53 54 54 54 55 55 55 55 56 57 56 56 57 57 57 56 55 55 56
29 28 32 33 29 33 30 28 22 22 21 17 24 23 21 26 38 40 41 41 40 38 34 48 51 52 54 54 54 55 54 54 55 56 56 56 57 57 57 56 56 55 54 55
18 19 29 33 28 28 30 28 21 13 19 21 28 22 22 39 40 41 42 43 45 46 44 46 51 53 53 53 53 54 54 53 54 55 55 56 56 57 57 56 57 57 56 55
19 23 31 32 32 32 32 28 32 28 28 23 22 26 30 38 38 38 40 42 44 46 47 43 50 53 53 53 53 53 53 53 54 54 55 55 55 56 56 57 57 57 57 57
25 25 30 32 33 33 32 35 29 29 20 19 21 22 23 36 37 38 39 41 44 47 47 42 48 53 53 53 53 53 53 53 54 54 55 54 54 54 56 56 56 57 57 57
28 25 28 33 31 30 32 31 32 32 30 23 21 20 38 37 35 38 40 42 46 47 49 49 51 52 52 53 53 53 53 52 54 54 54 55 54 54 54 54 55 56 56 57
32 26 23 25 29 34 34 30 29 26 26 29 28 24 38 31 35 39 42 43 45 46 50 51 51 51 52 52 53 53 53 53 53 54 55 55 56 55 54 54 54 55 55 56
31 25 15 27 30 34 32 34 32 30 30 26 25 23 36 26 30 36 42 43 44 44 50 51 51 51 51 52 52 53 53 55 55 54 55 55 55 55 55 55 54 54 54 54
30 27 18 9 18 25 22 26 25 28 23 19 20 21 22 23 27 35 41 42 41 41 43 48 50 51 51 52 52 52 54 54 55 55 55 55 55 55 55 55 54 53 53 53
28 22 26 25 26 26 24 24 24 23 22 19 16 18 21 26 29 39 40 39 38 38 39 42 44 47 50 52 52 52 53 54 54 54 54 53 54 55 55 55 55 54 53 52
32 25 27 19 24 23 20 20 20 20 22 22 23 25 30 33 35 40 38 36 35 35 36 38 39 41 42 44 46 46 49 54 54 54 54 55 55 55 55 55 55 55 55 53
29 28 25 17 21 20 13 20 21 22 27 29 25 27 30 36 38 39 36 35 33 33 34 35 36 37 38 39 39 41 41 42 43 43 43 46 50 50 51 54 54 55 55 55
28 26 27 18 20 1 16 21 30 31 31 31 32 34 34 38 35 35 36 34 33 32 32 32 33 35 35 35 35 36 36 36 36 37 37 39 41 42 42 43 45 47 47 44
30 28 23 19 17 14 20 32 28 30 28 33 31 33 35 35 32 31 34 33 32 31 31 31 32 33 34 32 32 32 32 32 32 32 33 34 36 37 37 38 39 41 39 36
30 29 24 22 15 6 13 32 35 36 26 31 30 29 38 35 31 26 31 32 31 31 31 30 30 30 32 32 31 30 29 29 29 30 30 32 32 33 34 35 35 34 33 32
25 24 21 20 17 19 31 34 37 25 26 30 29 28 27 24 28 29 30 29 30 30 30 30 29 28 28 31 31 29 29 28 28 29 30 30 30 31 31 31 32 32 31 29
22 22 21 20 20 16 32 33 29 32 32 31 30 29 26 26 26 26 27 27 27 27 28 28 26 26 27 28 29 28 27 27 28 28 28 28 28 29 30 29 29 29 29 28
24 26 24 27 26 30 30 29 30 31 30 30 29 29 27 25 25 25 24 24 25 25 25 26 25 25 25 26 27 27 27 26 26 26 25 25 26 26 27 28 28 28 28 27
21 26 26 26 26 26 28 29 29 28 27 28 29 27 27 24 24 23 23 22 21 22 22 22 22 22 22 24 25 26 28 26 25 24 23 24 24 24 24 25 26 26 26 26
22 25 23 26 28 28 25 26 27 26 27 26 26 25 24 23 21 21 20 20 21 20 21 21 20 20 21 22 22 23 25 25 24 23 23 22 22 22 23 23 24 24 25 24
24 22 21 20 27 23 23 25 25 23 23 24 22 20 20 19 19 19 18 18 18 18 18 18 19 19 20 20 21 21 22 23 22 22 22 22 21 20 19 19 20 22 23 23

GFSCGP_sfc_30mbdewp_090.txt.gz
Dewpoint
16 15 15 13 16 13 7 9 8 12 16 14 11 8 8 13 16 17 17 16 17 20 25 27 28 30 35 44 52 55 59 62 62 62 61 60 60 60 60 61 61 61 62 62
20 14 11 16 16 17 14 8 5 7 14 17 15 17 20 19 19 18 17 17 18 19 20 25 28 30 43 45 52 54 58 60 62 61 60 59 59 60 60 60 61 60 61 61
17 17 17 17 21 21 17 14 14 13 16 21 22 16 10 19 19 19 20 21 22 22 23 23 26 28 42 48 52 54 57 60 61 59 58 59 60 60 60 60 60 60 60 61
25 24 25 23 20 19 14 16 18 17 21 16 23 6 7 12 15 21 26 29 30 29 27 26 25 27 40 48 52 54 56 59 59 58 57 57 56 57 59 59 60 60 60 60
21 24 22 22 20 20 17 27 25 25 24 20 18 18 7 14 17 24 31 36 37 35 30 29 27 28 37 48 53 56 57 57 57 57 56 56 55 55 56 58 59 59 60 60
18 29 26 23 23 27 27 29 27 24 21 18 16 15 3 16 24 32 36 38 40 40 39 33 31 32 42 51 55 56 56 56 56 57 55 55 54 55 56 58 58 57 57 59
17 22 29 30 30 29 27 22 18 19 19 11 19 18 12 23 36 38 38 38 40 42 42 41 41 44 47 53 54 56 56 55 56 56 55 55 55 56 56 57 56 55 55 55
17 16 25 30 25 24 24 22 14 7 9 11 21 19 20 35 38 37 37 38 39 41 44 44 43 48 49 53 53 55 55 55 55 55 55 55 56 56 56 57 57 55 55 55
9 12 23 28 25 25 27 26 26 24 22 20 13 18 30 33 34 34 36 37 39 42 46 45 44 48 50 53 53 55 55 54 54 54 55 55 56 56 57 57 57 56 56 56
22 14 27 30 30 32 29 27 26 26 19 15 12 15 19 33 31 32 34 38 41 44 48 49 43 47 51 53 53 55 55 54 54 54 55 55 55 56 57 57 57 57 56 56
31 23 28 30 28 26 30 28 30 29 27 22 14 17 35 31 29 28 34 38 42 46 49 50 49 49 51 53 53 55 54 53 53 54 54 54 54 55 56 56 57 57 57 56
29 25 23 25 31 29 28 26 28 23 26 25 26 20 32 30 22 22 30 39 42 44 46 51 50 51 52 52 53 54 54 53 54 54 54 54 54 54 54 54 56 57 57 57
29 22 21 24 26 30 27 33 31 29 27 24 22 19 33 23 19 25 30 40 41 42 43 44 50 51 52 52 53 53 53 53 54 54 53 54 54 54 55 55 55 56 57 57
36 24 16 12 19 25 26 25 25 25 22 18 19 17 15 18 26 31 35 40 40 39 39 41 42 48 51 52 53 53 54 53 53 54 53 54 54 55 55 55 55 55 55 55
29 22 21 19 20 19 18 18 20 20 19 15 12 13 19 25 31 31 39 39 38 36 36 37 38 40 43 52 53 53 53 52 54 54 53 53 55 55 55 55 55 55 54 54
27 23 22 16 19 18 16 15 15 15 16 19 19 21 22 29 31 39 37 36 35 34 34 34 36 37 39 41 47 48 52 53 52 52 52 53 53 53 54 54 54 55 54 54
26 23 16 14 14 14 9 15 17 18 20 23 21 26 30 33 37 37 36 34 33 33 32 32 34 34 35 37 39 41 42 44 44 44 44 46 48 49 50 54 54 54 54 54
25 22 23 16 17 7 22 24 27 23 28 31 31 31 31 32 34 32 33 33 32 31 31 31 31 33 33 34 34 36 36 37 37 37 38 40 41 42 43 44 45 43 43 42
29 24 20 16 12 10 23 27 26 26 28 31 28 28 28 33 30 29 31 31 30 30 31 30 30 31 33 32 32 32 32 32 32 33 34 35 37 38 38 38 38 38 35 34
29 26 22 18 13 6 23 27 31 32 27 30 28 26 26 34 28 23 28 29 29 29 30 29 29 29 31 32 32 30 30 30 30 31 32 33 34 34 34 34 34 33 32 31
22 23 19 17 16 17 29 31 30 26 25 30 29 26 24 21 25 27 28 27 28 28 28 28 28 27 28 31 31 30 30 29 30 31 31 31 31 32 32 32 31 31 30 29
23 23 21 20 19 17 29 30 27 28 31 30 29 27 25 26 26 26 26 25 26 26 26 26 25 26 27 29 29 28 27 30 30 30 29 29 30 31 31 30 30 30 30 29
25 25 25 25 23 28 29 28 30 31 28 29 28 28 27 24 24 24 24 24 25 25 26 27 25 25 25 27 28 27 28 28 28 28 27 27 28 28 28 29 30 30 29 29
26 25 27 27 26 25 26 27 27 28 27 28 28 27 25 23 23 22 22 22 23 23 23 24 24 24 24 25 26 27 29 29 27 26 25 25 25 25 25 25 26 27 27 27
23 26 24 25 27 27 25 26 26 26 27 24 25 25 23 22 21 21 21 21 21 22 22 22 21 20 20 21 23 25 28 28 26 25 24 24 24 22 22 23 24 24 25 26
23 23 23 23 27 25 23 25 25 23 22 24 22 20 21 21 20 21 19 20 20 19 19 19 19 19 19 20 20 21 21 23 24 23 23 24 23 22 21 20 19 21 22 22

GFSCGP_sfc_30mbdewp_093.txt.gz
Dewpoint
20 8 8 9 10 8 7 5 4 1 0 11 12 11 7 7 7 7 9 11 11 11 14 19 22 26 26 26 34 45 52 63 64 63 62 62 63 62 63 62 63 63 63 62
17 13 9 12 11 11 12 8 12 7 2 1 3 10 10 9 10 13 14 13 12 12 13 15 17 24 28 30 35 46 51 58 63 62 62 62 61 61 61 62 62 62 62 62
14 13 13 12 10 12 13 13 10 6 7 11 12 11 12 12 13 13 13 14 17 19 19 19 19 21 28 32 39 45 50 56 62 63 62 60 61 60 60 60 60 61 61 62
11 15 14 18 12 14 14 13 11 13 12 8 18 8 9 9 9 13 18 27 32 34 33 31 25 23 25 31 42 46 50 56 61 61 58 59 58 58 59 59 60 61 61 61
7 2 14 19 16 15 16 16 14 14 16 17 16 13 9 9 6 17 26 32 34 37 36 35 29 27 25 29 41 48 50 55 59 60 57 58 58 57 57 58 59 60 60 61
15 5 16 18 22 20 17 19 22 22 21 16 15 11 6 8 19 28 33 34 36 38 39 38 34 31 26 28 45 51 52 54 57 58 57 57 56 55 53 57 59 60 60 60
13 7 28 21 18 21 21 23 19 16 12 9 9 9 9 20 31 33 33 35 37 39 41 41 39 32 30 34 48 54 54 54 56 57 57 57 56 55 54 56 58 58 58 58
14 6 19 23 21 20 20 20 14 7 8 9 12 13 9 27 32 32 35 36 37 39 44 43 41 42 41 44 54 54 53 53 55 57 57 56 55 55 55 58 58 57 56 57
13 11 15 21 20 21 20 20 19 18 21 20 19 15 29 28 33 32 32 35 37 40 44 47 45 43 46 52 54 55 54 54 55 56 56 55 55 55 57 57 57 56 56 56
31 20 22 18 20 20 22 20 21 21 14 9 6 5 24 31 29 27 27 34 37 42 45 48 49 43 48 54 54 55 55 54 54 55 55 55 55 56 57 58 57 56 56 56
30 28 23 20 20 16 20 26 23 22 17 14 10 17 32 27 23 22 25 33 38 42 44 46 50 49 49 54 54 55 55 54 54 54 54 55 54 55 57 57 57 56 56 56
27 32 25 18 21 18 21 22 25 21 21 19 24 25 30 27 20 24 29 34 38 41 42 43 45 52 53 53 54 54 55 54 54 53 54 54 54 55 55 56 57 57 55 55
31 31 27 27 29 30 23 23 22 27 27 24 18 18 27 18 20 27 29 36 38 40 40 40 41 44 51 53 53 54 54 54 54 53 54 54 54 54 54 55 57 57 56 55
33 29 28 23 21 27 27 28 27 26 22 18 18 15 16 18 24 27 36 37 38 38 37 37 38 40 43 49 53 54 54 54 53 53 53 53 54 55 55 55 56 57 57 57
32 27 24 26 23 21 23 23 22 22 22 14 14 11 15 25 30 32 37 37 37 36 34 35 36 36 38 40 44 53 54 54 54 54 53 53 54 54 55 55 55 55 56 57
34 26 17 14 14 13 14 15 15 14 14 13 15 16 28 28 32 36 37 35 34 33 33 32 34 34 35 37 39 43 49 53 53 53 53 53 53 54 54 55 55 55 55 55
30 17 13 12 10 9 8 10 12 13 19 26 23 27 27 28 32 32 32 33 32 32 32 31 31 33 33 34 36 37 41 44 45 45 45 47 49 50 50 53 52 52 54 54
30 19 20 15 14 12 20 21 20 24 29 29 28 28 27 29 30 30 30 29 29 29 29 30 30 32 32 33 34 35 35 37 38 38 39 41 43 43 43 44 42 41 40 40
26 24 16 15 10 11 21 22 23 23 29 30 28 27 27 31 27 25 28 28 28 28 28 29 30 30 31 32 32 32 32 33 33 34 35 36 37 37 37 36 36 35 34 33
24 23 23 16 8 10 26 26 29 30 24 30 28 26 26 32 27 22 27 27 27 27 27 27 29 29 30 30 31 31 30 31 31 32 33 33 34 33 33 33 32 32 31 30
20 22 20 16 14 24 26 28 28 26 23 29 28 26 25 22 24 26 28 27 28 28 27 27 27 26 28 30 30 28 29 28 30 32 33 33 33 32 32 32 31 31 30 30
23 24 23 21 18 21 27 27 25 27 31 31 28 28 25 26 27 26 27 26 27 27 26 27 25 25 27 29 29 28 27 30 31 31 31 31 32 32 32 32 32 31 31 30
24 24 25 24 23 28 27 27 29 30 29 29 28 28 27 25 24 25 25 25 25 26 27 27 26 25 26 27 29 27 28 30 30 28 28 29 30 29 29 29 30 31 30 30
28 26 28 26 27 25 26 27 28 27 27 28 28 27 26 24 24 23 23 23 23 24 24 25 24 24 24 26 26 28 30 30 29 29 27 26 25 25 27 26 25 25 28 27
24 27 26 25 27 27 25 26 27 27 27 25 26 26 25 24 22 23 22 22 23 23 24 24 23 23 23 25 25 26 29 30 28 27 28 27 25 22 21 22 23 23 24 26
25 24 24 23 28 25 23 25 26 24 24 25 24 23 24 23 23 22 20 20 19 19 20 20 21 21 21 22 23 24 26 28 27 26 26 26 25 25 23 20 19 21 22 22

GFSCGP_sfc_30mbdewp_096.txt.gz
Dewpoint
22 17 9 7 8 9 8 9 8 8 4 4 7 10 7 14 15 10 11 15 15 16 17 17 24 28 29 32 32 42 60 67 66 65 64 64 63 63 63 65 64 64 64 63
14 16 17 12 4 7 9 10 9 9 9 7 5 4 3 5 5 8 8 8 10 12 14 15 16 27 31 32 33 42 56 66 65 64 64 63 63 63 63 63 64 64 63 63
6 10 14 14 11 5 9 10 9 10 9 8 7 4 7 10 12 12 12 13 15 16 16 19 21 25 29 34 37 42 49 65 65 64 63 62 62 63 63 62 62 62 63 63
14 11 3 5 11 9 7 10 11 13 12 8 7 6 7 11 12 12 13 15 18 30 34 35 33 32 29 37 40 40 46 52 65 63 62 62 61 60 60 60 61 62 61 62
12 11 12 4 9 12 12 11 13 15 12 11 12 10 10 13 9 11 23 30 33 35 37 38 38 37 33 31 43 44 46 50 63 62 62 61 60 60 59 60 60 60 60 61
11 11 11 12 5 13 21 13 15 16 14 13 13 13 11 13 11 21 32 33 36 39 41 41 40 38 35 32 41 48 49 53 62 62 62 61 60 59 58 58 60 60 60 60
19 15 18 14 1 21 21 20 21 20 17 16 15 11 12 15 30 32 31 34 38 41 44 47 41 40 36 34 40 52 51 53 60 61 61 61 60 59 57 59 59 60 59 59
22 14 14 18 18 25 25 21 21 16 15 15 14 11 18 20 30 31 35 36 39 42 44 47 49 49 42 40 52 53 53 52 58 59 60 59 58 58 57 57 59 59 58 58
21 17 19 18 26 28 26 23 27 25 21 23 29 13 28 30 33 31 32 35 40 41 44 46 48 51 45 55 56 55 53 53 56 58 58 57 58 56 56 58 58 58 57 57
25 22 23 21 24 29 28 26 19 21 23 21 28 24 31 34 29 25 25 35 40 41 44 45 46 48 53 55 55 55 56 56 57 57 57 57 57 56 58 58 57 56 56 56
22 26 22 30 27 24 18 25 24 25 22 22 13 24 36 33 26 25 31 35 40 41 42 42 43 45 48 54 54 55 56 56 56 56 56 56 55 56 57 57 57 56 56 56
25 30 23 29 27 29 14 22 28 22 20 18 25 30 38 31 25 32 34 36 39 39 40 39 40 40 42 47 53 54 55 56 56 55 55 56 56 57 57 57 57 56 55 56
31 25 23 25 28 24 14 15 23 29 26 28 23 29 38 34 32 36 36 36 38 37 37 37 37 38 38 41 46 54 55 55 55 55 55 55 56 56 56 57 56 56 55 55
34 26 22 20 24 21 16 18 27 29 24 25 25 29 30 28 31 35 35 35 36 36 35 34 35 35 36 37 39 43 54 55 55 54 55 55 55 55 55 56 57 56 55 55
32 26 29 30 30 30 31 31 33 30 26 20 18 23 27 28 33 34 34 34 34 33 33 32 32 33 34 35 36 38 42 55 55 54 54 54 55 55 55 57 57 57 56 55
33 29 31 28 30 27 30 32 31 20 20 17 19 21 27 29 32 31 31 31 30 30 29 30 30 32 32 33 34 36 38 43 55 53 53 54 55 56 56 56 56 57 57 57
31 30 20 10 8 11 13 13 14 27 27 26 25 26 27 29 28 27 27 27 27 27 28 28 29 30 31 32 32 34 35 39 43 45 46 48 49 50 49 49 49 49 48 46
30 30 17 14 14 17 22 23 28 29 28 27 27 26 26 28 26 26 27 26 25 26 26 27 28 29 30 31 31 32 33 34 36 37 39 41 42 42 41 41 40 39 39 38
30 26 19 15 21 26 27 25 26 28 27 28 27 25 27 30 27 24 27 28 26 26 27 27 27 29 30 30 31 31 31 31 32 33 34 35 37 36 35 35 34 34 33 32
21 23 19 16 9 17 24 26 27 28 22 29 27 26 27 27 24 22 27 28 27 27 27 26 26 26 28 30 31 29 29 29 30 31 33 33 33 33 32 32 32 31 30 30
24 23 20 17 20 23 25 26 27 24 22 30 27 25 23 21 24 27 28 27 28 27 27 27 26 26 26 30 30 28 28 27 30 30 30 30 33 32 32 32 31 30 30 29
22 25 23 24 23 19 26 25 22 27 31 30 27 26 25 26 26 26 26 26 26 26 26 26 25 25 26 28 29 27 27 28 28 28 28 29 29 29 31 32 32 32 31 30
23 25 25 23 23 28 27 28 30 29 27 28 27 27 25 24 24 24 24 24 25 25 25 26 24 24 25 26 28 27 28 30 28 26 25 25 26 27 27 26 28 29 31 29
28 27 27 26 25 24 26 27 28 27 26 27 28 27 25 23 24 23 24 23 24 24 24 25 24 23 23 25 26 28 29 30 29 26 25 24 23 23 24 25 24 24 26 25
24 27 26 25 26 25 24 26 27 27 27 26 27 26 25 23 23 23 23 23 24 24 25 24 24 23 23 25 26 27 28 29 27 27 27 25 23 22 21 22 23 22 24 25
25 23 23 22 28 24 23 26 26 24 25 26 24 23 25 24 23 22 20 19 19 20 20 19 19 19 20 22 23 25 26 25 27 26 25 26 27 24 22 20 20 23 23 24

GFSCGP_sfc_30mbdewp_099.txt.gz
Dewpoint
7 14 21 14 10 10 11 13 10 10 11 13 11 7 8 9 10 9 11 14 11 16 19 18 20 27 26 29 29 52 66 66 66 65 64 64 63 64 65 64 64 64 65 64
6 6 12 21 16 11 10 8 7 8 11 11 10 8 9 8 7 7 7 8 8 9 10 12 14 16 25 30 32 51 65 66 65 65 64 64 64 64 63 65 64 63 64 64
14 10 11 11 14 16 15 10 6 7 12 12 12 11 9 9 8 7 8 4 7 9 10 11 15 16 19 30 32 58 65 66 65 65 64 63 63 63 63 63 64 64 63 63
12 14 14 13 13 8 3 12 11 7 8 11 13 10 10 7 7 8 8 12 13 14 16 27 36 37 35 33 35 58 66 65 64 64 63 62 61 60 61 62 62 63 63 63
-2 1 7 10 11 12 12 8 17 11 10 14 13 11 10 12 11 13 18 13 13 19 40 46 47 41 39 38 37 54 65 64 64 63 63 62 61 60 61 62 61 62 62 63
-6 7 15 18 19 14 11 13 20 25 17 13 15 14 12 12 13 15 33 40 43 44 46 47 48 50 51 49 38 44 62 64 63 62 62 61 60 61 59 60 60 60 61 61
16 17 18 19 17 19 20 14 19 19 19 17 16 15 15 16 16 28 40 41 43 44 45 46 47 48 50 50 45 46 51 63 62 62 62 61 61 60 59 59 59 59 59 59
19 17 19 21 20 24 18 16 22 14 16 17 18 15 15 17 23 44 42 42 43 44 44 44 45 47 48 53 48 48 58 62 62 62 61 61 61 60 59 59 59 59 59 58
19 13 19 19 25 27 26 24 22 27 24 25 24 25 30 37 39 41 41 41 41 41 42 42 43 45 45 54 55 55 55 59 61 60 61 61 61 60 59 59 59 59 59 59
24 18 16 16 28 31 27 29 24 29 21 19 27 30 29 34 36 40 40 39 39 39 39 39 40 42 43 46 53 55 56 56 58 59 59 59 58 58 58 58 58 57 57 57
22 22 19 24 26 27 30 27 28 30 24 24 23 27 33 35 40 39 38 37 37 36 36 36 37 39 40 42 44 49 55 56 57 58 57 57 57 58 58 57 56 56 56 56
29 27 22 20 22 32 31 29 29 23 21 23 26 27 36 39 40 36 36 36 35 34 34 33 34 35 37 38 39 41 47 56 57 57 57 56 57 58 57 57 56 56 56 56
30 25 18 15 26 29 28 27 27 28 31 26 24 26 38 38 34 33 33 34 33 32 32 32 32 33 34 35 37 38 40 45 56 56 56 56 56 57 57 57 56 56 56 56
33 27 21 15 18 23 26 27 27 27 24 29 29 29 31 31 30 30 30 31 30 30 29 29 30 31 32 33 34 36 38 41 47 56 56 56 56 56 57 56 56 56 56 55
31 25 26 25 24 26 27 28 32 31 32 29 27 25 30 29 28 28 28 28 27 27 27 28 28 29 30 31 33 35 36 38 42 55 55 56 55 56 56 56 56 56 55 55
32 26 31 29 32 32 30 32 32 31 30 30 28 25 30 27 26 25 25 25 25 25 26 27 27 28 29 30 31 33 34 35 38 43 51 55 55 56 56 57 57 56 55 55
30 29 28 25 30 29 27 29 26 26 26 26 23 25 28 24 23 24 24 24 24 24 25 25 26 27 29 30 31 31 32 33 34 35 39 44 47 47 47 47 46 45 43 42
31 30 30 17 18 18 27 30 28 26 25 25 24 25 27 24 25 25 26 24 23 24 24 24 25 26 28 30 30 31 31 31 31 33 33 36 39 39 39 39 38 37 36 36
33 31 24 18 24 25 23 24 25 28 24 26 24 24 28 27 27 23 26 25 25 25 26 26 26 27 28 29 30 29 29 30 30 29 31 32 33 33 33 32 33 33 32 31
28 29 25 21 20 17 23 24 26 27 19 26 24 23 21 24 17 20 25 26 25 25 26 25 26 25 26 29 28 27 26 26 28 29 29 31 32 32 31 31 30 30 30 29
22 25 23 24 21 22 24 25 25 16 20 26 25 24 23 20 22 24 25 24 25 25 25 25 24 24 26 28 27 27 26 24 26 27 29 29 30 31 32 32 31 30 29 28
22 23 21 22 18 15 25 23 19 26 28 27 26 25 23 23 23 24 24 23 24 24 24 24 23 24 25 27 28 26 26 27 26 25 24 25 27 27 29 29 30 30 29 27
21 27 22 23 20 26 26 25 27 27 26 26 26 25 23 22 22 23 23 23 23 23 24 25 23 22 24 26 27 25 27 27 26 24 23 23 24 25 25 25 27 26 27 26
24 27 24 23 24 24 26 25 26 26 26 26 26 24 24 22 23 22 22 23 23 23 22 23 22 21 22 23 25 26 28 28 28 25 23 22 22 22 23 23 24 24 24 24
24 25 25 24 24 24 24 25 26 26 26 25 26 26 24 23 22 21 21 21 21 21 21 21 20 20 20 23 23 25 26 27 26 26 26 23 22 21 21 22 23 23 25 24
25 23 23 21 25 22 23 26 26 25 25 26 24 23 24 23 22 20 19 17 17 17 17 17 17 18 18 19 21 22 25 23 24 24 25 25 25 22 21 20 20 24 25 26

GFSCGP_sfc_30mbdewp_102.txt.gz
Dewpoint
11 4 5 18 16 16 11 6 5 6 9 11 9 8 11 15 11 10 11 12 13 15 18 19 20 25 25 28 28 47 62 65 66 66 65 64 64 65 64 65 65 65 64 64
10 7 7 11 19 17 15 11 9 10 11 10 8 8 10 11 10 9 9 9 10 12 11 11 12 14 23 25 29 42 61 65 66 66 65 64 64 64 64 64 64 65 65 64
14 14 15 14 13 12 13 15 15 14 14 13 9 8 9 12 11 11 11 10 9 8 7 8 10 12 17 22 27 39 56 64 65 65 65 64 63 63 63 64 64 64 65 64
10 13 11 7 6 10 10 12 13 11 8 10 16 9 9 13 13 13 12 11 10 10 10 23 38 45 47 43 33 39 54 64 65 65 64 63 62 61 62 63 63 63 63 64
1 0 -3 -2 -1 0 3 16 15 12 11 22 14 16 12 14 12 12 12 34 38 38 44 48 48 49 50 51 50 56 59 64 64 65 64 63 62 62 62 62 62 63 63 63
3 4 1 4 16 19 19 18 16 17 21 19 18 21 14 14 15 15 40 44 45 44 45 45 47 48 49 52 55 55 64 64 64 64 63 62 62 61 61 61 61 61 62 62
14 16 17 18 18 20 19 18 14 16 17 15 16 17 15 24 25 19 39 42 43 43 43 42 44 45 46 48 53 50 64 64 64 63 62 62 61 60 60 60 60 60 60 61
18 12 17 19 16 14 14 25 17 12 14 17 18 15 23 39 41 43 43 43 40 39 39 39 41 42 43 44 47 55 60 63 63 62 62 61 61 60 60 60 60 60 59 59
19 17 20 19 18 28 24 23 24 21 19 17 24 23 33 38 39 39 39 38 37 35 35 36 37 39 41 41 43 46 55 58 62 61 61 61 60 60 60 59 59 59 59 59
22 16 17 16 20 24 28 26 21 24 14 14 22 26 30 32 37 38 35 34 34 33 32 33 35 36 37 39 41 43 46 51 58 60 61 61 60 60 59 59 59 59 58 59
21 21 16 20 22 24 29 29 27 25 25 16 19 25 32 32 33 33 34 32 31 30 30 31 32 33 35 36 37 40 42 45 50 59 59 59 59 59 59 58 58 58 57 57
29 25 19 19 21 21 29 31 27 21 16 26 26 26 33 32 32 32 30 30 29 29 28 29 30 31 32 33 34 37 39 41 44 53 57 58 58 58 57 57 56 56 56 56
27 20 17 14 25 30 30 33 33 32 32 26 25 25 33 31 29 27 27 27 27 26 27 27 28 29 30 31 33 34 37 39 41 46 57 57 58 57 57 56 56 55 55 55
32 26 20 16 16 20 22 29 32 30 26 26 24 25 27 26 25 25 25 25 25 25 25 26 27 28 29 31 32 33 35 37 39 44 56 56 57 57 57 56 55 55 55 55
31 24 26 25 24 23 23 30 31 29 30 25 24 24 25 24 24 23 23 24 24 24 24 25 26 27 28 30 31 32 33 35 37 39 43 49 57 57 57 56 55 55 56 55
27 24 28 25 28 27 27 29 27 26 28 27 25 24 25 23 21 21 22 22 22 23 23 24 25 26 27 28 29 31 32 33 35 35 36 39 45 55 56 56 56 55 52 53
26 27 27 25 29 29 21 25 24 23 24 23 21 25 22 20 20 21 21 21 21 22 23 23 24 25 27 28 28 28 30 32 32 32 33 34 37 41 43 44 43 42 41 41
28 28 30 25 27 14 25 30 25 23 23 23 23 27 22 21 23 24 24 21 21 22 22 22 24 25 28 28 27 27 27 28 30 30 31 32 33 34 35 36 35 35 35 34
33 31 27 24 22 24 24 23 23 24 20 24 22 24 25 25 20 21 24 24 22 22 23 24 25 25 26 28 27 26 25 25 26 28 29 30 32 31 31 31 31 31 31 31
32 33 29 26 19 16 22 21 24 26 16 25 23 21 20 25 15 17 22 23 23 23 24 23 24 24 25 27 27 25 24 23 23 25 27 29 30 31 31 30 30 30 29 29
22 25 21 22 20 21 22 23 25 17 18 25 23 21 20 17 20 22 23 23 24 24 23 23 22 23 25 26 26 24 23 22 24 25 25 25 26 28 30 30 30 29 29 28
22 22 19 19 15 14 24 20 18 24 26 25 23 21 20 20 21 21 22 22 22 22 22 22 21 22 23 25 25 24 25 25 25 24 23 24 24 25 26 27 28 28 27 26
20 25 21 21 18 24 25 23 26 27 25 25 22 22 21 20 20 21 21 22 21 21 21 22 20 20 22 23 24 23 26 27 25 23 22 22 23 24 25 24 24 24 25 26
23 27 21 20 22 23 25 25 25 26 25 25 24 23 22 20 20 20 20 20 20 20 20 20 19 19 19 22 23 24 25 27 26 24 23 22 21 22 23 24 24 23 23 23
23 25 23 21 23 23 24 25 25 25 25 24 25 24 22 21 20 20 19 18 18 17 16 17 17 18 18 19 21 23 24 24 24 24 25 22 21 21 21 23 24 23 25 26
26 23 22 19 24 22 22 25 25 24 24 23 22 22 23 22 21 19 16 15 14 13 14 14 14 15 17 18 18 20 22 23 23 23 23 23 24 22 21 20 20 24 25 25

GFSCGP_sfc_30mbdewp_105.txt.gz
Dewpoint
13 6 6 10 16 19 18 18 17 16 15 12 11 11 11 11 11 9 11 13 12 13 13 17 19 20 22 24 26 33 53 65 66 66 65 64 64 64 64 65 65 65 65 64
12 10 9 8 11 15 16 16 15 14 14 14 14 14 14 13 11 10 11 12 12 12 12 13 12 13 14 16 26 32 51 62 65 65 65 65 64 64 64 65 65 65 64 64
15 14 14 12 12 12 13 13 13 13 12 12 11 11 11 12 13 12 11 12 15 32 28 11 10 12 23 25 25 31 48 58 64 65 65 64 63 64 63 63 64 65 64 64
4 7 3 1 0 1 -4 2 5 7 12 10 14 10 13 16 15 16 15 37 44 44 45 45 48 49 50 51 51 45 41 58 63 65 64 63 62 61 62 63 64 65 65 64
3 3 3 1 -0 -2 -4 1 11 17 17 15 13 13 14 16 14 15 26 42 42 43 43 43 45 47 48 49 53 54 43 55 61 64 64 63 62 61 62 63 63 63 64 64
7 10 9 7 12 15 17 17 14 15 16 14 11 14 13 15 16 21 40 40 40 39 40 41 43 44 45 46 48 53 57 56 62 64 64 63 62 61 62 62 62 62 62 63
16 14 17 18 18 18 19 17 13 10 9 10 12 12 13 35 37 39 39 39 38 36 36 38 40 41 42 42 44 48 57 63 63 64 63 63 62 61 61 61 62 61 61 61
16 9 16 20 17 15 15 14 10 7 10 12 19 18 29 38 38 37 36 35 35 35 33 35 37 38 39 40 41 44 47 52 63 64 63 63 62 61 61 61 61 61 60 61
16 16 17 16 16 18 22 16 17 16 17 17 15 16 33 34 33 33 32 33 33 32 32 32 34 36 37 38 39 41 44 47 51 62 62 62 61 60 60 61 60 60 60 60
19 14 15 14 19 17 21 22 21 23 15 13 13 21 24 27 28 31 30 30 31 31 31 30 31 32 34 36 38 39 42 43 47 56 61 61 60 60 60 59 59 59 59 59
23 21 16 18 15 13 25 27 27 24 21 14 10 21 29 27 28 28 29 29 30 28 28 27 28 30 32 34 35 36 39 41 44 46 55 60 60 59 59 59 59 59 59 59
23 24 19 15 17 18 18 20 30 24 21 21 20 20 30 29 29 29 26 26 26 28 26 26 27 29 30 31 33 35 36 40 42 44 49 58 59 59 59 58 58 58 57 58
26 21 15 11 26 28 28 31 30 32 31 23 20 20 30 29 25 26 25 25 24 25 24 25 26 27 28 30 32 33 34 37 40 42 48 57 57 57 57 57 57 56 56 55
28 24 19 11 13 18 24 26 28 30 26 23 23 21 23 23 22 23 24 25 24 23 23 24 25 26 28 29 29 31 33 34 37 39 40 45 53 57 56 56 56 55 55 55
29 23 25 24 22 24 27 28 29 27 30 22 22 20 21 21 21 22 23 21 21 21 22 23 24 25 27 27 28 28 30 32 35 36 36 39 43 56 57 56 55 55 55 55
31 21 26 23 26 28 23 24 22 26 27 26 23 19 22 21 20 19 20 20 20 21 21 22 23 24 26 26 26 27 27 30 32 33 34 35 37 39 42 50 54 52 50 49
27 24 24 23 27 22 14 22 22 22 23 22 20 21 21 19 18 19 19 20 20 21 21 22 23 24 26 27 26 25 26 27 28 30 31 33 33 33 34 36 38 39 40 40
27 26 26 24 26 13 23 28 25 21 22 23 23 22 20 20 21 21 22 20 19 20 21 22 23 24 26 26 25 24 24 25 25 26 28 31 31 31 31 31 31 32 33 34
32 28 26 23 19 22 26 22 22 23 19 23 21 23 23 23 24 19 22 23 21 21 22 22 23 24 25 26 25 23 23 23 24 25 25 27 30 30 30 29 30 30 30 30
30 31 28 24 18 15 20 20 23 24 15 23 21 20 20 24 16 15 21 22 22 22 22 21 22 23 24 25 25 23 22 22 22 23 25 25 26 28 29 29 28 29 29 29
24 26 21 20 19 20 21 22 27 17 17 22 21 19 17 15 18 20 22 21 21 21 21 21 21 21 23 24 24 24 22 22 22 23 24 24 25 26 26 27 28 28 28 29
21 21 18 18 16 15 22 20 18 23 25 22 21 19 18 19 20 21 20 20 20 19 20 20 19 19 21 23 23 22 23 25 22 21 22 23 24 25 26 25 26 26 27 27
19 23 19 19 17 22 24 23 26 26 23 22 20 21 19 18 18 19 19 19 19 18 18 19 18 18 20 21 22 21 23 25 23 21 21 21 22 23 24 24 25 25 25 25
23 26 19 19 21 23 23 24 24 24 23 24 23 22 20 18 18 18 17 17 16 16 16 17 17 17 17 19 20 22 23 23 23 23 22 21 21 21 23 24 24 24 24 24
22 23 21 19 21 22 23 24 24 24 24 23 23 22 20 19 18 16 15 14 14 14 14 15 16 16 17 18 19 20 22 23 22 22 22 23 21 20 20 21 23 23 25 26
26 23 21 18 20 20 22 25 24 23 22 22 21 21 22 20 17 15 14 13 11 11 12 13 14 14 15 16 17 18 21 22 21 21 21 21 21 21 20 19 19 21 23 24

GFSCGP_sfc_30mbdewp_108.txt.gz
Dewpoint
13 9 10 15 17 17 14 16 17 17 18 17 15 13 14 15 15 14 14 14 13 12 13 14 15 16 19 23 24 26 28 47 64 65 64 64 62 64 64 64 64 65 65 64
13 10 11 7 9 11 12 12 13 15 15 13 12 9 9 11 13 14 14 14 13 14 38 44 42 28 23 20 20 24 27 30 61 62 64 64 64 64 64 64 64 65 64 64
13 15 14 12 10 11 13 13 12 8 7 8 5 6 4 8 11 14 17 17 30 40 43 44 44 46 48 49 50 47 30 34 55 62 64 64 64 64 63 63 63 64 64 64
3 7 4 2 1 1 -2 1 2 -0 -1 -2 13 3 4 8 12 13 13 16 43 42 42 42 42 43 45 46 47 49 53 42 56 63 63 62 62 61 61 62 63 63 64 64
5 4 9 7 6 2 0 2 2 3 12 15 6 5 1 7 9 23 37 40 38 38 39 39 40 40 42 43 43 45 48 53 50 62 62 63 62 61 61 63 62 63 63 64
7 13 10 9 9 12 13 15 15 14 13 8 5 2 3 15 33 35 38 37 37 36 35 36 37 38 39 40 41 43 47 55 49 61 63 63 62 61 61 62 62 62 63 63
16 13 16 18 17 17 16 13 9 8 12 6 5 7 12 32 32 32 32 33 34 33 33 34 34 35 37 39 39 41 44 50 57 61 63 63 62 61 61 61 61 61 62 62
14 6 17 18 16 15 14 13 9 6 7 10 10 10 28 33 32 34 34 33 32 30 30 31 33 33 35 37 38 39 42 45 49 61 62 63 62 62 61 61 61 61 61 61
11 16 17 13 13 15 17 13 13 10 10 11 14 18 30 27 28 30 31 31 30 29 29 29 30 32 33 35 37 39 40 42 46 50 62 63 62 62 61 61 61 61 61 61
20 14 13 14 18 18 17 22 18 20 13 13 13 19 21 24 26 27 28 28 27 28 28 29 29 31 32 33 35 38 39 41 43 46 51 62 61 61 60 60 61 61 60 60
22 20 13 18 15 10 20 22 20 19 21 16 12 18 28 25 26 25 26 27 27 27 27 27 28 30 31 32 33 35 37 39 41 44 48 58 60 60 60 60 60 60 59 59
22 23 18 15 17 22 17 19 20 18 22 22 19 19 29 27 26 25 23 24 24 27 26 27 28 28 29 29 31 31 35 37 39 43 47 58 59 59 59 58 58 58 58 58
26 21 14 10 24 28 25 29 30 28 27 25 19 19 27 26 21 21 22 23 23 23 24 24 24 25 27 27 29 29 31 34 37 39 42 46 50 58 58 57 57 57 57 57
27 22 16 7 7 13 20 24 28 27 22 22 21 20 21 21 19 19 21 22 23 23 23 23 23 24 26 26 27 28 28 31 34 36 38 39 41 49 56 56 56 56 56 56
27 22 23 23 21 23 26 24 24 28 28 23 21 18 19 20 20 20 22 21 21 21 21 22 22 24 25 25 25 25 27 28 31 34 34 35 37 39 44 51 55 55 55 55
31 22 25 21 23 27 21 23 22 21 24 22 20 17 22 22 22 20 19 19 19 20 20 21 21 23 25 24 24 24 25 27 28 31 32 33 34 34 35 36 38 39 40 41
27 25 22 20 24 23 17 21 21 20 21 23 19 20 22 19 18 18 18 19 19 20 20 20 21 23 25 25 25 24 24 26 26 27 29 31 32 32 32 32 32 33 33 34
27 25 25 21 23 13 21 27 23 19 20 22 21 21 21 19 20 20 21 20 19 19 19 20 21 22 24 26 24 24 23 23 24 25 27 28 30 31 31 30 30 30 30 30
30 27 23 22 18 20 23 21 21 22 18 21 21 22 23 22 24 18 21 21 20 20 20 20 22 22 23 24 26 23 22 21 22 23 25 26 27 27 29 29 29 29 28 28
31 31 26 24 17 14 19 20 23 25 15 22 20 20 19 24 16 15 20 20 20 20 20 19 20 20 21 23 24 23 21 21 20 22 24 25 26 26 26 27 28 30 29 29
24 25 21 22 18 19 20 22 26 18 17 21 19 18 18 15 17 19 20 19 20 19 19 18 19 19 20 22 23 22 22 21 21 22 23 24 25 26 27 27 27 28 28 28
19 19 17 19 18 15 21 22 20 22 23 21 19 18 17 18 18 18 18 17 17 16 17 17 17 18 19 21 22 21 21 24 22 21 21 21 23 24 24 25 26 27 27 26
19 20 18 18 17 22 23 23 25 24 22 21 19 19 17 16 16 16 16 16 15 15 15 16 16 16 17 19 20 20 22 23 22 22 21 20 20 21 23 23 23 24 24 24
24 25 18 18 21 21 22 23 24 23 22 22 21 20 18 16 16 14 13 13 14 14 15 16 16 15 16 17 18 20 22 22 21 21 21 21 20 20 21 21 22 22 23 22
22 23 19 18 21 21 21 22 22 23 22 21 21 20 19 16 15 13 11 11 11 13 13 14 14 14 14 16 16 18 20 20 20 19 19 18 18 17 18 20 21 21 23 23
26 22 19 16 19 19 20 23 23 21 21 21 20 20 20 17 15 14 12 11 10 10 12 11 11 12 13 14 15 16 18 18 18 17 17 15 14 15 15 15 15 18 19 20

GFSCGP_sfc_30mbdewp_111.txt.gz
Dewpoint
13 11 12 12 17 17 16 13 13 16 15 17 15 10 7 9 9 11 13 11 13 15 16 19 39 45 41 33 31 29 30 36 49 60 62 62 62 63 63 64 63 63 64 64
13 11 12 10 11 12 12 11 11 13 15 10 3 1 1 4 10 7 8 12 14 18 27 41 44 45 46 48 49 49 47 35 36 53 60 61 61 62 63 63 63 63 64 64
10 12 14 12 11 10 11 10 8 4 5 3 1 -0 -0 0 4 10 25 38 40 40 40 41 41 42 43 44 45 46 48 50 50 38 56 61 62 63 63 63 63 63 64 64
12 8 7 5 2 3 1 5 3 3 1 -4 6 -3 -0 2 10 34 37 37 36 36 36 36 37 38 40 42 43 44 45 47 49 51 46 59 59 59 60 62 63 63 64 63
7 6 9 8 7 4 6 6 8 9 8 10 6 6 -1 1 20 31 32 32 33 32 32 33 33 35 36 38 39 41 43 46 49 52 51 59 60 60 60 62 63 63 63 63
8 16 12 10 10 11 16 16 15 16 13 3 2 2 0 25 30 31 31 31 31 30 30 30 31 32 34 35 37 39 41 43 48 54 53 59 60 60 60 62 62 62 63 63
13 10 17 19 15 18 14 11 8 6 10 2 10 8 10 31 32 31 30 30 30 28 28 29 29 31 32 34 36 37 40 41 45 50 53 59 61 61 61 61 61 61 61 62
7 2 17 18 16 12 12 11 5 2 3 5 6 1 19 29 29 29 29 28 27 27 27 28 28 30 31 33 35 36 39 41 44 47 53 58 60 60 62 61 61 61 61 61
8 12 18 17 14 12 15 13 13 9 8 7 5 17 27 26 26 26 27 26 26 27 27 28 28 29 30 31 33 35 38 40 42 45 49 58 60 61 61 62 62 62 62 62
17 13 15 13 18 18 13 18 17 15 12 10 11 12 21 24 24 24 24 25 25 26 26 27 27 29 29 31 32 34 36 38 41 43 47 51 62 62 62 62 62 62 62 61
21 15 10 17 14 12 19 17 17 16 14 15 13 18 27 24 24 23 23 24 25 26 25 26 27 28 30 31 31 31 32 35 39 41 44 51 61 61 61 61 62 62 61 61
22 23 17 15 17 24 18 17 24 18 16 21 21 19 26 25 24 24 21 23 23 26 26 26 26 27 28 28 29 30 31 32 36 40 42 45 50 60 60 60 60 60 60 61
27 21 12 14 25 27 21 23 27 28 24 18 17 19 24 24 22 21 21 21 21 22 24 24 25 25 26 26 27 28 29 31 33 37 39 41 43 48 58 58 58 58 58 58
28 22 15 2 1 10 18 22 25 27 21 17 22 19 19 20 19 19 20 20 22 22 22 22 22 24 24 24 25 26 27 30 31 34 36 37 38 40 45 54 55 56 57 57
26 20 21 21 20 21 25 24 24 20 23 22 20 17 19 20 19 19 19 20 20 20 20 21 22 23 24 24 24 24 25 27 30 31 32 34 36 35 38 39 42 43 43 43
30 22 25 20 21 24 21 23 23 21 23 21 19 17 20 20 19 18 19 19 18 19 20 21 21 22 23 24 24 23 24 26 27 29 30 32 34 34 33 34 35 36 36 36
27 25 22 19 23 22 19 21 21 21 22 24 20 19 20 18 17 17 18 19 18 19 19 20 21 22 23 24 25 24 24 25 25 26 28 30 30 32 32 32 32 31 32 32
27 26 25 20 22 15 22 26 22 19 20 21 20 20 20 19 19 20 20 19 18 18 18 19 19 20 22 23 25 23 22 23 24 24 26 27 28 29 31 31 30 31 30 30
30 27 22 21 19 20 22 23 23 21 18 21 21 22 22 22 24 18 19 20 19 18 19 19 21 21 21 23 24 23 22 21 21 22 24 26 27 27 28 28 29 30 29 28
31 30 23 22 17 14 20 20 23 25 17 21 20 20 23 23 17 15 19 19 18 18 19 18 20 20 20 22 23 22 22 21 21 22 23 24 26 26 27 28 29 30 29 28
24 25 22 23 18 18 20 21 26 19 19 20 18 19 20 17 17 18 19 17 18 17 17 17 18 18 19 21 22 21 22 22 22 22 22 22 24 25 26 27 28 29 29 28
20 19 18 21 17 16 21 24 22 22 22 19 18 18 17 17 17 17 17 16 16 16 16 16 16 17 18 19 20 20 21 22 22 21 21 22 23 24 24 25 25 25 26 26
20 21 18 18 17 21 23 24 25 22 20 19 18 18 17 16 16 16 16 16 15 16 16 16 16 15 16 17 19 18 21 20 19 19 19 20 21 22 23 23 23 23 23 23
24 25 18 18 20 20 22 23 23 22 21 21 20 18 17 15 14 13 14 14 14 14 15 15 15 14 14 16 17 19 19 20 18 16 16 18 19 19 20 21 21 21 21 21
23 23 19 18 20 20 21 22 22 22 21 20 20 19 17 15 13 11 11 13 13 13 14 14 14 14 14 15 16 18 19 18 17 15 14 15 16 17 16 18 20 20 21 21
26 21 18 17 19 19 19 22 22 21 20 20 19 18 16 14 12 10 9 8 9 9 9 10 11 12 13 13 14 15 15 15 14 13 11 12 13 13 13 13 12 14 14 16

GFSCGP_sfc_30mbdewp_114.txt.gz
Dewpoint
16 12 10 8 10 10 9 7 4 3 8 10 8 6 2 -1 -1 -0 1 5 6 21 33 37 40 41 42 43 44 45 47 47 38 37 51 54 59 61 61 62 62 62 64 65
15 10 11 13 12 10 9 6 4 6 11 7 0 -3 -4 -4 0 5 5 21 34 35 36 37 38 40 41 42 43 45 45 46 48 42 36 51 54 58 59 61 63 63 64 64
7 4 13 11 9 10 8 8 6 5 1 -0 -2 -5 -7 1 3 19 33 33 33 34 34 35 36 37 38 39 41 42 43 44 45 47 48 38 53 55 57 61 63 64 63 63
8 7 11 10 9 8 4 5 3 2 1 -5 -1 -4 1 -1 8 26 29 31 32 32 31 31 32 34 35 36 38 40 42 43 44 46 47 47 42 51 56 59 62 63 64 64
7 8 9 9 8 7 4 8 7 7 5 5 2 1 2 -3 4 26 31 32 31 31 30 30 30 31 33 35 36 38 40 41 43 46 47 49 45 50 53 57 59 61 63 64
9 12 9 8 9 9 9 9 7 8 7 3 1 -2 -1 11 28 30 31 30 30 29 29 29 30 30 31 33 34 35 37 38 40 43 46 49 52 49 52 53 58 60 63 63
8 9 11 14 8 12 12 8 1 1 8 2 3 4 -1 28 29 28 28 28 28 28 28 28 29 29 30 31 32 33 34 36 37 41 44 48 52 53 55 53 57 59 62 62
4 2 10 16 11 8 12 10 1 -9 -9 -6 7 3 9 28 27 27 27 27 27 27 27 27 28 29 29 30 31 32 33 34 36 40 43 46 51 54 55 56 55 58 61 61
5 2 13 17 15 12 8 9 8 5 6 5 3 2 23 26 26 25 25 26 26 26 26 26 27 28 28 28 29 31 32 33 35 39 42 46 51 57 57 57 58 59 61 61
10 4 8 12 15 13 9 13 14 10 9 6 4 6 20 25 25 25 25 24 25 25 25 26 26 27 28 28 29 30 31 32 34 38 42 45 51 57 58 60 61 60 62 62
15 12 6 13 10 7 13 12 13 15 14 12 11 20 27 25 25 23 23 23 25 25 25 26 27 27 28 28 28 29 30 31 33 38 42 45 50 59 60 61 61 61 62 61
16 18 12 11 15 18 13 12 14 14 15 15 18 17 25 24 23 23 21 22 22 24 25 26 26 26 27 27 27 28 29 31 32 36 41 42 45 50 61 60 61 62 61 62
22 16 11 14 26 25 26 20 16 22 25 18 17 19 25 25 22 22 22 21 22 23 24 25 25 25 25 26 26 26 27 30 32 34 37 40 40 42 45 56 59 60 60 60
26 19 15 7 5 10 15 23 25 25 21 17 21 22 21 22 21 21 21 22 23 24 24 24 24 24 25 26 26 25 26 28 30 32 33 36 36 38 40 42 45 46 50 55
25 17 19 20 18 18 20 22 23 23 22 21 23 20 20 21 21 21 23 22 22 22 22 23 23 24 25 26 25 25 25 27 29 30 31 32 35 35 35 36 38 39 40 40
23 18 24 21 22 22 25 23 25 24 22 23 22 18 23 20 22 21 21 21 20 21 21 22 23 24 24 25 26 25 25 26 27 28 29 30 32 32 33 33 34 33 34 34
29 24 23 20 21 23 20 23 23 23 24 25 23 21 23 20 19 19 20 21 20 20 21 21 23 23 24 26 27 26 26 27 26 26 27 28 30 31 31 32 31 30 31 31
28 26 25 19 23 16 23 27 24 21 23 24 23 21 20 20 20 21 21 20 19 19 20 20 21 22 23 24 25 24 24 24 25 25 27 28 28 28 30 30 29 30 30 29
31 28 23 20 18 21 23 25 24 24 20 21 21 21 21 21 22 20 20 21 20 20 20 20 21 21 22 24 24 24 24 23 23 24 25 27 28 28 28 28 29 29 28 28
31 30 26 20 16 15 21 21 24 24 20 22 22 22 23 22 21 19 20 20 20 19 19 19 19 19 20 22 22 23 23 23 23 24 25 26 27 28 28 28 29 30 30 29
26 27 21 20 21 19 20 22 25 20 21 22 22 24 24 22 21 20 20 19 19 18 18 18 17 18 19 20 20 20 20 21 22 23 24 25 26 26 27 27 28 28 28 28
23 22 22 22 20 17 22 24 23 23 23 22 23 23 21 20 20 19 18 17 17 17 17 16 16 17 18 20 20 18 19 19 20 22 23 23 24 25 25 25 26 26 26 26
22 24 22 21 20 22 25 25 25 24 23 22 22 21 20 20 20 19 18 17 17 17 17 17 16 16 18 19 19 18 19 19 18 20 20 21 22 22 23 23 22 22 23 23
25 27 22 21 20 21 23 24 24 23 23 22 21 20 20 19 18 18 17 16 15 15 15 15 14 15 16 18 18 18 19 20 18 17 17 18 18 19 19 20 20 19 20 20
25 25 22 20 21 21 23 24 23 23 23 22 21 20 19 17 16 16 15 15 14 13 13 13 13 12 13 14 15 16 16 16 15 14 15 15 14 15 15 16 14 15 16 17
25 24 21 23 21 23 22 24 23 22 21 21 20 18 16 14 12 11 9 7 5 5 6 6 7 8 8 9 11 11 11 12 12 11 11 12 12 12 12 12 13 13 12 12

GFSCGP_sfc_30mbdewp_117.txt.gz
Dewpoint
11 10 9 9 9 8 9 9 5 2 1 0 3 6 3 1 -1 -2 -2 -1 1 17 32 34 35 37 39 41 41 41 43 45 46 46 37 42 55 58 61 64 63 62 63 66
12 13 13 9 8 11 11 6 3 3 2 5 6 4 -1 -2 -2 -2 1 4 26 31 30 32 33 35 37 38 40 42 42 42 44 44 45 41 42 51 58 60 62 64 64 65
9 12 9 9 9 9 6 4 4 4 5 3 -0 -1 0 2 1 2 24 28 28 29 31 31 31 32 34 35 38 39 40 41 43 44 45 45 47 44 53 59 60 62 64 65
6 7 7 6 8 7 3 4 4 4 3 2 6 3 5 6 4 13 25 29 31 31 30 30 31 31 32 33 36 37 38 40 41 43 44 45 45 43 45 56 60 60 64 64
7 5 9 6 4 7 7 7 7 6 5 5 4 2 4 6 3 18 28 29 29 29 29 29 30 30 31 31 33 35 37 38 40 42 43 45 46 47 48 47 57 60 62 64
10 10 9 7 7 8 8 7 8 7 6 4 6 4 3 16 26 26 27 28 28 28 28 28 28 29 29 31 31 33 35 36 38 39 41 43 45 47 48 50 51 58 60 62
9 9 9 11 9 9 10 10 7 6 5 4 7 4 2 24 26 26 26 27 28 28 27 27 27 28 28 29 30 31 32 33 35 37 39 40 43 46 48 50 52 56 59 61
10 11 9 10 12 6 5 8 7 3 2 1 -1 1 13 25 25 26 27 27 27 27 27 27 27 27 27 28 29 29 30 31 33 34 36 38 41 44 47 49 52 54 57 60
5 4 9 13 11 11 4 4 8 6 6 5 3 1 19 26 27 26 26 26 26 26 27 26 26 26 26 28 28 29 29 30 31 33 35 37 40 43 46 50 54 55 57 59
9 6 5 5 12 12 10 7 7 8 7 4 2 2 20 26 25 25 26 25 25 26 26 26 26 26 27 29 29 28 28 29 30 32 34 37 40 44 47 52 55 57 58 59
7 11 7 7 7 7 6 9 8 8 15 12 11 22 27 24 25 25 24 24 25 26 25 28 28 27 28 28 28 27 28 28 30 32 35 37 42 45 48 55 58 59 58 58
12 15 10 5 6 10 10 9 10 11 9 17 11 14 25 25 25 24 24 26 23 24 24 27 28 28 28 28 28 28 28 28 30 32 34 39 40 43 46 52 57 58 58 58
15 12 8 8 13 21 22 18 11 16 21 18 19 19 25 25 23 23 24 24 24 24 24 24 26 27 28 28 28 27 28 28 30 32 33 36 37 39 39 42 45 48 57 57
21 19 15 11 18 17 19 19 20 17 16 14 16 25 24 24 23 23 25 26 26 24 24 24 25 27 28 29 28 28 27 28 29 31 31 33 34 35 36 37 38 40 42 42
18 17 16 17 16 15 15 17 21 23 23 23 22 23 22 23 23 24 25 25 24 24 23 24 25 26 27 28 29 30 28 28 29 29 30 31 32 33 33 33 33 35 35 36
20 18 22 20 20 21 22 23 23 25 26 23 25 22 25 25 25 24 24 24 22 22 22 23 24 24 25 27 29 30 29 28 29 29 29 30 31 30 31 31 30 31 31 32
20 23 23 19 20 21 22 25 24 27 24 27 22 23 25 23 22 22 22 23 21 21 21 20 22 23 24 26 27 28 29 29 28 28 29 29 29 29 30 30 29 29 29 29
27 28 25 20 21 16 24 27 26 26 26 25 23 25 24 21 23 23 23 22 20 20 20 20 21 21 23 23 24 24 24 25 25 26 27 29 29 29 30 29 29 29 29 28
30 29 25 20 18 22 23 25 24 24 22 27 23 22 22 22 22 22 22 21 20 19 19 19 19 19 20 21 21 22 23 23 24 25 26 27 28 28 28 29 29 30 30 29
27 29 26 23 17 16 23 24 24 24 21 23 23 22 22 22 25 21 21 20 19 18 18 18 18 18 19 21 18 21 21 22 23 25 25 26 26 27 27 28 29 30 30 30
26 27 23 20 21 22 21 22 25 21 22 24 24 25 24 24 24 22 21 19 19 18 17 18 18 18 20 21 21 20 19 20 23 23 24 24 25 25 25 26 26 27 27 27
22 24 24 21 23 21 23 24 23 26 26 25 27 28 24 22 21 20 19 18 18 17 17 17 17 19 20 20 20 20 20 21 22 22 22 23 22 24 23 22 23 24 23 24
22 25 26 23 22 24 26 28 27 26 26 26 25 24 23 21 21 20 18 17 17 17 18 17 18 18 19 20 20 18 20 21 20 21 21 21 23 20 21 21 19 19 21 20
25 26 24 22 22 23 25 25 25 26 25 25 24 23 22 21 20 19 18 16 15 15 15 14 13 15 17 18 18 19 18 20 20 19 20 21 20 22 20 18 18 16 16 17
27 25 24 22 22 22 25 25 26 25 24 23 23 23 22 20 19 18 18 16 14 13 13 11 11 10 10 13 14 16 17 17 18 18 19 19 17 19 19 18 16 15 15 14
26 27 24 27 23 24 24 25 25 24 23 23 22 20 20 19 17 14 10 5 3 3 3 3 4 4 4 8 10 10 11 13 13 13 14 15 15 15 15 15 16 16 15 14

GFSCGP_sfc_30mbdewp_120.txt.gz
Dewpoint
16 14 11 11 12 12 11 10 9 10 11 6 6 4 3 5 8 5 4 2 8 9 31 32 34 34 35 37 39 40 42 44 45 45 47 47 45 47 62 64 64 64 65 67
13 12 13 15 15 13 9 9 11 11 7 6 4 4 5 7 5 4 3 11 27 29 30 31 32 33 35 35 36 37 39 41 42 43 45 46 48 48 50 60 63 64 65 65
16 16 16 14 10 8 9 10 11 7 6 5 5 5 5 6 8 7 18 27 30 30 30 30 30 32 33 33 34 35 37 39 40 42 43 44 45 46 46 47 53 63 64 64
12 13 11 11 9 9 7 9 7 6 6 4 6 3 5 6 6 10 27 30 29 29 29 29 29 30 31 31 33 34 35 36 37 40 41 43 44 46 48 49 50 59 63 63
12 10 8 6 7 9 6 7 9 8 7 7 6 5 8 11 10 28 28 28 28 28 29 28 28 28 29 30 31 32 33 33 34 37 39 40 42 44 47 48 49 51 56 62
7 7 9 8 9 8 8 8 7 7 7 7 7 7 6 18 25 26 26 26 27 28 28 28 27 28 28 28 29 30 30 31 32 34 36 38 39 40 43 46 48 50 54 58
10 10 10 10 9 10 9 9 8 8 9 8 10 8 22 25 25 25 26 27 27 27 27 27 27 27 27 27 27 28 29 29 30 31 33 35 36 38 40 42 45 48 51 54
8 9 12 13 11 10 10 7 7 5 8 9 9 5 19 24 26 27 27 26 26 26 26 27 27 26 27 27 27 28 28 29 29 30 32 33 35 36 38 40 43 47 50 52
11 10 8 10 12 11 9 6 6 6 7 7 7 6 25 28 26 26 26 26 26 26 26 26 26 27 27 27 27 28 29 28 29 30 31 33 34 36 38 40 43 46 48 52
13 10 11 11 9 10 10 10 8 8 6 5 5 10 23 26 25 26 26 26 25 26 26 27 28 28 28 29 29 30 29 29 30 30 32 33 36 37 39 41 43 45 47 52
9 7 7 10 9 6 8 9 10 8 7 7 9 17 28 26 26 26 24 25 25 26 27 28 29 29 30 30 31 30 29 29 29 30 33 34 37 39 42 44 46 46 49 51
12 12 12 12 11 9 7 5 7 13 12 7 10 19 26 26 25 24 24 25 24 26 27 29 29 29 30 30 31 30 30 29 30 31 32 34 36 37 38 40 43 49 51 53
14 12 10 7 8 8 4 12 15 13 21 17 15 20 26 25 23 24 24 25 24 26 27 27 28 28 28 29 30 30 30 29 30 31 32 32 33 34 35 35 38 39 40 43
21 17 16 10 16 18 20 28 21 17 14 15 16 23 24 23 23 24 24 25 25 26 26 25 26 27 28 29 30 30 29 30 30 30 30 30 31 32 33 34 33 34 35 35
17 15 16 17 14 11 14 15 15 19 20 20 24 25 23 24 24 25 25 25 24 24 23 24 25 26 26 27 29 31 29 29 30 29 29 30 31 31 31 31 32 32 32 32
18 15 20 19 17 17 17 19 18 21 25 26 26 24 24 26 27 24 24 24 22 23 23 23 23 22 24 25 27 28 29 28 29 28 29 30 30 30 30 29 29 30 30 31
19 23 20 16 20 22 19 24 26 26 26 24 22 24 25 24 23 23 23 23 22 20 19 19 20 20 22 21 23 23 24 26 26 28 28 29 29 29 30 30 29 29 29 29
23 24 21 20 21 16 24 27 25 25 26 30 24 25 26 23 24 24 24 21 19 18 18 18 19 19 20 20 20 21 21 23 24 25 26 26 28 28 29 29 29 29 29 28
28 26 24 21 17 24 23 24 25 24 25 26 25 25 24 23 22 22 21 19 19 19 19 19 19 18 20 21 20 20 21 21 22 22 23 24 24 25 26 27 28 29 29 28
29 29 26 20 21 18 24 24 26 26 21 27 24 23 22 23 22 21 21 19 19 19 19 19 20 20 21 22 21 20 20 22 22 23 21 22 23 21 23 25 25 26 27 28
25 27 23 20 20 24 23 24 25 21 23 26 24 24 24 24 25 23 20 19 19 19 19 19 20 20 21 21 20 20 20 21 23 22 24 20 21 21 19 21 22 23 23 22
22 22 21 21 22 20 22 23 23 27 27 27 29 28 25 23 22 21 20 19 19 19 19 19 19 19 20 20 19 19 20 21 22 22 21 23 21 20 19 17 18 19 20 21
24 27 26 25 24 25 27 30 29 28 29 29 27 25 23 22 20 20 19 18 18 18 18 19 18 18 19 19 19 18 18 22 20 21 21 21 23 21 20 17 15 15 16 16
26 27 25 23 23 24 26 26 27 28 28 27 26 24 23 22 21 20 18 15 14 14 14 14 14 15 15 18 17 18 19 19 21 19 21 21 20 21 19 19 17 15 14 14
28 26 24 24 24 23 25 28 27 27 27 25 25 24 23 21 20 20 18 16 16 15 13 11 10 9 12 14 14 15 17 18 18 19 18 20 19 19 21 20 18 17 16 14
28 27 24 26 25 25 26 28 27 25 25 24 23 22 21 20 19 17 13 7 4 4 3 4 4 5 7 10 12 13 14 15 15 17 17 17 18 18 18 18 19 19 19 15

GFSCGP_sfc_30mbdewp_123.txt.gz
Dewpoint
17 16 14 12 11 11 11 13 11 11 14 12 9 7 7 7 8 8 9 14 29 31 31 32 33 33 33 33 34 35 35 37 39 40 41 42 43 45 46 50 52 64 63 64
13 15 16 16 15 14 16 12 10 11 13 12 9 7 6 7 8 10 19 30 30 30 30 30 30 31 31 32 32 33 33 34 35 37 39 40 41 43 45 47 50 51 57 65
15 15 18 16 15 14 12 9 9 9 10 8 7 6 7 8 8 30 29 29 29 29 29 29 29 29 29 29 30 31 31 32 33 34 35 38 40 41 43 45 48 50 53 60
16 17 17 13 11 11 8 10 10 10 8 6 9 5 8 8 17 29 28 28 28 28 28 28 27 27 28 28 28 29 29 30 30 32 32 33 35 38 40 42 45 47 50 53
16 13 12 10 10 9 9 11 9 9 7 7 6 7 7 9 25 26 26 27 27 27 27 27 27 27 27 27 27 28 28 29 29 29 30 31 32 36 38 39 41 43 46 50
15 11 8 8 10 10 11 9 10 10 10 6 7 7 12 25 25 26 27 27 27 27 27 27 27 27 26 26 26 27 27 28 28 29 29 30 31 32 34 36 38 40 43 46
11 11 11 8 10 10 10 9 7 9 10 8 10 10 27 26 27 26 27 27 26 27 26 26 26 26 26 26 26 27 27 27 28 28 28 29 30 31 33 34 36 38 41 44
10 9 11 13 11 9 11 11 9 11 9 9 9 9 24 26 27 27 27 27 27 27 26 27 27 27 27 27 28 28 29 28 28 28 29 29 30 32 33 34 36 37 39 42
10 10 13 11 12 12 11 9 11 8 9 7 8 21 28 27 26 27 26 26 26 27 27 28 27 27 28 28 29 30 30 29 29 29 31 31 32 33 34 35 36 37 39 41
14 12 13 11 12 12 10 11 9 11 6 6 7 13 23 26 26 28 26 26 27 27 27 27 27 27 28 29 30 32 30 29 29 30 32 33 34 36 37 38 38 39 41 42
11 11 10 10 9 10 10 9 12 11 10 7 6 9 27 25 26 25 24 25 26 27 27 27 27 28 28 30 30 31 30 29 29 31 32 33 34 35 36 37 39 41 43 44
15 15 12 13 14 15 13 9 11 10 9 10 11 14 27 26 26 24 23 24 25 26 26 27 27 27 27 29 29 30 29 29 30 31 32 32 32 33 34 34 36 38 40 45
17 13 10 11 13 19 21 24 26 23 20 14 16 17 29 28 24 24 24 24 24 24 24 25 26 25 26 28 28 30 29 29 30 31 31 31 31 31 32 33 33 34 35 36
18 18 14 9 14 17 13 15 19 26 24 18 18 20 25 24 22 23 24 24 24 24 24 24 24 24 25 27 27 29 28 29 29 29 30 30 30 31 31 31 31 32 32 32
18 16 17 17 18 16 17 14 13 17 19 19 22 25 24 24 24 25 24 24 23 22 22 23 23 23 24 24 24 26 26 27 28 28 28 29 30 31 31 30 30 29 30 31
21 15 19 18 19 19 19 19 19 17 18 23 26 24 25 26 26 24 24 23 22 21 19 20 20 19 20 20 20 21 22 25 25 26 26 27 28 29 30 30 29 28 28 29
20 18 19 15 19 23 19 18 20 20 22 25 24 25 25 24 23 23 23 22 20 19 18 18 18 19 20 21 20 20 21 22 21 22 23 23 26 26 28 29 29 27 27 27
21 21 21 18 19 16 21 27 26 27 26 26 25 25 24 23 23 23 24 20 18 18 18 18 19 19 20 21 21 20 21 21 21 18 21 20 21 22 24 25 26 28 26 25
24 22 19 19 19 20 24 24 25 23 24 26 25 25 23 23 22 22 20 20 19 19 19 19 20 20 20 21 21 20 21 21 21 19 18 19 17 20 21 22 23 23 24 23
26 24 20 23 20 17 25 26 26 26 21 29 27 24 23 22 21 19 20 19 18 19 19 19 20 20 20 20 20 20 19 21 21 23 20 19 17 16 17 19 20 22 20 20
27 26 22 21 20 22 24 25 27 21 21 27 26 24 23 23 24 22 20 19 19 18 17 19 19 18 19 19 18 18 19 19 21 21 23 20 20 17 16 16 17 18 19 17
23 22 22 22 21 18 26 24 23 26 29 27 26 25 24 23 21 20 19 19 19 19 16 17 16 17 17 17 18 16 17 19 19 21 21 20 20 19 17 16 15 15 15 15
22 24 23 25 23 26 28 29 29 30 29 27 26 25 23 20 19 19 19 19 18 17 18 16 14 15 17 15 16 16 17 19 17 19 19 20 18 19 18 16 15 14 14 14
27 27 26 23 26 26 27 28 30 30 28 26 25 23 21 19 20 19 18 18 16 14 16 17 13 13 13 14 14 16 17 18 19 17 19 19 20 18 18 17 16 16 14 13
28 26 25 24 24 24 25 29 28 28 27 25 24 22 21 21 19 18 16 16 14 13 12 11 12 12 13 14 15 16 17 18 18 19 18 19 19 19 19 20 18 17 17 14
28 26 23 21 24 23 26 28 27 26 25 25 24 22 21 21 19 18 16 16 15 13 8 7 8 10 11 12 14 16 17 16 17 18 18 17 18 18 18 17 16 21 19 18

GFSCGP_sfc_30mbdewp_126.txt.gz
Dewpoint
17 15 14 15 13 11 10 10 10 13 12 12 12 11 8 7 18 26 30 30 30 29 29 29 29 29 29 29 29 30 30 31 32 33 33 34 36 38 41 43 45 50 53 55
10 13 16 17 17 16 15 14 14 11 12 11 9 8 7 19 29 29 29 28 28 28 28 27 28 28 28 28 28 28 28 29 30 31 32 33 34 36 38 41 43 46 48 50
11 11 15 16 16 15 15 14 11 10 10 9 8 7 8 23 28 28 28 28 27 27 27 27 27 27 27 27 27 27 27 27 29 30 29 30 31 32 34 37 39 42 44 45
17 17 17 17 17 14 9 11 11 9 7 6 8 5 7 22 26 27 27 27 27 27 27 27 26 26 26 26 26 27 27 27 28 29 28 29 29 29 31 33 36 38 41 43
17 16 14 12 11 10 10 10 9 9 8 8 7 5 6 22 25 26 26 26 26 26 26 26 26 25 26 26 27 27 27 27 28 28 28 28 28 29 30 32 33 35 37 39
17 17 14 12 11 11 11 9 11 11 9 6 7 7 7 24 25 26 26 26 26 26 26 27 26 26 27 28 28 28 28 28 28 28 28 28 28 28 29 30 31 33 35 38
11 10 11 11 8 10 10 9 7 6 8 7 11 9 23 26 27 26 26 26 26 26 27 27 26 26 27 27 27 27 28 28 28 27 28 28 29 29 29 30 31 32 33 35
9 9 11 12 11 9 10 10 8 7 10 10 12 8 23 26 27 27 27 27 27 27 26 27 27 26 27 27 27 29 29 28 27 27 28 29 32 32 32 33 33 34 35 36
11 10 14 11 11 13 11 9 12 9 11 10 11 25 26 27 27 28 27 27 26 26 26 26 26 26 26 26 28 31 29 28 27 28 30 31 33 34 35 35 35 36 37 38
14 12 14 11 12 12 10 12 8 12 7 7 8 11 18 26 27 26 25 26 26 25 25 25 25 26 27 27 28 31 30 28 29 30 31 32 33 34 35 36 37 39 41 41
12 13 12 10 9 9 11 9 11 12 11 6 6 7 25 25 26 24 24 25 26 24 25 25 25 25 26 27 27 30 29 29 29 29 31 32 32 33 34 33 35 36 37 39
13 13 9 10 14 13 14 13 14 9 9 10 9 10 28 26 26 24 23 24 24 24 24 25 25 25 25 26 26 27 27 27 28 29 30 31 32 32 32 32 33 34 34 35
16 13 8 8 12 22 19 22 23 24 21 13 9 10 28 28 24 24 24 24 24 23 24 25 24 24 24 24 24 25 26 26 26 28 28 29 31 31 30 31 31 32 32 32
18 16 11 9 10 18 15 15 15 19 21 18 17 17 26 27 23 24 24 25 24 24 23 23 22 22 22 22 22 24 25 26 25 26 25 26 27 30 30 30 29 29 30 31
17 12 17 17 18 18 17 16 16 15 15 21 19 20 22 25 24 23 24 24 23 22 21 20 20 21 20 21 21 22 22 24 24 25 24 24 26 28 30 28 27 28 28 29
20 14 18 15 17 18 16 17 17 19 20 19 20 23 26 25 25 24 24 23 22 19 18 17 17 18 19 20 20 21 21 22 20 21 21 22 23 24 26 27 26 25 26 26
18 17 16 11 18 20 18 22 20 20 20 17 16 22 25 24 23 23 23 22 20 17 17 17 18 18 20 21 21 20 21 22 18 18 18 18 20 21 23 22 24 23 22 23
20 18 19 18 15 10 17 27 26 26 26 26 25 25 25 25 24 24 23 20 17 15 16 17 19 19 20 20 21 20 21 21 20 18 18 16 17 18 19 20 19 20 20 20
22 20 18 14 18 17 22 24 25 25 23 26 26 25 24 23 22 20 20 19 18 18 18 19 20 20 20 19 20 20 20 21 21 19 18 17 16 15 16 17 19 18 18 18
24 21 17 21 17 15 22 29 28 26 20 27 26 23 22 22 20 19 19 18 18 18 19 18 19 19 18 18 19 18 19 20 20 21 19 18 17 17 15 15 16 17 17 17
23 23 20 20 18 19 26 25 27 18 16 27 25 24 22 21 24 22 19 17 17 16 17 18 17 16 17 17 17 17 17 18 19 20 19 18 18 17 17 16 16 16 16 16
24 22 22 23 19 15 26 26 24 25 29 28 25 25 23 21 21 18 17 16 17 16 15 16 14 14 15 16 16 17 17 17 18 18 18 17 17 18 17 16 15 15 15 15
24 25 22 22 20 25 28 27 29 29 28 27 26 25 22 20 18 18 19 19 19 15 14 15 14 13 14 15 16 16 17 17 17 18 18 18 17 17 16 17 15 14 13 14
31 29 25 25 27 27 28 29 30 29 28 27 26 24 21 19 18 18 19 18 18 17 14 15 13 13 14 15 16 16 17 19 18 17 18 19 18 18 18 17 17 16 13 13
27 27 25 24 24 25 26 28 29 27 25 25 24 23 21 19 18 18 18 18 15 16 17 15 14 14 14 15 16 17 17 18 20 17 17 18 18 17 16 19 20 18 15 12
27 25 23 21 24 23 23 28 28 26 24 23 22 20 19 19 18 17 16 15 14 13 12 11 11 12 13 14 15 17 16 16 17 17 15 15 16 16 16 14 13 16 13 12

GFSCGP_sfc_30mbdewp_132.txt.gz
Dewpoint
17 13 10 11 12 12 11 11 11 12 14 13 14 12 23 29 28 27 27 27 26 26 27 26 26 25 26 26 27 28 28 29 28 28 28 28 28 29 31 32 35 38 36 44
12 12 14 16 16 15 15 14 14 15 16 14 12 10 26 28 27 27 26 26 26 26 26 26 25 26 26 27 28 28 28 29 28 29 29 28 28 29 29 31 32 32 36 35
16 13 14 14 14 14 16 15 15 15 12 10 9 8 23 27 27 27 26 26 26 25 25 26 25 26 26 27 28 28 27 28 28 29 28 28 29 29 29 29 29 30 31 33
18 19 18 17 17 16 16 18 17 15 7 6 9 5 9 25 26 26 26 26 26 26 26 26 26 26 26 27 27 27 27 28 28 28 28 27 27 27 28 30 30 31 32 33
21 17 18 17 17 18 16 13 10 9 7 7 8 6 11 26 24 25 26 26 26 26 26 25 26 26 26 26 26 27 28 27 26 26 27 27 27 27 28 29 30 31 32 33
20 18 16 17 15 13 13 10 11 13 9 6 8 6 7 21 23 26 26 26 26 25 25 25 26 25 25 25 25 26 28 26 27 27 27 26 27 27 27 28 29 33 34 35
20 22 18 17 18 12 11 9 8 7 7 6 11 8 7 22 27 27 26 26 26 25 24 25 24 24 24 25 26 25 26 26 26 26 28 28 29 30 30 30 32 33 34 35
13 9 13 13 13 11 10 10 7 4 5 7 12 9 10 26 27 27 27 26 26 24 24 24 24 24 24 25 25 24 25 25 25 25 26 27 29 30 32 32 33 34 34 35
9 9 14 12 13 12 12 9 12 9 12 9 8 11 24 27 27 27 26 26 25 23 23 24 24 24 24 24 24 25 25 24 25 25 26 26 27 31 31 32 34 34 35 35
13 9 14 12 12 12 12 13 9 12 7 7 10 11 11 21 25 27 26 25 25 23 23 23 23 23 23 24 24 24 25 25 25 25 25 26 26 31 31 31 30 32 34 34
16 13 12 11 10 11 10 10 12 13 12 7 7 10 14 15 23 27 26 25 24 23 22 22 22 21 22 23 23 24 24 24 23 24 25 26 26 28 29 28 29 30 32 33
15 15 11 11 15 17 13 11 12 8 8 11 10 9 25 26 26 27 24 24 24 22 22 21 20 20 20 21 22 23 23 21 22 23 24 24 25 26 26 26 26 29 29 32
15 13 10 11 12 18 12 15 15 20 19 8 9 11 26 26 25 24 24 24 23 22 21 19 18 19 20 22 22 23 22 21 21 22 22 22 22 24 23 24 25 26 27 29
19 14 13 11 13 15 13 18 21 17 12 11 13 14 18 24 24 24 24 24 22 21 19 18 17 19 21 22 22 22 22 21 20 19 19 19 20 21 22 23 23 24 26 26
17 12 15 16 16 16 15 14 17 17 15 14 13 14 16 20 23 24 24 23 22 20 17 17 17 19 20 20 21 21 21 20 20 18 17 17 18 19 20 20 21 22 23 25
19 15 16 12 15 16 15 18 17 17 18 18 18 17 18 21 26 24 24 23 21 18 16 16 17 17 18 19 20 20 20 20 19 18 17 17 16 16 17 18 19 20 21 22
23 23 19 17 17 16 13 15 16 17 19 16 14 16 23 24 25 24 23 22 20 17 15 16 17 18 19 20 20 20 19 19 18 18 17 17 16 16 16 17 18 18 19 20
20 18 17 14 15 12 14 20 23 23 23 23 22 23 24 24 24 24 23 22 18 15 15 16 18 18 19 20 20 19 17 17 17 17 17 17 17 15 16 16 17 17 18 18
21 19 16 14 14 16 15 20 24 24 20 25 26 25 23 22 21 21 23 20 16 16 17 18 19 19 19 19 20 19 17 16 16 16 16 16 16 16 15 15 16 17 16 16
23 22 17 18 16 12 13 26 27 25 17 26 26 25 23 22 22 20 22 18 16 17 18 18 18 18 18 18 18 17 17 17 16 16 16 16 16 16 15 16 16 17 16 15
21 19 17 18 17 18 20 27 26 15 10 26 27 25 23 22 22 20 19 17 17 18 17 17 16 16 16 16 17 17 16 16 16 17 16 16 17 16 15 15 16 16 16 14
19 18 18 18 19 15 26 27 21 21 28 27 26 24 22 21 20 19 16 15 17 16 16 15 15 15 15 16 16 16 16 15 15 16 16 15 16 16 15 14 14 15 14 14
19 19 20 20 20 23 28 25 28 28 28 27 26 24 22 19 17 16 14 16 16 16 14 14 14 15 15 16 16 16 16 15 16 15 15 14 14 15 14 13 13 14 12 12
28 28 23 23 24 25 26 28 29 29 28 28 26 24 22 19 16 14 15 15 15 15 14 14 14 15 15 15 17 17 16 15 14 14 14 14 14 13 14 13 13 13 13 11
26 29 27 26 27 26 27 28 28 29 28 27 25 23 21 18 15 14 15 15 15 15 15 15 15 15 15 17 17 17 17 16 14 14 14 13 13 11 10 12 12 12 13 12
30 29 28 24 28 27 24 24 28 27 27 26 24 23 21 17 14 14 14 15 15 14 15 15 15 15 15 16 16 16 17 15 15 14 13 12 12 11 10 8 8 12 11 10